[[{"header":{"parameterUnit":"m.s-1","parameterCategory":1,"la1":30.6,"la2":28.766,"lo1":-90.7593,"lo2":-88.6598,"dy":0.0162,"dx":0.0183,"nx":116,"ny":114,"refTime":"2023-08-25T00:00:00:Z","depth":0,"parameterNumber":2,"parameterNumberName":"U-component_of_WINDS"},"data":[0.0,0.0,0.0,0.0,0.0,0.0,0.0,0.0,0.0,0.0,0.0,0.0,0.0,0.0,0.0,0.0,0.0,0.0,0.0,0.0,0.0,0.0,0.0,0.0,0.0,0.0,0.0,0.0,0.0,0.0,0.0,0.0,0.0,0.0,0.0,0.0,0.0,0.0,0.0,0.0,0.0,0.0,0.0,0.0,0.0,0.0,0.0,0.0,0.0,0.0,0.0,0.0,0.0,0.0,0.0,0.0,0.0,0.0,0.0,0.0,0.0,0.0,0.0,0.0,0.0,0.0,0.0,0.0,0.0,0.0,0.0,0.0,0.0,0.0,0.0,0.0,0.0,0.0,0.0,0.0,0.0,0.0,0.0,0.0,0.0,0.0,0.0,0.0,0.0,0.0,0.0,0.0,0.0,0.0,0.0,0.0,0.0,0.0,0.0,0.0,0.0,0.0,0.0,0.0,0.0,0.0,0.0,0.0,0.0,0.0,0.0,0.0,0.0,0.0,0.0,0.0,0.0,0.0,0.0,0.0,0.0,0.0,0.0,0.0,0.0,0.0,0.0,0.0,0.0,0.0,0.0,0.0,0.0,0.0,0.0,0.0,0.0,0.0,0.0,0.0,0.0,0.0,0.0,0.0,0.0,0.0,0.0,0.0,0.0,0.0,0.0,0.0,0.0,0.0,0.0,0.0,0.0,0.0,0.0,0.0,0.0,0.0,0.0,0.0,0.0,0.0,0.0,0.0,0.0,0.0,0.0,0.0,0.0,0.0,0.0,0.0,0.0,0.0,0.0,0.0,0.0,0.0,0.0,0.0,0.0,0.0,0.0,0.0,0.0,0.0,0.0,0.0,0.0,0.0,0.0,0.0,0.0,0.0,0.0,0.0,0.0,0.0,0.0,0.0,0.0,0.0,0.0,0.0,0.0,0.0,0.0,0.0,0.0,0.0,0.0,0.0,0.0,0.0,0.0,0.0,0.0,0.0,0.0,0.0,0.0,0.0,0.0,0.0,0.0,0.0,0.0,0.0,0.0,0.0,0.0,0.0,0.0,0.0,0.0,0.0,0.0,0.0,0.0,0.0,0.0,0.0,0.0,0.0,0.0,0.0,0.0,0.0,0.0,0.0,0.0,0.0,0.0,0.0,0.0,0.0,0.0,0.0,0.0,0.0,0.0,0.0,0.0,0.0,0.0,0.0,0.0,0.0,0.0,0.0,0.0,0.0,0.0,0.0,0.0,0.0,0.0,0.0,0.0,0.0,0.0,0.0,0.0,0.0,0.0,0.0,0.0,0.0,0.0,0.0,0.0,0.0,0.0,0.0,0.0,0.0,0.0,0.0,0.0,0.0,0.0,0.0,0.0,0.0,0.0,0.0,0.0,0.0,0.0,0.0,0.0,0.0,0.0,0.0,0.0,0.0,0.0,0.0,0.0,0.0,0.0,0.0,0.0,0.0,0.0,0.0,0.0,0.0,0.0,0.0,0.0,0.0,0.0,0.0,0.0,0.0,0.0,0.0,0.0,0.0,0.0,0.0,0.0,0.0,0.0,0.0,0.0,0.0,0.0,0.0,0.0,0.0,0.0,0.0,0.0,0.0,0.0,0.0,0.0,0.0,0.0,0.0,0.0,0.0,0.0,0.0,0.0,0.0,0.0,0.0,0.0,0.0,0.0,0.0,0.0,0.0,0.0,0.0,0.0,0.0,0.0,0.0,0.0,0.0,0.0,0.0,0.0,0.0,0.0,0.0,0.0,0.0,0.0,0.0,0.0,0.0,0.0,0.0,0.0,0.0,0.0,0.0,0.0,0.0,0.0,0.0,0.0,0.0,0.0,0.0,0.0,0.0,0.0,0.0,0.0,0.0,0.0,0.0,0.0,0.0,0.0,0.0,0.0,0.0,0.0,0.0,0.0,0.0,0.0,0.0,0.0,0.0,0.0,0.0,0.0,0.0,0.0,0.0,0.0,0.0,0.0,0.0,0.0,0.0,0.0,0.0,0.0,0.0,0.0,0.0,0.0,0.0,0.0,0.0,0.0,0.0,0.0,0.0,0.0,0.0,0.0,0.0,0.0,0.0,0.0,0.0,0.0,0.0,0.0,0.0,0.0,0.0,0.0,0.0,0.0,0.0,0.0,0.0,0.0,0.0,0.0,0.0,0.0,0.0,0.0,0.0,0.0,0.0,0.0,0.0,0.0,0.0,0.0,0.0,0.0,0.0,0.0,0.0,0.0,0.0,0.0,0.0,0.0,0.0,0.0,0.0,0.0,0.0,0.0,0.0,0.0,0.0,0.0,0.0,0.0,0.0,0.0,0.0,0.0,0.0,0.0,0.0,0.0,0.0,0.0,0.0,0.0,0.0,0.0,0.0,0.0,0.0,0.0,0.0,0.0,0.0,0.0,0.0,0.0,0.0,0.0,0.0,0.0,0.0,0.0,0.0,0.0,0.0,0.0,0.0,0.0,0.0,0.0,0.0,0.0,0.0,0.0,0.0,0.0,0.0,0.0,0.0,0.0,0.0,0.0,0.0,0.0,0.0,0.0,0.0,0.0,0.0,0.0,0.0,0.0,0.0,0.0,0.0,0.0,0.0,0.0,0.0,0.0,0.0,0.0,0.0,0.0,0.0,0.0,0.0,0.0,0.0,0.0,0.0,0.0,0.0,0.0,0.0,0.0,0.0,0.0,0.0,0.0,0.0,0.0,0.0,0.0,0.0,0.0,0.0,0.0,0.0,0.0,0.0,0.0,0.0,0.0,0.0,0.0,0.0,0.0,0.0,0.0,0.0,0.0,0.0,0.0,0.0,0.0,0.0,0.0,0.0,0.0,0.0,0.0,0.0,0.0,0.0,0.0,0.0,0.0,0.0,0.0,0.0,0.0,0.0,0.0,0.0,0.0,0.0,0.0,0.0,0.0,0.0,0.0,0.0,0.0,0.0,0.0,0.0,0.0,0.0,0.0,0.0,0.0,0.0,0.0,0.0,0.0,0.0,0.0,0.0,0.0,0.0,0.0,0.0,0.0,0.0,0.0,0.0,0.0,0.0,0.0,0.0,0.0,0.0,0.0,0.0,0.0,0.0,0.0,0.0,0.0,0.0,0.0,0.0,0.0,0.0,0.0,0.0,0.0,0.0,0.0,0.0,0.0,0.0,0.0,0.0,0.0,0.0,0.0,0.0,0.0,0.0,0.0,0.0,0.0,0.0,0.0,0.0,0.0,0.0,0.0,0.0,0.0,0.0,0.0,0.0,0.0,0.0,0.0,0.0,0.0,0.0,0.0,0.0,0.0,0.0,0.0,0.0,0.0,0.0,0.0,0.0,0.0,0.0,0.0,0.0,0.0,0.0,0.0,0.0,0.0,0.0,0.0,0.0,0.0,0.0,0.0,0.0,0.0,0.0,0.0,0.0,0.0,0.0,0.0,0.0,0.0,0.0,0.0,0.0,0.0,0.0,0.0,0.0,0.0,0.0,0.0,0.0,0.0,0.0,0.0,0.0,0.0,0.0,0.0,0.0,0.0,0.0,0.0,0.0,0.0,0.0,0.0,0.0,0.0,0.0,0.0,0.0,0.0,0.0,0.0,0.0,0.0,0.0,0.0,0.0,0.0,0.0,0.0,0.0,0.0,0.0,0.0,0.0,0.0,0.0,0.0,0.0,0.0,0.0,0.0,0.0,0.0,0.0,0.0,0.0,0.0,0.0,0.0,0.0,0.0,0.0,0.0,0.0,0.0,0.0,0.0,0.0,0.0,0.0,0.0,0.0,0.0,0.0,0.0,0.0,0.0,0.0,0.0,0.0,0.0,0.0,0.0,0.0,0.0,0.0,0.0,0.0,0.0,0.0,0.0,0.0,0.0,0.0,0.0,0.0,0.0,0.0,0.0,0.0,0.0,0.0,0.0,0.0,0.0,0.0,0.0,0.0,0.0,0.0,0.0,0.0,0.0,0.0,0.0,0.0,0.0,0.0,0.0,0.0,0.0,0.0,0.0,0.0,0.0,0.0,0.0,0.0,0.0,0.0,0.0,0.0,0.0,0.0,0.0,0.0,0.0,0.0,0.0,0.0,0.0,0.0,0.0,0.0,0.0,0.0,0.0,0.0,0.0,0.0,0.0,0.0,0.0,0.0,0.0,0.0,0.0,0.0,0.0,0.0,0.0,0.0,0.0,0.0,0.0,0.0,0.0,0.0,0.0,0.0,0.0,0.0,0.0,0.0,0.0,0.0,0.0,0.0,0.0,0.0,0.0,0.0,0.0,0.0,0.0,0.0,0.0,0.0,0.0,0.0,0.0,0.0,0.0,0.0,0.0,0.0,0.0,0.0,0.0,0.0,0.0,0.0,0.0,0.0,0.0,0.0,0.0,0.0,0.0,0.0,0.0,0.0,0.0,0.0,0.0,0.0,0.0,0.0,0.0,0.0,0.0,0.0,0.0,0.0,0.0,0.0,0.0,0.0,0.0,0.0,0.0,0.0,0.0,0.0,0.0,0.0,0.0,0.0,0.0,0.0,0.0,0.0,0.0,0.0,0.0,0.0,0.0,0.0,0.0,0.0,0.0,0.0,0.0,0.0,0.0,0.0,0.0,0.0,0.0,0.0,0.0,0.0,0.0,0.0,0.0,0.0,0.0,0.0,0.0,0.0,0.0,0.0,0.0,0.0,0.0,0.0,0.0,0.0,0.0,0.0,0.0,0.0,0.0,0.0,0.0,0.0,0.0,0.0,0.0,0.0,0.0,0.0,0.0,0.0,0.0,0.0,0.0,0.0,0.0,0.0,0.0,0.0,0.0,0.0,0.0,0.0,0.0,0.0,0.0,0.0,0.0,0.0,0.0,0.0,0.0,0.0,0.0,0.0,0.0,0.0,0.0,0.0,0.0,0.0,0.0,0.0,0.0,0.0,0.0,0.0,0.0,0.0,0.0,0.0,0.0,0.0,0.0,0.0,0.0,0.0,0.0,0.0,0.0,0.0,0.0,0.0,0.0,0.0,0.0,0.0,0.0,0.0,0.0,0.0,0.0,0.0,0.0,0.0,0.0,0.0,0.0,0.0,0.0,0.0,0.0,0.0,0.0,0.0,0.0,0.0,0.0,0.0,0.0,0.0,0.0,0.0,0.0,0.0,0.0,0.0,0.0,0.0,0.0,0.0,0.0,0.0,0.0,0.0,0.0,0.0,0.0,0.0,0.0,0.0,0.0,0.0,0.0,0.0,0.0,0.0,0.0,0.0,0.0,0.0,0.0,0.0,0.0,0.0,0.0,0.0,0.0,0.0,0.0,0.0,0.0,0.0,0.0,0.0,0.0,0.0,0.0,0.0,0.0,0.0,0.0,0.0,0.0,0.0,0.0,0.0,0.0,0.0,0.0,0.0,0.0,0.0,0.0,0.0,0.0,0.0,0.0,0.0,0.0,0.0,0.0,0.0,0.0,0.0,0.0,0.0,0.0,0.0,0.0,0.0,0.0,0.0,0.0,0.0,0.0,0.0,0.0,0.0,0.0,0.0,0.0,0.0,0.0,0.0,0.0,0.0,0.0,0.0,0.0,0.0,0.0,0.0,0.0,0.0,0.0,0.0,0.0,0.0,0.0,0.0,0.0,0.0,0.0,0.0,0.0,0.0,0.0,0.0,0.0,0.0,0.0,0.0,0.0,0.0,0.0,0.0,0.0,0.0,0.0,0.0,0.0,0.0,0.0,0.0,0.0,0.0,0.0,0.0,0.0,0.0,0.0,0.0,0.0,0.0,0.0,0.0,0.0,0.0,0.0,0.0,0.0,0.0,0.0,0.0,0.0,0.0,0.0,0.0,0.0,0.0,0.0,0.0,0.0,0.0,0.0,0.0,0.0,0.0,0.0,0.0,0.0,0.0,0.0,0.0,0.0,0.0,0.0,0.0,0.0,0.0,0.0,0.0,0.0,0.0,0.0,0.0,0.0,0.0,0.0,0.0,0.0,0.0,0.0,0.0,0.0,0.0,0.0,0.0,0.0,0.0,0.0,0.0,0.0,0.0,0.0,0.0,0.0,0.0,0.0,0.0,0.0,0.0,0.0,0.0,0.0,0.0,0.0,0.0,0.0,0.0,0.0,0.0,0.0,0.0,0.0,0.0,0.0,0.0,0.0,0.0,3.2681,3.5004,0.0,0.0,0.0,0.0,0.0,0.0,0.0,0.0,0.0,0.0,0.0,0.0,0.0,0.0,0.0,0.0,0.0,0.0,0.0,0.0,0.0,0.0,0.0,0.0,0.0,0.0,0.0,0.0,0.0,0.0,0.0,0.0,0.0,0.0,0.0,0.0,0.0,0.0,3.4589,3.5065,3.6322,3.7131,3.7621,3.7812,0.0,0.0,0.0,0.0,0.0,0.0,0.0,0.0,0.0,0.0,0.0,0.0,0.0,0.0,0.0,0.0,0.0,0.0,0.0,0.0,0.0,0.0,0.0,0.0,0.0,0.0,0.0,0.0,0.0,0.0,0.0,0.0,0.0,0.0,0.0,0.0,0.0,0.0,0.0,0.0,0.0,0.0,0.0,0.0,0.0,0.0,0.0,0.0,0.0,0.0,0.0,0.0,0.0,0.0,0.0,0.0,0.0,0.0,0.0,0.0,0.0,0.0,0.0,0.0,0.0,0.0,0.0,0.0,0.0,0.0,2.9543,3.1599,0.0,0.0,0.0,0.0,0.0,0.0,0.0,0.0,0.0,0.0,0.0,0.0,0.0,0.0,0.0,0.0,0.0,0.0,0.0,0.0,0.0,0.0,0.0,0.0,3.3297,3.3297,3.3673,3.3839,0.0,0.0,0.0,0.0,0.0,0.0,0.0,3.2489,3.2618,3.3283,3.3031,3.3573,3.4832,3.5721,3.6274,3.6585,3.7546,0.0,0.0,0.0,0.0,0.0,0.0,0.0,0.0,0.0,0.0,0.0,0.0,0.0,0.0,0.0,0.0,0.0,0.0,0.0,0.0,0.0,0.0,0.0,0.0,0.0,0.0,0.0,0.0,0.0,0.0,0.0,0.0,0.0,0.0,0.0,0.0,0.0,0.0,0.0,0.0,0.0,0.0,0.0,0.0,0.0,0.0,0.0,0.0,0.0,0.0,0.0,0.0,0.0,0.0,0.0,0.0,0.0,0.0,0.0,0.0,0.0,0.0,0.0,2.3992,2.4623,2.5068,2.4887,2.4856,2.5038,2.6977,2.8367,2.9344,3.1052,0.0,0.0,0.0,0.0,0.0,0.0,0.0,0.0,0.0,0.0,0.0,0.0,0.0,0.0,0.0,0.0,0.0,0.0,0.0,0.0,0.0,3.2349,3.229,3.229,3.2232,3.2087,0.0,0.0,0.0,0.0,0.0,0.0,3.2489,3.2155,3.2128,3.2464,3.2848,3.3268,3.3614,3.4283,3.4581,3.4714,3.6228,3.737,3.8141,0.0,0.0,0.0,0.0,0.0,0.0,0.0,0.0,0.0,0.0,0.0,0.0,0.0,0.0,0.0,0.0,0.0,0.0,0.0,0.0,0.0,0.0,0.0,0.0,0.0,0.0,0.0,0.0,0.0,0.0,0.0,0.0,0.0,0.0,0.0,0.0,0.0,0.0,0.0,0.0,0.0,3.1093,2.9007,0.0,0.0,0.0,0.0,0.0,0.0,0.0,0.0,0.0,0.0,0.0,0.0,0.0,1.9623,1.929,2.0241,2.0716,2.0804,2.2066,2.2822,2.3095,2.3289,2.3486,2.3759,2.4089,0.0,2.5982,2.7877,0.0,0.0,0.0,0.0,0.0,0.0,0.0,0.0,0.0,0.0,0.0,0.0,0.0,0.0,0.0,0.0,0.0,0.0,0.0,0.0,0.0,3.1206,3.1415,3.1267,3.1576,3.1649,3.1341,3.0882,0.0,0.0,0.0,3.0443,3.1044,3.0921,3.1009,3.1368,3.1915,3.2249,3.2321,3.3031,3.3602,3.4056,3.4832,3.5867,3.704,3.8003,0.0,0.0,0.0,0.0,0.0,0.0,0.0,0.0,0.0,0.0,0.0,0.0,0.0,0.0,0.0,0.0,0.0,0.0,0.0,0.0,0.0,0.0,0.0,0.0,0.0,0.0,0.0,0.0,0.0,0.0,0.0,0.0,0.0,0.0,0.0,0.0,0.0,0.0,0.0,2.8597,2.6967,2.4859,2.3843,2.2905,0.0,0.0,0.0,0.0,0.0,0.0,0.0,0.0,0.0,1.7526,1.7631,1.7843,1.8052,1.8617,1.9075,1.9617,2.0658,2.1581,2.2302,2.2861,2.3144,2.3319,2.3319,2.3536,2.4138,2.5196,2.5562,2.5559,0.0,0.0,0.0,0.0,3.1992,3.3725,0.0,0.0,0.0,0.0,0.0,0.0,0.0,0.0,0.0,0.0,0.0,0.0,2.9767,3.0177,3.0456,3.0241,3.0758,3.082,3.0367,2.9768,0.0,0.0,2.925,2.8924,2.9666,2.9756,3.0101,3.0698,3.096,3.1084,3.1158,3.1829,3.2464,3.3059,3.3616,3.4647,3.6054,3.716,3.7962,3.8525,0.0,0.0,0.0,0.0,0.0,0.0,0.0,0.0,0.0,0.0,0.0,0.0,0.0,0.0,0.0,0.0,0.0,0.0,0.0,0.0,0.0,0.0,0.0,0.0,0.0,0.0,0.0,0.0,0.0,0.0,0.0,0.0,0.0,0.0,0.0,0.0,0.0,2.5174,2.3361,2.1269,2.02,1.9356,0.0,0.0,0.0,0.0,0.0,0.0,1.5655,1.5059,1.5066,1.5745,1.6229,1.6607,1.6951,1.7333,1.7978,1.8688,1.9422,2.0322,2.1311,2.2315,2.2775,2.2862,2.3047,2.3135,2.3135,2.358,2.3667,2.3744,2.4787,2.5189,2.5262,2.6476,2.8029,2.9523,0.0,0.0,0.0,0.0,0.0,0.0,0.0,0.0,0.0,0.0,0.0,2.9767,2.9419,2.9419,2.9419,2.9197,2.904,2.8949,2.8949,2.8339,2.8271,2.887,2.8438,2.8323,2.8797,2.8978,2.9651,3.0698,3.0164,3.0011,3.0152,3.0771,3.1031,3.1106,3.2777,3.4245,3.5514,3.6661,3.716,3.7354,3.8816,0.0,0.0,0.0,0.0,0.0,0.0,0.0,0.0,0.0,0.0,0.0,0.0,0.0,0.0,0.0,0.0,0.0,0.0,0.0,0.0,0.0,0.0,0.0,0.0,0.0,0.0,0.0,0.0,0.0,0.0,0.0,0.0,0.0,0.0,0.0,0.0,0.0,0.0,1.882,1.8207,0.0,0.0,0.0,0.0,1.3864,1.367,1.3665,1.3647,1.3647,1.3829,1.4382,1.5337,1.5812,1.5893,1.685,1.7326,1.7419,1.8427,1.8964,1.9314,2.0962,2.1872,2.2129,2.2775,2.3135,2.3135,2.3406,2.3406,2.3232,2.3657,2.3744,2.3667,2.3917,2.5041,2.6311,0.0,0.0,0.0,0.0,0.0,0.0,0.0,0.0,2.9792,2.9792,2.9611,2.9509,2.9419,2.9275,2.9118,2.8961,2.8882,2.8724,2.8657,2.8191,2.8111,2.8554,2.7649,2.7313,2.7718,2.8039,2.8767,2.9651,2.8609,2.8712,2.9856,2.9316,2.9743,3.0895,3.1402,3.255,3.4095,3.5548,3.6523,3.7011,3.7764,3.8574,0.0,0.0,0.0,0.0,0.0,0.0,0.0,0.0,0.0,0.0,0.0,0.0,0.0,0.0,0.0,0.0,0.0,0.0,0.0,0.0,0.0,0.0,0.0,0.0,0.0,0.0,0.0,0.0,0.0,0.0,0.0,0.0,0.0,0.0,0.0,0.0,0.0,1.7237,1.6759,0.0,1.4496,1.4298,1.401,1.3152,1.2759,1.2559,1.2554,1.2165,1.2646,1.3992,1.4561,1.5419,1.6581,1.7052,1.7326,1.7326,1.8334,1.888,1.8964,2.0881,2.1784,2.1863,2.2872,2.3232,2.3135,2.3416,2.3319,2.3135,2.3309,2.3406,2.3503,2.359,2.3993,2.4648,0.0,0.0,0.0,0.0,0.0,0.0,0.0,0.0,2.9792,2.9792,2.9599,2.9341,2.9353,2.9118,2.8882,2.8736,2.8724,2.8578,2.8351,2.7869,2.7696,2.781,2.6846,2.6693,2.7499,2.7406,2.8051,2.9419,2.8199,2.8303,2.9792,2.9052,2.9328,3.0545,3.0683,3.1476,3.2932,3.4447,3.5529,3.6352,3.6982,3.7663,3.8165,0.0,0.0,0.0,0.0,0.0,0.0,0.0,0.0,0.0,0.0,0.0,0.0,0.0,0.0,0.0,0.0,0.0,0.0,0.0,0.0,0.0,0.0,0.0,0.0,0.0,0.0,0.0,0.0,0.0,0.0,0.0,0.0,0.0,0.0,1.8074,1.7184,1.6119,1.5761,1.5159,1.41,1.4004,1.3721,1.2861,1.2467,1.2078,1.178,1.1389,1.1775,1.2937,1.389,1.4848,1.6103,1.6857,1.7326,1.7333,1.7963,1.8519,1.888,2.0421,2.1418,2.1784,2.2872,2.3319,2.3232,2.3319,2.3319,2.3232,2.3144,2.3232,2.3503,2.3406,2.358,2.3841,0.0,0.0,0.0,0.0,0.0,0.0,0.0,3.0482,2.9792,2.9792,2.9599,2.9341,2.9131,2.8882,2.8724,2.851,2.851,2.8351,2.7973,2.7441,2.701,2.6528,2.6135,2.6622,2.8051,2.7092,2.7742,3.0075,2.8949,2.8961,2.9792,2.9792,2.9792,2.9869,3.0545,3.1341,3.2146,3.3297,3.4356,3.5279,3.6415,3.6906,3.6906,0.0,0.0,0.0,0.0,0.0,0.0,0.0,0.0,0.0,0.0,0.0,0.0,0.0,0.0,0.0,0.0,0.0,0.0,0.0,0.0,0.0,0.0,0.0,0.0,0.0,0.0,0.0,0.0,0.0,0.0,0.0,0.0,0.0,1.7232,1.7066,1.6595,1.5534,1.5166,1.4885,1.4298,1.4298,1.3817,1.2861,1.2764,1.2273,1.1296,1.1194,1.1292,1.1292,1.3307,1.4364,1.4364,1.6372,1.7326,1.7326,1.7326,1.7785,1.8796,1.9786,2.0692,2.1695,2.2687,2.3232,2.3503,2.3232,2.3232,2.3503,2.3232,2.3232,2.3503,2.3232,2.3396,2.3841,0.0,0.0,0.0,0.0,0.0,0.0,0.0,3.0482,2.9792,2.9792,2.9456,2.9131,2.9131,2.8816,2.8578,2.851,2.851,2.8351,2.7973,2.7441,2.6857,2.6135,2.7021,2.7429,2.7196,2.7834,2.8462,2.9118,2.8051,2.8303,2.9792,2.8961,2.9052,2.9869,3.0406,3.1193,3.2146,3.3297,3.4356,3.5279,3.5816,3.629,3.6662,0.0,0.0,0.0,0.0,0.0,0.0,0.0,0.0,0.0,0.0,0.0,0.0,0.0,0.0,0.0,0.0,0.0,0.0,0.0,0.0,0.0,0.0,0.0,0.0,0.0,0.0,0.0,0.0,0.0,0.0,0.0,1.7613,1.7138,1.6864,1.6204,1.5635,1.5261,1.4783,1.4304,1.3727,1.3732,1.334,1.2273,1.2175,1.1883,1.1194,1.1868,1.2635,1.3403,1.4746,1.5704,1.6466,1.7037,1.7326,1.7326,1.7326,1.7419,1.7785,1.9422,2.0322,2.0692,2.2589,2.3319,2.3232,2.3319,2.3319,2.3232,2.3144,2.3232,2.3503,2.3416,2.3677,2.411,0.0,0.0,0.0,0.0,0.0,0.0,0.0,3.0482,2.9792,2.9792,2.9378,2.9131,2.9131,2.8749,2.851,2.851,2.851,2.8271,2.7626,2.7044,2.6622,2.6467,2.694,2.7348,2.7834,2.7822,2.8315,2.9209,2.8223,2.8383,2.9792,2.9131,2.9131,2.9792,3.0139,3.0771,3.1709,3.2834,3.3782,3.4639,3.4942,3.5578,3.618,3.5429,3.4927,3.447,3.3506,3.2533,3.1676,3.1869,0.0,0.0,0.0,0.0,0.0,0.0,0.0,0.0,0.0,0.0,0.0,0.0,0.0,0.0,0.0,0.0,0.0,0.0,0.0,0.0,0.0,0.0,0.0,0.0,1.7153,1.6864,1.6298,1.5825,1.5445,1.5178,1.4688,1.4304,1.3919,1.3636,1.3152,1.237,1.2175,1.1785,1.1194,1.2252,1.3119,1.3788,1.5317,1.6459,1.7037,1.7333,1.7434,1.7434,1.7792,1.8149,1.8603,2.015,2.1051,2.1507,2.2775,2.3319,2.3319,2.3416,2.3416,2.3232,0.0,0.0,0.0,0.0,2.3764,2.3937,0.0,0.0,0.0,0.0,0.0,0.0,0.0,3.0532,2.9867,2.9804,2.9378,2.9131,2.9131,2.8736,2.851,2.851,2.8431,2.8099,2.7185,2.6467,2.6385,2.7185,2.6622,2.7185,2.9081,2.7649,2.7834,2.9792,2.904,2.904,2.9792,2.9792,2.9792,2.9792,2.9998,3.0419,3.1106,3.2393,3.3339,3.4002,3.4312,3.4927,3.5479,3.4728,3.4192,3.3644,3.216,3.1516,3.1294,3.0444,0.0,0.0,0.0,0.0,0.0,0.0,0.0,0.0,0.0,0.0,0.0,0.0,0.0,0.0,0.0,0.0,0.0,0.0,0.0,0.0,0.0,0.0,0.0,0.0,1.6784,1.6393,1.5927,1.5737,1.5547,1.5178,1.4885,1.4592,1.4298,1.3823,1.3346,1.2861,1.2273,1.178,1.1389,1.2543,0.0,0.0,0.0,1.6741,1.6835,1.7426,1.7721,1.7729,1.8342,1.9147,2.0051,2.106,2.205,2.296,2.3047,2.3232,2.3503,2.3503,2.3503,2.3493,2.3232,2.3232,2.3503,2.3667,2.3667,2.359,0.0,0.0,0.0,0.0,0.0,0.0,0.0,3.0859,3.0294,2.9854,2.9521,2.9275,2.9131,2.8882,2.8645,2.851,2.8203,2.7626,2.6693,2.6857,2.7021,2.7185,2.8223,2.8858,2.9081,2.9341,2.9521,2.9792,2.9624,2.9624,2.9792,2.9792,2.9792,2.9869,3.1193,3.1901,3.2177,3.3919,3.4854,3.5213,3.5365,3.5059,3.4514,3.3768,3.3073,3.2434,3.2318,3.1763,3.1048,3.0685,3.0457,3.0292,2.9934,2.9702,0.0,0.0,0.0,0.0,0.0,0.0,0.0,0.0,0.0,0.0,0.0,0.0,0.0,0.0,0.0,0.0,0.0,0.0,0.0,1.7073,1.6784,1.6393,1.5927,1.5458,1.5178,1.5083,1.4688,1.4394,1.4298,1.3823,1.3346,1.2861,1.2273,1.2165,1.2441,1.3596,1.4835,1.588,1.7124,1.7893,1.8094,1.7815,1.7721,1.7721,1.7613,0.0,1.9063,2.0059,2.1141,2.2217,2.2862,2.3309,2.3754,2.359,2.359,2.3667,2.3232,2.3232,2.3503,2.3503,2.3677,2.3754,0.0,0.0,0.0,0.0,0.0,0.0,0.0,3.0947,3.0419,2.9867,2.9443,2.9197,2.9131,2.8816,2.8578,2.851,2.8431,2.7926,2.694,2.7557,2.7867,2.7799,2.8518,2.9238,2.9896,2.9819,2.9844,2.9934,2.9934,2.9856,2.9792,3.0279,3.0279,2.9998,3.1696,3.2046,3.1489,3.3699,3.4274,3.3865,3.4394,3.4109,3.3367,3.3367,3.2861,3.2074,3.1836,3.1347,3.0849,3.0609,3.0457,3.0228,2.9856,2.9209,2.8303,0.0,0.0,0.0,0.0,0.0,0.0,0.0,0.0,0.0,0.0,0.0,0.0,0.0,0.0,1.8743,1.8272,0.0,1.734,1.6878,1.6588,1.6211,1.5737,1.5363,1.5083,1.5083,1.4592,1.4298,1.4298,1.3823,1.3534,1.3715,1.3136,1.3028,1.3596,1.493,1.5886,1.6553,1.7792,1.855,1.8658,1.8288,1.8102,1.8102,1.8719,1.9247,1.9968,2.123,2.2227,2.294,2.3309,2.357,2.3754,2.3667,2.409,2.4584,2.3734,2.3493,2.3503,2.358,2.3667,2.3667,0.0,0.0,0.0,0.0,0.0,0.0,0.0,3.1097,3.057,2.9939,2.944,2.9131,2.9052,2.8736,2.851,2.8351,2.8645,2.8395,2.7418,2.8414,2.8966,2.8821,2.89,2.9549,3.0698,3.005,2.9819,3.0152,3.0152,3.0075,2.9934,3.0696,3.0696,3.0228,3.1901,3.1974,3.1071,3.3325,3.3699,3.2791,3.3422,3.3227,3.2618,3.3087,3.2648,3.1809,3.1185,3.0836,3.0698,3.0444,3.0292,3.0011,2.9689,2.8554,2.7232,2.6472,2.5158,0.0,0.0,0.0,0.0,0.0,0.0,0.0,0.0,2.0464,1.9928,1.9196,1.8743,1.8288,1.7822,1.752,1.7145,1.6683,1.6407,1.6123,1.5635,1.5267,1.5083,1.5083,1.4592,1.4298,1.4298,1.3913,1.4004,1.4663,1.4178,1.4172,1.4937,1.6075,1.6741,1.6936,1.8164,1.8827,1.8827,1.8743,1.8743,1.8751,2.0085,2.0881,2.1311,2.2677,2.3493,2.3841,2.3927,2.3927,2.3841,2.3927,2.4509,2.5253,2.4262,2.3841,2.3677,2.3754,2.3667,2.3503,0.0,0.0,0.0,0.0,0.0,0.0,0.0,0.0,0.0,3.0331,2.9742,2.9263,2.8882,2.8803,2.8578,2.8042,2.8498,2.8542,2.8016,2.9369,3.0075,3.0088,3.0633,3.096,3.0986,3.0685,3.0457,3.0368,3.0368,3.0368,3.0368,3.0432,3.0432,3.0444,3.2146,3.2777,3.2749,3.4558,3.5213,3.5082,3.4476,3.3768,3.3087,3.2434,3.1809,3.1123,3.1061,3.0836,3.0698,3.0444,3.0292,2.9921,2.8949,2.8542,2.7959,2.587,2.4957,2.4372,2.2862,2.2087,2.1731,2.1731,2.1365,2.0997,0.0,2.0011,1.9463,1.8751,1.8381,1.8087,1.7721,1.752,1.7145,1.6683,1.6581,1.64,1.5825,1.5363,1.5083,1.5083,1.4592,1.4298,1.4298,1.4478,1.4567,1.4657,1.474,1.5305,1.6358,1.6648,1.7318,1.8288,1.8651,1.8827,1.8827,1.9455,1.9712,1.9712,2.0503,2.1391,2.2217,2.2403,2.3115,2.4206,2.4368,2.4282,2.4196,2.4368,2.454,2.4615,2.4454,2.4282,2.412,2.3841,2.3667,2.3503,0.0,0.0,0.0,0.0,0.0,0.0,0.0,0.0,0.0,0.0,3.0278,2.9712,2.9677,2.9028,2.8657,2.8724,2.9328,2.9471,2.9057,3.0393,3.0947,3.033,3.1035,3.1447,3.1373,3.1136,3.1185,3.1368,3.1294,3.1355,3.1696,3.2263,3.2263,3.1901,3.3644,3.3988,3.3339,3.4957,3.4971,3.4002,3.4138,3.3437,3.2214,3.1923,3.1495,3.0986,3.0836,3.0685,0.0,3.0305,3.0075,2.9856,2.9378,2.8462,2.7302,2.6213,2.5062,2.381,2.2696,2.2176,2.183,2.1365,2.1177,2.0817,2.0102,1.9737,1.9371,1.8666,1.828,1.7994,1.7721,1.7347,1.7059,1.6878,1.6595,1.6211,1.5825,1.5363,1.5178,1.5458,1.5159,1.4962,1.4962,1.5051,1.552,1.6365,1.6365,1.6741,1.7613,1.78,1.8001,1.8481,1.9279,1.9629,1.9629,2.0529,2.0979,2.097,2.1676,2.2296,2.2833,2.3377,2.4003,2.4615,2.47,2.4946,2.5348,2.5443,2.6102,2.6917,2.6257,2.634,2.6494,2.469,2.3851,2.3754,0.0,0.0,0.0,0.0,0.0,0.0,0.0,0.0,0.0,0.0,3.1421,3.0646,3.0457,2.9484,2.9028,2.9561,3.0165,3.0393,3.0165,3.1259,3.1643,3.0859,3.136,3.1683,3.1683,3.1716,3.1909,3.2232,3.229,3.255,3.289,3.3602,3.3602,3.3171,3.4691,3.4787,3.3988,3.5219,3.5008,3.3768,3.4206,3.3451,3.2155,3.195,3.1582,3.1061,3.0849,3.0609,3.0368,3.0228,3.0011,2.9702,2.9209,2.8051,2.6648,2.5986,2.4573,2.3154,2.253,2.2185,2.1909,2.1177,2.0907,2.0637,1.982,1.9463,1.9188,1.8651,1.8373,1.7994,1.7815,1.7441,1.7066,1.6979,1.6697,1.6312,1.6021,1.5642,1.5458,1.5737,1.5635,1.5629,1.5812,1.6001,1.6466,1.7591,1.7699,1.7994,1.8566,1.8566,1.8566,1.8566,1.9455,1.9985,2.0339,2.1329,2.1952,2.2217,2.3018,2.3454,2.3714,2.4348,2.4786,2.4946,2.4946,2.5274,2.5841,2.5935,2.667,2.773,2.6823,2.7069,2.7718,2.5589,2.4829,2.4808,0.0,0.0,0.0,0.0,0.0,0.0,0.0,0.0,0.0,0.0,0.0,0.0,0.0,3.0152,2.9858,3.0241,3.0846,3.1158,3.1158,3.179,3.2182,3.2169,3.1963,3.189,3.189,3.2359,3.2704,3.2704,3.3353,3.3671,3.3671,3.3671,3.3671,3.3739,3.4528,3.489,3.4876,3.5703,3.5973,3.5846,3.5154,3.4409,3.3659,3.2974,3.2055,3.1272,3.1061,3.0748,3.0368,3.0368,3.0152,2.9468,2.773,2.6987,2.64,2.4413,2.3406,2.2715,2.2274,2.2097,2.1909,2.1177,2.0645,2.0192,1.9729,1.9188,1.8827,1.8827,1.8458,1.8087,1.8087,1.7613,1.7239,1.7073,1.6979,1.6878,1.6588,1.6109,1.5737,1.5832,1.5825,1.6109,1.6857,1.7318,1.7692,1.7692,1.835,1.8735,1.8827,1.8827,1.8827,1.8827,1.8827,1.9271,2.0257,2.1409,2.2473,2.3347,2.4327,2.4946,2.5115,2.52,2.52,2.52,2.52,2.52,2.52,2.52,2.5285,2.5285,2.5031,2.5589,2.6565,2.6378,2.6755,2.7151,0.0,0.0,0.0,0.0,0.0,0.0,0.0,0.0,0.0,0.0,0.0,0.0,0.0,0.0,0.0,0.0,3.1649,3.1809,3.2187,3.2228,3.2372,3.2832,3.2832,3.296,3.3506,3.3561,3.3822,3.4312,3.4447,3.4728,3.5204,3.5204,3.5204,3.5204,3.5494,3.5688,3.58,3.6022,3.5943,3.5608,3.5335,3.4714,3.3837,3.3073,3.2533,3.1955,0.0,3.0823,3.0368,3.0216,2.9496,2.8597,2.7936,2.6696,2.521,2.3734,2.3057,2.2715,2.2353,2.2185,2.1909,2.1177,2.0907,2.0546,1.982,1.9463,1.9188,1.8827,1.8558,1.8381,1.8381,1.7908,1.7535,1.7441,1.7167,1.6979,1.6878,1.6393,1.6473,1.7412,1.7138,1.7318,1.8619,1.8064,1.7878,1.8357,1.8635,1.8827,1.8827,1.9096,1.9538,1.9977,2.0791,2.1676,2.2639,2.3531,2.4145,2.4573,2.5263,2.5695,2.5863,2.5695,2.5779,2.5863,2.6318,2.6883,2.7614,2.8016,2.8493,2.9057,2.8664,2.89,2.9459,2.9303,2.9666,2.9948,0.0,0.0,0.0,0.0,0.0,0.0,0.0,0.0,0.0,0.0,0.0,0.0,0.0,0.0,0.0,0.0,0.0,3.2767,3.2917,3.2717,3.2704,3.303,3.3297,3.3561,3.3905,3.4298,3.4714,3.519,3.54,3.5688,3.6163,3.6226,3.6226,3.6163,3.6304,3.6352,3.6399,3.6476,3.6274,3.5849,3.5849,3.532,3.4432,3.3616,3.2932,0.0,3.1616,3.0973,3.0457,3.0305,2.9574,2.8676,2.7855,2.613,2.4221,2.3724,2.3222,2.2715,2.2441,2.2264,2.1909,2.1177,2.0997,2.0718,1.982,1.9637,1.9463,1.892,1.8658,1.8481,1.8481,1.8102,1.7721,1.7721,1.7347,1.7066,1.7066,1.677,1.6951,1.8164,1.7978,1.8156,1.9446,1.8988,1.8719,1.9096,1.9104,1.9196,1.9379,1.9646,2.0093,2.0439,2.1507,2.2482,2.3444,2.4231,2.4925,2.5527,2.6102,2.6351,2.6456,2.6351,2.6434,2.6599,2.6987,2.7695,2.8585,2.8978,2.9614,3.0241,2.9935,3.0177,3.0735,3.0583,3.0885,3.111,0.0,0.0,0.0,0.0,0.0,0.0,0.0,0.0,0.0,0.0,0.0,0.0,0.0,0.0,0.0,0.0,0.0,0.0,3.3424,3.3382,3.3157,3.2761,3.3451,3.3713,3.3353,3.4714,3.5464,3.5464,3.6148,3.6554,3.6554,3.6662,3.6662,3.6554,3.6877,3.6877,3.6723,3.6938,3.6877,3.6723,3.6723,3.618,3.5335,3.4365,3.3492,3.2632,3.1629,3.1061,3.0698,3.0444,3.0216,2.9586,2.7383,2.5242,2.3667,2.4251,2.3647,2.2715,2.2441,2.2264,2.1919,2.1177,2.1087,2.0817,1.9911,1.9637,1.9463,1.8912,1.8658,1.8481,1.8481,1.8102,1.7721,1.7721,1.752,1.7326,1.7326,1.716,1.7347,1.8087,1.835,1.8703,1.953,2.0011,2.0201,1.9729,1.9637,1.9828,2.0292,2.0357,2.0348,2.0439,2.1025,2.1887,2.2843,2.373,2.4882,2.6268,2.694,2.7115,2.6974,2.7115,2.7267,2.7267,2.7267,2.7649,2.8176,2.8243,2.8627,2.9073,2.8929,2.9512,3.0393,3.0443,3.0696,3.0973,0.0,0.0,0.0,0.0,0.0,0.0,0.0,0.0,0.0,0.0,0.0,0.0,0.0,0.0,0.0,0.0,0.0,0.0,3.4427,3.4172,3.396,3.3962,3.4461,3.4927,3.5285,3.6148,3.6538,3.6383,3.6739,3.6877,3.6877,3.6938,3.6938,3.6877,3.6954,3.6938,3.6938,3.6999,3.6938,3.6938,3.6785,3.6585,3.6196,3.478,3.3891,3.3269,3.1996,3.1299,3.0836,3.052,2.9484,2.8039,2.5953,2.4808,2.4166,2.3647,2.3135,2.2715,2.2441,2.2264,2.2008,2.1642,2.1553,2.1374,2.0817,2.0365,2.0011,1.9463,1.9012,1.8743,1.8743,1.8373,1.7994,1.7994,1.7613,1.7326,1.7326,1.7239,1.7792,1.9255,1.918,1.9546,2.0808,2.0907,2.0817,2.0907,2.0464,2.0192,2.0292,2.1049,2.1652,2.1834,2.2641,2.3545,2.4427,2.5352,2.6472,2.7684,2.7696,2.7788,2.7857,2.7788,2.7777,2.7926,2.8235,2.8621,2.916,3.0203,3.0732,3.0957,3.1476,3.1856,3.2101,3.1955,3.1909,3.1877,0.0,0.0,0.0,0.0,0.0,0.0,0.0,0.0,0.0,0.0,0.0,0.0,0.0,0.0,0.0,0.0,0.0,0.0,0.0,3.4996,3.4821,3.4942,3.5236,3.5544,3.5943,3.6616,3.6938,3.68,3.6938,3.7015,3.7015,3.7044,3.706,3.7015,3.7121,3.7181,3.7105,3.7181,3.7181,0.0,0.0,3.6785,3.6523,3.4832,3.4027,3.3602,3.2055,3.1136,3.0672,3.0444,2.8991,2.7139,2.6789,2.5389,2.3897,2.4231,2.356,2.2803,2.2618,2.2353,2.2097,2.1919,2.183,2.1553,2.1087,2.0826,2.0464,1.9729,1.9371,1.9096,1.8827,1.8458,1.8087,1.8087,1.7613,1.7326,1.7326,1.7692,1.8427,1.9712,1.9985,2.0538,2.1713,2.1713,2.1713,2.1811,2.1186,2.0845,2.0944,2.1392,2.1854,2.2345,2.3175,2.4173,2.536,2.6101,2.6988,2.7992,2.8083,2.8282,2.8578,2.851,2.8645,2.9094,2.9328,2.9935,3.0745,3.1563,3.2015,3.2318,3.2761,3.2988,3.2988,3.2846,3.2775,3.2803,0.0,0.0,0.0,0.0,0.0,0.0,0.0,0.0,0.0,0.0,0.0,0.0,0.0,0.0,0.0,0.0,0.0,0.0,0.0,0.0,3.5715,3.5805,3.5842,3.5937,3.6113,3.6708,3.706,3.6999,3.706,3.7076,3.706,3.721,3.715,3.7076,3.7361,3.7405,3.7254,3.7405,3.7405,3.7194,3.7044,3.6877,3.6523,0.0,3.4095,3.3739,3.1969,3.0898,3.0444,3.0444,2.8821,2.7139,2.8474,2.6461,2.381,2.5242,2.4317,2.2803,2.2803,2.2539,2.2185,2.2185,2.2008,2.1642,2.1266,2.1087,2.0808,2.0002,1.9737,1.9554,1.9096,1.855,1.8272,1.8272,1.7707,1.7419,1.7512,1.8241,1.9155,2.0068,2.0881,2.1606,2.2353,2.2441,2.2501,2.2366,2.1817,2.1581,2.1759,2.1627,2.1858,2.2544,2.3244,2.4381,2.5884,2.634,2.694,2.7794,2.8179,2.8602,2.9131,2.9131,2.9574,3.0393,3.0393,3.1119,3.2434,3.2492,3.2875,3.3325,3.3479,3.3479,3.3479,3.3479,3.3548,3.3618,0.0,0.0,0.0,0.0,0.0,0.0,0.0,0.0,0.0,0.0,3.8202,3.8202,0.0,0.0,0.0,0.0,0.0,0.0,0.0,0.0,0.0,3.6941,3.6745,3.6843,3.7198,3.7326,3.7345,3.7134,3.7345,3.7421,3.7421,3.7421,3.7421,3.7421,3.748,3.748,3.7464,3.748,3.748,3.7405,3.7121,3.6999,3.68,3.5593,0.0,0.0,3.1969,3.1048,3.0609,3.0444,2.9729,2.8767,2.8211,2.6871,2.5452,2.4904,2.3897,2.2969,2.2891,2.2715,2.2627,2.2441,2.2353,2.2176,2.1998,2.1633,2.1266,2.0817,2.0464,2.011,2.0019,1.9471,1.9004,1.9004,1.8272,1.79,1.8727,1.8804,1.9422,2.115,2.1516,2.1882,2.2618,2.2882,2.2737,2.2313,2.2112,2.1997,2.1835,2.2063,2.2705,2.3817,2.4384,2.5189,2.6091,2.6469,2.7262,2.8459,2.8319,2.8679,2.9341,2.9341,2.9858,3.082,3.082,3.1389,3.2393,3.3031,3.3394,3.3547,3.4288,3.4452,3.4196,3.4196,3.4031,3.3796,0.0,0.0,0.0,0.0,0.0,0.0,0.0,3.8202,3.8202,3.8202,3.8202,3.8202,3.8202,3.8202,3.8202,0.0,0.0,0.0,0.0,0.0,0.0,0.0,0.0,0.0,3.856,3.8227,3.7941,3.7865,0.0,3.748,3.748,3.748,3.748,3.748,3.748,3.748,3.748,3.748,3.748,3.748,3.7225,3.7044,3.6877,0.0,0.0,0.0,3.179,3.1149,3.0698,3.0609,3.0216,2.9664,2.8858,2.7441,2.6036,2.5462,2.4648,2.3734,2.3135,2.2882,2.2803,2.2618,2.253,2.2353,2.2264,2.1998,2.1633,2.1266,2.0907,2.0555,2.0382,1.9737,1.9188,1.9188,1.8458,1.7994,1.8365,1.9171,2.0068,2.0872,2.1784,2.2599,2.2882,2.2853,2.2648,2.2368,2.2016,2.2001,2.2289,2.3139,2.3857,2.4432,2.5217,2.5844,2.6242,2.6549,2.7172,2.8192,2.8422,2.8862,2.9479,2.9757,3.0406,3.1206,3.1636,3.229,3.3129,3.3905,3.4259,3.4259,3.4706,3.4802,3.4668,3.4668,3.4587,3.4572,0.0,0.0,0.0,0.0,0.0,0.0,0.0,3.8202,3.8202,3.8202,3.8202,3.8202,3.8202,3.8202,3.8202,0.0,0.0,0.0,0.0,0.0,0.0,0.0,0.0,0.0,3.974,0.0,0.0,3.8728,3.8033,0.0,0.0,0.0,0.0,0.0,3.748,3.748,3.748,3.748,3.748,0.0,0.0,3.6968,3.66,0.0,0.0,0.0,0.0,3.1224,3.0773,3.0698,3.047,3.0152,2.9664,2.8176,2.6521,2.6449,2.5557,2.4402,2.3647,2.3144,2.2882,2.2882,2.2706,2.253,2.253,2.2353,2.2097,2.1633,2.1356,2.1096,2.0654,2.0011,1.9554,1.9554,1.8912,1.845,1.8627,1.9812,2.0799,2.0953,2.2315,2.3222,2.3222,2.285,2.264,2.2552,2.2201,2.2226,2.2661,2.3812,2.4552,2.485,2.5791,2.6358,2.6496,2.6714,2.713,2.7818,2.8408,2.8984,2.9622,3.04,3.122,3.1942,3.2818,3.3589,3.4341,3.4905,3.5133,3.5133,3.5133,3.5133,3.5133,3.5133,3.5264,3.5409,0.0,0.0,0.0,0.0,0.0,0.0,0.0,3.8202,3.8202,3.8202,3.8202,3.8202,3.8202,3.8202,3.8202,0.0,0.0,0.0,0.0,0.0,0.0,0.0,0.0,0.0,0.0,0.0,0.0,3.9408,3.8744,0.0,0.0,0.0,0.0,0.0,0.0,3.748,3.748,3.748,0.0,0.0,0.0,0.0,0.0,0.0,0.0,0.0,0.0,3.1299,3.0911,3.0773,3.0698,3.0546,3.0152,2.9081,2.7844,2.7452,2.613,2.4713,2.4402,2.3734,2.3057,2.3057,2.3047,2.2969,2.2794,2.2715,2.2627,2.2097,2.2008,2.1919,2.1642,2.1186,2.0808,2.0808,1.982,1.9729,2.1427,2.123,2.1587,2.3299,2.3657,2.3754,2.3754,2.3363,2.2942,2.2531,2.3176,2.3298,2.2713,2.3254,2.4181,2.5487,2.6057,2.6577,2.6943,2.6943,2.7212,2.7818,2.8408,2.9057,2.9831,3.1322,3.2434,3.3367,3.4327,3.5154,3.5767,3.5846,3.591,3.591,3.591,3.591,3.591,3.591,3.591,3.591,0.0,0.0,0.0,0.0,0.0,0.0,3.8202,3.8202,3.8202,3.8202,3.8202,3.8202,3.8202,3.8202,3.8202,3.8202,0.0,0.0,0.0,0.0,0.0,0.0,0.0,0.0,0.0,0.0,4.0166,4.0166,3.9455,0.0,0.0,0.0,0.0,0.0,0.0,3.748,3.748,3.748,0.0,0.0,0.0,0.0,0.0,0.0,0.0,0.0,0.0,0.0,3.0986,3.0911,3.0685,3.052,3.0292,2.9741,2.8949,2.8108,2.7197,2.613,2.4967,2.4307,2.3897,2.3897,2.3474,2.3222,2.3734,2.3309,2.2715,2.2539,2.2353,2.2176,2.2008,2.1544,2.1177,2.0997,2.0374,2.0275,2.1329,2.1596,2.2041,2.3018,2.356,2.374,2.3478,2.3056,2.2727,2.2611,2.3015,2.3588,2.4397,2.5052,2.5709,2.6427,2.6782,2.6998,2.7214,2.7268,2.7439,2.7795,2.8395,2.9123,2.9829,3.103,3.2176,3.3185,3.4245,3.5008,3.5529,3.6085,3.6226,3.6148,3.6148,3.6226,3.6289,3.6148,3.6226,3.6289,0.0,0.0,0.0,0.0,0.0,3.8202,3.8202,3.8202,3.8202,3.8202,3.8202,3.8202,3.8202,3.8202,3.8202,3.8202,3.8352,0.0,0.0,0.0,0.0,0.0,0.0,0.0,0.0,0.0,4.0893,4.0893,4.0182,3.9835,0.0,0.0,3.8807,3.8792,0.0,0.0,0.0,0.0,0.0,0.0,0.0,0.0,0.0,0.0,0.0,0.0,0.0,0.0,0.0,0.0,0.0,3.0596,3.0444,3.0228,2.9767,2.8755,2.8108,2.729,2.5714,2.5231,2.4988,2.4734,2.4145,2.38,2.4402,2.3734,2.2882,2.2794,2.2618,2.2441,2.2274,2.1909,2.1624,2.1445,2.1177,2.1168,2.1765,2.2306,2.2843,2.3347,2.3786,2.387,2.3637,2.2992,2.2635,2.2585,2.3084,2.4024,2.5334,2.6414,2.6998,2.7079,2.7214,2.7335,2.7469,2.7523,2.7656,2.7868,2.8585,2.9306,3.0115,3.124,3.2375,3.3394,3.4581,3.519,3.5514,3.6274,3.6554,3.6476,3.6476,3.6538,3.6616,3.6476,3.6538,3.6677,0.0,0.0,0.0,0.0,0.0,0.0,3.8202,3.8202,3.8202,3.8202,3.8202,3.8202,3.8202,3.8202,3.8202,3.8202,3.8723,0.0,0.0,0.0,0.0,0.0,0.0,0.0,0.0,0.0,4.1573,4.1573,4.0909,4.0593,4.0577,3.9835,3.9487,3.9487,0.0,0.0,0.0,0.0,0.0,0.0,0.0,0.0,0.0,0.0,0.0,0.0,0.0,0.0,0.0,0.0,0.0,0.0,0.0,3.0368,3.0279,2.9574,2.8755,2.7844,2.6801,2.6472,2.6224,2.5294,2.4957,2.4787,2.4787,2.3877,2.3057,2.2794,2.2803,2.2706,2.2441,2.2344,2.2353,2.2353,2.2413,2.2668,2.3657,2.381,2.4145,2.502,2.4807,2.4458,2.4448,2.3679,2.2924,2.2434,2.3852,2.4767,2.4957,2.6607,2.7403,2.7268,2.7268,2.7469,2.7776,2.7776,2.7934,2.8092,2.8972,2.9821,3.0719,3.2383,3.3547,3.4423,3.5672,3.6211,3.6211,3.6739,3.7015,3.7015,3.7015,3.7015,3.7015,3.7015,3.7015,3.7015,0.0,0.0,0.0,0.0,0.0,0.0,0.0,3.8202,3.8202,3.8202,3.8202,3.8202,3.8202,3.8202,3.8202,3.8202,3.8352,0.0,0.0,0.0,0.0,0.0,0.0,0.0,0.0,0.0,4.139,4.1055,4.0852,4.0525,4.0139,3.9395,3.9087,3.9072,3.858,3.8365,0.0,0.0,0.0,0.0,0.0,0.0,3.6083,0.0,0.0,0.0,0.0,0.0,0.0,0.0,0.0,0.0,0.0,0.0,0.0,2.9767,2.9353,2.8755,2.7855,2.7046,2.64,2.6141,2.5062,2.4241,2.4734,2.4069,2.3319,2.3057,2.2969,2.2969,2.2706,2.2706,2.2618,2.2441,2.2432,2.2862,2.4327,2.4079,2.4337,2.5695,2.4755,2.4121,2.4421,2.3556,2.3304,2.3925,2.4909,2.5685,2.6321,2.7564,2.8052,2.7656,2.7802,2.7881,2.8,2.8262,2.8444,2.856,2.9059,2.9951,3.1177,3.1971,3.3157,3.4595,3.5219,3.5816,3.6414,3.686,3.7254,3.7524,3.7669,3.786,3.7934,3.7786,3.786,3.7934,0.0,0.0,0.0,0.0,0.0,0.0,0.0,3.8127,3.8202,3.8202,3.8202,3.8202,3.8202,3.8202,3.8202,3.8202,3.8202,0.0,0.0,0.0,0.0,0.0,0.0,0.0,0.0,4.139,4.1122,4.0799,4.0562,4.027,3.9889,3.9495,3.9313,3.9282,3.8773,3.8576,0.0,0.0,0.0,0.0,0.0,0.0,3.571,0.0,0.0,0.0,0.0,0.0,0.0,0.0,0.0,0.0,0.0,0.0,0.0,0.0,2.9767,2.9263,2.8028,2.7452,2.7058,2.64,2.5326,2.4584,2.4999,2.4337,2.358,2.3319,2.3232,2.3144,2.2969,2.2882,2.2969,2.3125,2.3387,2.3897,2.5253,2.5263,2.5303,2.5943,2.5134,2.4458,2.4304,2.3802,2.3801,2.4719,2.5487,2.6252,2.6947,2.8026,2.8495,2.8157,2.8379,2.8522,2.8573,2.8766,2.8944,2.9135,2.9449,3.0298,3.1641,3.2112,3.3115,3.4558,3.5169,3.5752,0.0,3.6966,3.746,3.7786,3.8075,3.8262,3.8391,3.8262,3.8262,3.8408,0.0,0.0,0.0,0.0,0.0,0.0,0.0,3.7915,3.8127,3.8127,3.8127,3.8127,3.8127,3.8127,3.8202,3.8202,0.0,0.0,0.0,0.0,0.0,0.0,0.0,0.0,4.1456,4.0987,4.073,4.0662,4.013,3.9819,3.9748,3.9748,3.9748,3.9748,3.9748,3.9748,0.0,0.0,0.0,0.0,0.0,0.0,0.0,0.0,0.0,0.0,0.0,0.0,0.0,0.0,0.0,0.0,0.0,0.0,0.0,0.0,0.0,0.0,0.0,2.773,2.7971,2.6235,2.5568,2.5411,2.5411,2.4584,0.0,2.359,2.3503,2.3406,2.3232,2.3222,2.356,2.4413,2.4935,2.5611,2.6445,2.694,2.691,2.5876,2.5739,2.5325,2.4349,2.4284,2.4539,2.5087,2.5836,2.6458,2.6989,2.8195,2.8853,2.8853,2.9085,2.9275,2.931,2.9373,2.9449,2.9665,2.9988,3.0831,3.2112,3.2591,3.3419,3.4481,3.5299,3.5752,3.5976,3.6982,3.7578,3.7943,3.8319,3.8448,3.8448,3.8448,3.8448,3.8504,0.0,0.0,0.0,0.0,0.0,0.0,0.0,0.0,0.0,0.0,3.7443,3.7366,3.7687,3.7763,3.7839,0.0,0.0,0.0,0.0,0.0,0.0,0.0,0.0,0.0,4.0324,4.0185,3.992,3.9523,3.9379,3.9075,3.8634,3.8634,3.8634,3.8634,3.8634,3.8412,0.0,0.0,0.0,0.0,0.0,0.0,0.0,0.0,0.0,0.0,3.3779,3.3078,0.0,0.0,0.0,0.0,0.0,0.0,0.0,0.0,2.9599,2.8712,2.7476,0.0,2.7151,2.6069,2.5263,2.469,0.0,2.4282,2.4024,2.3754,2.3754,2.3667,2.3667,2.4145,2.4638,2.4744,2.54,2.6141,2.6928,2.7452,2.7382,2.6335,2.5934,2.5539,2.5191,2.5254,2.5429,2.5873,2.7082,2.7815,2.7947,2.9135,2.9789,2.9789,3.0205,3.0144,2.954,2.9789,2.9974,3.0144,3.0462,3.1372,3.2752,3.2893,3.3583,3.4802,3.4986,3.5365,3.58,3.6768,3.7445,3.8001,3.8766,3.911,3.911,3.911,3.911,3.911,0.0,0.0,0.0,0.0,0.0,0.0,0.0,0.0,0.0,0.0,0.0,0.0,0.0,0.0,0.0,0.0,0.0,0.0,0.0,0.0,0.0,0.0,0.0,4.02,3.9889,3.9636,3.9364,3.9104,3.8797,3.8501,3.8202,3.8202,3.8202,3.8202,3.7991,3.761,0.0,0.0,0.0,0.0,3.6058,0.0,0.0,0.0,0.0,0.0,3.374,3.3079,0.0,3.1441,3.0986,3.0986,0.0,0.0,0.0,0.0,2.9341,2.8621,2.7244,2.6659,2.6329,2.5421,2.4861,2.4454,2.4368,2.4378,2.4282,2.4024,2.4024,2.3937,2.3841,2.4478,2.5221,2.5568,2.6213,2.7046,2.7822,2.8044,2.7789,2.6853,2.6335,2.5902,2.5588,2.5551,2.5988,2.6812,2.7617,2.8274,2.8881,2.9665,3.0111,3.0111,3.0536,3.0582,3.0158,3.0416,3.0597,3.0702,3.0821,3.1691,3.3004,3.3081,3.3775,3.4935,3.5082,3.5394,3.5894,3.66,3.7385,3.8173,3.8805,3.9255,3.9468,3.9468,3.9468,3.9484,0.0,0.0,0.0,0.0,0.0,0.0,0.0,0.0,0.0,0.0,0.0,0.0,0.0,0.0,0.0,0.0,0.0,0.0,0.0,0.0,0.0,0.0,3.9692,3.9763,3.9606,3.922,3.8943,3.8943,3.8427,3.8202,3.8202,3.8202,3.8202,3.8052,3.7687,3.7084,0.0,0.0,0.0,0.0,3.571,0.0,0.0,0.0,0.0,0.0,0.0,0.0,0.0,3.1546,3.1052,3.0986,3.0986,0.0,0.0,0.0,0.0,0.0,2.708,2.6257,2.5673,2.4786,2.454,2.454,2.454,2.454,2.4454,2.4292,2.4292,2.4196,2.409,2.4819,2.5714,2.6565,2.7302,2.7971,2.8712,2.8497,2.8047,2.7346,2.6736,2.6273,2.5853,2.5873,2.6471,2.7736,2.7999,2.8532,2.9665,3.0036,3.0233,3.0233,3.0642,3.0881,3.0881,3.1014,3.1132,3.1132,3.1235,3.1914,3.3143,3.3372,3.407,3.5067,3.5424,3.5748,3.6037,3.6554,3.7326,3.827,3.8623,3.9185,3.9677,3.9729,3.9729,3.9729,0.0,0.0,0.0,0.0,0.0,0.0,0.0,0.0,0.0,0.0,0.0,0.0,0.0,0.0,0.0,0.0,0.0,0.0,0.0,0.0,0.0,3.7976,3.8797,3.9017,3.8486,3.8352,3.8352,3.8352,3.8277,3.8202,3.8202,3.8202,3.8052,3.7687,3.7303,3.6836,3.6405,0.0,0.0,0.0,3.571,0.0,0.0,0.0,0.0,0.0,0.0,0.0,0.0,3.2005,3.1392,3.0986,3.0986,0.0,0.0,0.0,0.0,0.0,2.7718,2.6917,2.5935,2.5031,2.4871,2.4786,2.454,2.454,2.4454,2.4454,2.4454,2.47,2.5337,2.6235,2.7058,2.773,2.8395,2.8882,2.9052,2.8586,2.8123,2.7507,2.6968,2.6689,2.6714,2.7136,2.7736,2.8597,2.9324,2.9837,3.0205,3.0507,3.0762,3.0955,3.1117,3.1219,3.1219,3.1132,3.1132,3.1292,3.1812,3.2661,3.3728,3.4254,3.4979,3.5846,3.591,3.5973,3.6037,3.6616,3.7251,3.7937,3.8551,3.9185,3.9729,3.9849,3.9849,3.9901,0.0,0.0,0.0,0.0,0.0,0.0,0.0,0.0,0.0,0.0,0.0,0.0,0.0,0.0,0.0,0.0,0.0,0.0,0.0,0.0,3.738,3.7625,3.7825,3.8052,3.8202,3.8202,3.8202,3.8202,3.8202,3.8202,3.8202,3.7991,3.7534,3.6929,3.6772,3.6457,3.6058,3.6058,3.5884,0.0,0.0,0.0,0.0,0.0,0.0,0.0,0.0,0.0,0.0,0.0,3.1457,3.0986,3.0986,0.0,0.0,0.0,0.0,0.0,2.7649,2.6764,2.5884,2.538,2.5695,2.6091,2.5924,2.5924,2.5757,2.5263,2.5179,2.5348,2.5746,2.6483,2.7476,2.8609,2.9197,2.9456,2.9275,2.8634,2.8089,2.7681,2.6927,2.6589,2.704,2.7324,2.8051,2.9233,2.9808,3.0251,3.0702,3.0895,3.1014,3.1087,3.1234,3.1278,3.1278,3.1424,3.1424,3.1424,3.2213,3.3006,3.3849,3.4545,3.5273,3.5973,3.5973,3.6037,3.6148,3.6445,3.7191,3.8222,3.8535,3.9259,4.0121,4.0188,4.0238,4.0238,0.0,0.0,0.0,0.0,0.0,0.0,0.0,0.0,0.0,0.0,0.0,0.0,0.0,0.0,0.0,0.0,0.0,0.0,0.0,0.0,3.7007,3.7317,3.7148,3.7366,3.8052,3.7976,3.7976,3.8052,3.8052,3.8052,3.8052,3.7687,3.7084,3.6405,3.6312,3.5978,3.5467,3.5467,3.5386,0.0,0.0,0.0,0.0,0.0,0.0,0.0,0.0,0.0,0.0,0.0,0.0,0.0,0.0,0.0,0.0,2.9947,2.9057,2.8187,2.7418,2.6704,2.6063,2.5979,2.6362,2.6753,2.6905,2.6905,2.6823,2.6235,2.6152,2.6235,2.6483,2.7221,2.8199,2.9341,2.9689,2.9702,2.9509,2.8725,2.8024,2.7865,2.6918,2.6589,2.7417,2.7657,2.8363,2.9931,3.0162,3.0539,3.1132,3.1132,3.1132,3.119,3.1292,3.1351,3.1409,3.167,3.1802,3.1837,3.2688,3.3471,3.4137,3.4911,3.5613,3.61,3.61,3.6163,3.6274,3.6274,3.7131,3.8463,3.8518,3.9332,4.0534,4.0534,4.0583,4.0583,0.0,0.0,0.0,0.0,0.0,0.0,0.0,0.0,0.0,0.0,0.0,0.0,0.0,0.0,0.0,0.0,0.0,0.0,0.0,0.0,3.6484,3.6484,3.685,3.7226,3.761,3.7303,3.7303,3.761,3.761,3.761,3.761,3.7226,3.6836,3.6405,3.5965,3.5386,3.4799,3.4799,3.4384,3.3882,3.3882,0.0,0.0,0.0,0.0,0.0,0.0,0.0,0.0,0.0,0.0,0.0,0.0,0.0,3.0823,2.9947,2.9057,2.8187,2.7418,2.7033,2.6809,2.6809,2.6229,2.5801,2.6196,2.6423,2.6648,2.6905,2.7221,2.7637,2.8462,2.9275,2.9908,2.9998,2.9934,2.9792,2.9792,2.8812,2.8097,2.8097,2.713,2.6973,2.8298,2.8583,2.9233,3.0642,3.0895,3.1132,3.1292,3.1292,3.1351,3.1482,3.1467,3.1597,3.1727,3.1799,3.2101,3.2719,3.3546,3.4319,3.5095,3.5829,3.6228,3.6492,3.6492,3.6492,3.6492,3.6492,3.7222,3.8351,3.8446,3.9385,4.0697,4.0697,4.0745,4.0823,0.0,0.0,0.0,0.0,0.0,0.0,0.0,0.0,0.0,0.0,0.0,0.0,0.0,0.0,0.0,0.0,0.0,0.0,0.0,3.5884,3.6058,3.6405,3.6284,3.6443,3.685,3.6915,3.707,3.7226,3.7226,3.7226,3.7226,3.685,3.6204,3.5304,3.5141,3.4716,3.405,3.405,3.3966,3.3628,3.3348,3.325,0.0,0.0,0.0,0.0,0.0,0.0,0.0,0.0,3.0196,2.9704,2.9704,2.9947,3.0101,2.9781,2.8755,2.7568,2.7255,2.7103,2.6951,2.6396,2.6467,2.6857,2.7799,2.8028,2.8187,2.8279,2.8438,2.8597,2.8937,2.9586,3.0152,3.0292,3.0011,2.9869,2.9934,2.9328,2.8634,2.8306,2.7728,2.7767,2.8725,2.8967,2.9685,3.0984,3.1249,3.1366,3.1409,3.1409,3.1467,3.1482,3.1597,3.1727,3.1799,3.2349,3.2996,3.3665,3.3968,3.4485,3.5217,3.6029,3.6414,3.6492,3.6492,3.6769,3.7207,3.7207,3.7978,3.9299,3.9783,4.0336,4.084,4.084,4.084,4.0871,0.0,0.0,0.0,0.0,0.0,0.0,0.0,0.0,0.0,0.0,0.0,0.0,0.0,0.0,0.0,0.0,0.0,0.0,3.571,3.571,3.5804,3.6138,3.5884,3.5884,3.6152,3.6443,3.6665,3.6836,3.6915,3.6915,3.6758,3.627,3.5548,3.4716,3.4468,3.405,3.3373,3.3373,3.3116,3.276,3.2488,3.2215,0.0,0.0,0.0,0.0,0.0,0.0,0.0,0.0,2.9467,2.9225,2.8991,2.9303,2.9626,2.9081,2.8279,2.7487,2.7255,2.7185,2.7103,2.6775,2.694,2.758,2.9003,2.9081,2.9003,2.9406,2.9561,2.9651,2.9651,2.9985,3.0305,3.0457,3.0228,3.0011,3.0152,2.9656,2.9096,2.8549,2.8132,2.8206,2.8944,2.9156,2.987,3.1219,3.1467,3.1597,3.1597,3.1655,3.1655,3.1655,3.198,3.2216,3.2258,3.3069,3.3857,3.4589,3.4589,3.5002,3.5723,3.6338,3.6693,3.6693,3.6693,3.7058,3.7648,3.7648,3.8525,3.9885,4.0566,4.0871,4.0888,4.0888,4.0935,4.0935,0.0,0.0,0.0,0.0,0.0,0.0,0.0,0.0,0.0,0.0,0.0,0.0,0.0,0.0,0.0,0.0,0.0,0.0,3.571,3.571,3.571,3.571,3.571,3.571,3.571,3.571,3.5884,3.6405,3.6758,3.6772,3.6391,3.5655,3.5087,3.4634,3.3966,3.33,3.2711,3.2711,3.2013,3.0859,3.0859,3.0925,3.0902,0.0,0.0,0.0,0.0,0.0,0.0,0.0,2.8562,2.8279,2.7418,2.8371,2.9381,2.7661,2.7718,2.8187,2.7418,2.7185,2.7418,2.8187,2.7799,2.7649,2.9303,2.9069,2.8755,3.0114,3.0533,3.0698,3.0698,3.0698,3.0698,3.0698,3.0533,3.0368,3.0368,2.9881,2.933,2.8767,2.8273,2.8219,2.8944,2.9219,2.987,3.1219,3.1597,3.1799,3.1799,3.1955,3.2012,3.2012,3.2649,3.3056,3.32,3.3872,3.468,3.5476,3.5491,3.5952,3.6723,3.6938,3.7015,3.7015,3.7015,3.7314,3.7806,3.7806,3.8635,3.9885,4.0468,4.0793,4.0888,4.0888,4.1,4.1093,0.0,0.0,0.0,0.0,0.0,0.0,0.0,0.0,0.0,0.0,0.0,0.0,0.0,0.0,0.0,0.0,0.0,0.0,3.571,3.571,3.571,3.571,3.571,3.571,3.571,3.5223,3.5467,3.6405,3.571,3.544,3.5575,3.4607,3.3869,3.33,3.3043,3.2612,3.2013,3.2013,3.1572,3.0859,3.0578,3.0204,2.984,0.0,0.0,0.0,0.0,0.0,0.0,0.0,0.0,0.0,2.737,2.758,2.781,2.7336,2.694,2.661,2.6385,2.7174,2.7959,2.7649,2.8279,2.9069,2.9626,2.9069,2.8664,2.9704,3.0432,3.0911,3.0911,3.0773,3.0773,3.0911,3.0596,3.0444,3.0609,3.048,3.028,3.0249,3.0237,3.0324,3.0706,3.0807,3.1078,3.1627,3.1727,3.1841,3.1955,3.2437,3.2695,3.2695,3.345,3.3844,3.3903,3.471,3.5276,3.5656,3.6273,3.6614,3.6723,3.6785,3.6862,3.7015,3.7015,3.7578,3.8635,3.956,4.022,4.0597,4.0776,4.0935,4.1047,4.1047,4.1123,4.118,0.0,0.0,0.0,0.0,0.0,0.0,0.0,0.0,0.0,0.0,0.0,0.0,0.0,0.0,0.0,0.0,0.0,0.0,0.0,3.5467,3.5304,3.5304,3.5304,3.5304,3.5304,3.4634,3.4634,3.5304,3.4634,3.4454,3.4664,3.37,3.3043,3.2711,3.245,3.1925,3.1395,3.1395,3.0937,3.0306,3.0034,2.9669,2.9209,0.0,0.0,0.0,0.0,0.0,0.0,0.0,0.0,0.0,2.7182,2.7264,2.7568,2.7255,2.7336,2.7406,2.7406,2.8119,2.8912,2.8755,2.9238,2.9704,2.9704,2.9549,2.9537,3.0101,3.0659,3.0986,3.0986,3.0911,3.0836,3.0986,3.0836,3.0672,3.0761,3.0849,3.0839,3.0989,3.1121,3.1432,3.1946,3.197,3.2132,3.2641,3.2685,3.2728,3.2901,3.334,3.3628,3.3628,3.4314,3.4741,3.4741,3.5477,3.5937,3.6104,3.6599,3.6862,3.6892,3.6968,3.7105,3.7241,3.7669,3.8311,3.9102,4.0451,4.0982,4.0982,4.1012,4.1059,4.1169,4.1169,4.1198,4.1272,0.0,0.0,0.0,0.0,0.0,0.0,0.0,0.0,0.0,0.0,0.0,0.0,0.0,0.0,0.0,0.0,0.0,0.0,0.0,0.0,3.4538,3.4454,3.4454,3.4454,3.4454,3.3869,3.3543,3.3543,3.3543,3.3628,3.3543,3.2957,3.2624,3.2537,3.1925,3.1395,3.0859,3.0847,3.0306,2.9485,2.9485,2.9209,2.8757,2.8757,0.0,0.0,0.0,0.0,0.0,0.0,0.0,0.0,2.6907,2.7455,2.8179,2.7348,2.8279,2.9549,2.9471,2.9537,2.9858,3.0659,3.0343,2.9781,2.9781,3.0419,3.0986,3.0911,3.0898,3.0986,3.0986,3.0986,3.0986,3.0986,3.0986,3.0986,3.0986,3.0986,3.1135,3.1412,3.1414,3.1859,3.2903,3.283,3.3066,3.3985,3.4045,3.4089,3.4193,3.4463,3.4568,3.4568,3.5214,3.5629,3.5629,3.6245,3.66,3.6723,3.6723,3.6892,3.7254,3.7405,3.748,3.7583,3.8717,3.9206,3.9312,4.0566,4.1111,4.1093,4.118,4.1209,4.1209,4.1209,4.13,4.1471,0.0,0.0,0.0,0.0,0.0,0.0,0.0,0.0,0.0,0.0,0.0,0.0,0.0,0.0,0.0,0.0,0.0,0.0,0.0,0.0,3.3577,3.287,3.2784,3.2784,3.2784,3.2476,3.2339,3.2339,3.2698,3.2884,3.2884,3.2189,3.1925,3.1925,3.1306,3.1038,3.0859,3.0487,3.0034,2.9485,2.9485,2.9209,2.8757,2.8757,2.8757,0.0,0.0,0.0,0.0,0.0,0.0,0.0,2.6856,2.7211,2.7785,2.6579,2.7406,2.8505,2.7891,2.8676,2.9781,2.9935,3.0343,3.0748,3.0748,3.0898,3.0823,3.0101,3.0508,3.0986,3.0986,3.0986,3.0986,3.0986,3.0986,3.0986,3.0986,3.1123,3.1709,3.2835,3.3169,3.3595,3.4433,3.4497,3.4409,3.418,3.4149,3.4208,3.4417,3.4968,3.526,3.526,3.6044,3.6445,3.6445,3.6738,3.6984,3.7074,3.7074,3.7194,3.7405,3.7329,3.7329,3.7583,3.8717,3.9206,3.9312,4.0468,4.1,4.1093,4.114,4.1215,4.1363,4.1363,4.1542,4.1805,0.0,0.0,0.0,0.0,0.0,0.0,0.0,0.0,0.0,0.0,0.0,0.0,0.0,0.0,0.0,0.0,0.0,0.0,0.0,0.0,3.2265,3.1816,3.1488,3.14,3.1741,3.1347,3.1282,3.146,3.1737,3.2013,3.2189,3.1837,3.1572,3.1306,3.1038,3.0668,3.0216,2.9943,2.9577,2.9117,2.9117,2.9024,2.8757,2.8757,2.8757,2.8757,2.8757,0.0,0.0,0.0,0.0,0.0,0.0,0.0,2.7729,2.706,2.7603,2.8426,2.8438,2.8991,2.9781,3.019,3.0659,3.0986,3.0986,3.0986,3.0898,3.0419,3.0659,3.0986,3.0986,3.0986,3.0986,3.0986,3.0986,3.0986,3.0986,3.1482,3.2245,3.3367,3.3988,3.4677,3.5472,3.552,3.543,3.5324,3.5217,3.5232,3.5445,3.5768,3.5968,3.5968,3.6415,3.6723,3.6723,3.6877,3.7044,3.7194,3.7194,3.7329,3.748,3.7405,3.7551,3.7943,3.8865,3.9437,3.9749,4.0741,4.1152,4.1261,4.1307,4.138,4.1515,4.1515,4.1604,4.1762,0.0,0.0,0.0,0.0,0.0,0.0,0.0,0.0,0.0,0.0,0.0,0.0,0.0,0.0,0.0,0.0,0.0,0.0,0.0,0.0,0.0,3.0777,3.0283,3.0193,3.0777,3.0283,3.0306,3.0668,3.0758,3.1038,3.1484,3.1484,3.1306,3.0859,3.0758,3.0216,2.9485,2.9393,2.9128,2.8757,2.8757,2.8757,2.8757,2.8757,2.8757,2.8757,2.8757,2.8757,2.8757,2.8757,0.0,0.0,0.0,0.0,2.7973,2.7725,2.8046,2.8585,2.9303,2.9704,3.0101,3.0823,3.1061,3.1061,3.1061,3.1136,3.1136,3.1136,3.1061,3.1061,3.1061,3.1061,3.1136,3.1136,3.1136,3.1136,3.1136,3.1896,3.2791,3.3506,3.4394,3.5335,3.6148,3.6163,3.6163,3.6492,3.6352,3.6336,3.6492,3.6492,3.6492,3.6554,3.6662,3.6785,3.6785,3.6999,3.7165,3.7254,3.7254,3.7389,3.7642,3.7685,3.7886,3.8334,3.9102,3.968,4.0285,4.1053,4.138,4.1426,4.1515,4.156,4.1604,4.1648,4.1692,4.1736,0.0,0.0,0.0,0.0,0.0,0.0,0.0,0.0,0.0,0.0,3.466,0.0,0.0,0.0,0.0,0.0,0.0,0.0,3.0777,0.0,0.0,2.9106,2.9024,2.9024,2.9106,2.9393,2.9577,2.9669,3.0125,3.0306,3.0397,3.0859,3.0949,3.0859,3.0034,2.9577,2.9485,2.9035,2.885,2.8757,2.8757,2.8757,2.8757,2.8757,2.8757,2.8757,2.8757,2.8757,2.8757,2.8757,2.8713,0.0,0.0,0.0,2.8322,2.707,2.7564,2.8426,2.8505,2.9704,3.0898,3.1198,3.1272,3.1286,3.1447,3.1535,3.1535,3.1535,3.136,3.1272,3.1272,3.136,3.1535,3.1535,3.1535,3.1535,3.1535,3.2259,3.3143,3.3822,3.478,3.5608,3.6414,3.6414,3.6429,3.6492,3.6492,3.6492,3.6492,3.6492,3.6554,3.6662,3.6862,3.7044,3.7134,3.7345,3.7421,3.7464,3.7464,3.7727,3.8181,3.8294,3.8351,3.8334,3.9102,3.968,4.0235,4.0943,4.1318,4.138,4.1426,4.1515,4.1604,4.1805,4.2019,4.2246,0.0,0.0,0.0,0.0,0.0,0.0,0.0,0.0,0.0,0.0,0.0,3.311,0.0,0.0,0.0,3.1822,3.1329,3.0584,2.9441,2.9024,2.8757,2.8757,2.8757,2.8757,2.8757,2.9035,2.9209,2.9485,2.9669,2.9943,3.0216,3.0125,3.0125,3.0125,2.9669,2.9393,2.9117,2.885,2.8757,2.8757,2.8757,2.8757,2.8757,2.8757,2.8757,2.8757,2.8757,2.8757,2.8757,2.8757,2.8757,2.8724,2.8506,0.0,0.0,0.0,2.7164,2.7529,2.8339,2.9922,3.1373,3.1447,3.1447,3.1522,3.1596,3.1609,3.1609,3.1609,3.1596,3.1582,3.1522,3.1522,3.1609,3.1609,3.1609,3.1609,3.1609,3.2676,3.3616,3.3959,3.519,3.6148,3.6492,3.6492,3.6492,3.6492,3.6492,3.6492,3.6492,3.6538,3.6662,3.6723,3.6968,3.715,3.7194,3.7405,3.748,3.748,3.7786,3.7927,3.7886,3.8439,3.8756,3.8941,3.9715,4.04,4.0896,4.1255,4.1453,4.1515,4.1515,4.156,4.1648,4.1849,4.1959,4.2145,0.0,0.0,0.0,0.0,0.0,0.0,0.0,0.0,0.0,0.0,0.0,0.0,0.0,0.0,0.0,0.0,2.9794,2.9218,2.8724,2.8757,2.8757,2.8757,2.8757,2.8757,2.8757,2.8757,2.8943,2.9301,2.9301,2.9485,2.9852,2.9485,2.9301,2.9301,2.9301,2.9128,2.8746,2.8626,2.8571,2.8571,2.8571,2.8571,2.8582,2.8713,2.8757,2.8757,2.8757,2.8757,2.8757,2.8757,2.8757,2.8757,2.8757,2.8429,0.0,0.0,0.0,2.7166,2.851,3.0088,3.1461,3.1609,3.1683,3.1683,3.1743,3.1743,3.1743,3.1743,3.189,3.1963,3.1743,3.1743,3.1743,3.1743,3.1743,3.1817,3.2009,3.3213,3.4163,3.4365,3.5593,3.6492,3.6492,3.6492,3.6492,3.6492,3.6492,3.6492,3.6492,3.66,3.6723,3.6785,3.7074,3.7194,3.7254,3.7405,3.7642,3.7902,3.8042,3.81,3.8173,3.8717,3.9242,3.968,4.0235,4.0802,4.1426,4.156,4.1604,4.1604,4.1604,4.1648,4.1675,4.1934,4.2044,4.2145,0.0,0.0,0.0,0.0,0.0,0.0,0.0,0.0,0.0,0.0,0.0,0.0,3.1336,3.0692,2.9869,2.8861,2.9038,2.8925,2.8456,2.8664,2.8757,2.8757,2.8757,0.0,2.8757,2.8757,2.885,2.885,2.885,2.885,2.885,2.885,2.885,2.885,2.885,2.885,2.8724,2.8265,2.808,2.808,2.808,2.808,2.8123,2.8582,2.8757,2.8757,2.8757,2.8757,2.8757,2.8757,2.8757,2.8757,2.8757,2.8429,2.7949,0.0,0.0,0.0,2.9057,3.0024,3.0924,3.1669,3.189,3.1963,3.2109,3.2182,3.2182,3.2182,3.2182,3.2182,3.2182,3.2182,3.2182,3.2182,3.2182,3.2372,3.3017,3.3768,3.4514,3.5255,3.6006,3.6492,3.6492,3.6492,3.6492,3.6492,3.6492,3.6492,3.6492,3.66,3.68,3.6999,3.715,3.727,3.748,3.748,3.8017,3.9098,3.8017,3.8383,3.9851,3.9595,3.9817,4.0351,4.0103,4.0563,4.1426,4.156,4.1604,4.1604,4.1604,4.1719,4.1934,4.2187,4.2409,4.2591,0.0,0.0,0.0,0.0,0.0,0.0,0.0,0.0,0.0,0.0,0.0,0.0,0.0,2.7512,2.6986,2.6889,2.7545,2.7898,2.7714,2.8211,2.8571,2.8571,2.8664,2.8757,2.8757,2.8757,2.8757,2.8757,2.8757,2.8757,2.8757,2.8757,2.8593,2.8298,2.8298,2.8298,2.8265,2.7785,2.7566,2.7599,2.7916,2.8036,2.8091,2.8571,2.8757,2.8713,2.8407,2.8495,2.8702,2.8396,2.8495,2.8757,2.8757,2.8429,2.7883,2.7446,2.7618,2.8267,2.9303,3.0317,3.1185,3.1877,3.2109,3.2109,3.2182,3.2182,3.2182,3.2182,3.2182,3.2182,3.2182,3.2182,3.2182,3.2182,3.2574,3.296,3.3157,3.423,3.5124,3.54,3.6085,3.6492,3.6492,3.6492,3.6554,3.66,3.66,3.6662,3.6816,3.6968,3.7074,3.715,3.727,3.7405,3.748,3.748,3.7902,3.8629,3.859,3.8974,3.9645,4.007,4.0368,4.0546,4.0611,4.096,4.1515,4.156,4.1692,4.1805,4.1805,4.1934,4.2187,4.2409,4.253,4.2649,0.0,0.0,0.0,0.0,0.0,0.0,0.0,0.0,0.0,2.8351,0.0,0.0,0.0,0.0,2.5392,2.5783,2.6466,2.6955,2.7183,2.7686,2.8129,2.8384,2.8571,2.8664,2.8757,2.8757,2.8757,2.8757,2.8757,2.8757,2.8757,2.8593,2.8342,2.8025,2.7708,2.7654,2.7763,2.7282,2.7086,2.7108,2.7435,2.7566,2.7643,2.8276,2.8517,2.8473,2.8156,2.8244,2.844,2.796,2.8003,2.8298,2.8462,2.8189,2.781,2.777,2.7964,2.8414,2.9833,3.0696,3.1381,3.2009,3.2182,3.2182,3.2182,3.2182,3.2182,3.2182,3.2182,3.2182,3.2182,3.2182,3.2182,3.2182,3.2761,3.3297,3.3561,3.4647,3.5464,3.5737,3.6211,3.6492,3.6492,3.6492,3.6554,3.6662,3.6723,3.68,3.7015,3.715,3.7254,3.7329,3.7405,3.748,3.748,3.748,3.7844,3.8629,3.8849,3.9348,3.9969,4.0451,4.0741,4.0896,4.1117,4.1363,4.1604,4.1604,4.1719,4.1874,4.1874,4.2103,4.2409,4.257,4.2649,4.2709,0.0,0.0,0.0,0.0,0.0,0.0,0.0,0.0,2.6801,2.7602,0.0,0.0,0.0,0.0,0.0,2.5501,2.5728,2.6218,2.6865,2.7193,2.759,2.8351,2.8384,2.8488,2.8757,2.8757,2.8757,2.8757,2.8757,2.8746,2.8724,2.8254,2.8025,2.796,2.7042,2.6867,2.7239,2.6791,2.6605,2.6616,2.6627,2.6627,2.6639,2.7575,2.7924,2.7924,2.7913,2.8003,2.7949,2.7457,2.7304,2.7392,2.785,2.7676,2.7447,2.8514,2.8488,2.856,0.0,0.0,0.0,3.2009,3.2182,3.2182,3.2182,3.2182,3.2182,3.2182,3.2182,3.2182,3.2182,3.2255,3.2241,3.2241,3.2761,3.3492,3.4177,3.4927,3.5672,3.6414,3.6492,3.6492,3.6492,3.6492,3.6538,3.6723,3.6708,3.6785,3.6999,3.715,3.7329,3.748,3.748,3.748,3.748,3.748,3.8075,3.9206,3.8739,3.942,4.1093,4.0772,4.0896,4.1426,4.156,4.1604,4.1604,4.1604,4.1719,4.1917,4.1917,4.2187,4.2609,4.2609,4.2747,4.2882,0.0,0.0,0.0,0.0,0.0,2.8199,2.6883,2.6318,2.583,0.0,0.0,0.0,2.5031,2.4871,2.4753,2.4802,2.5211,2.5513,2.5685,2.6582,2.7197,2.7427,2.8025,2.8395,2.8488,2.8664,2.8757,2.8757,2.8757,2.8571,2.8233,2.8102,2.7676,2.7009,2.6747,2.6421,2.6022,2.5903,2.5849,2.5881,2.6228,2.6271,2.6151,2.7017,2.7244,2.7201,2.6877,2.7051,2.7446,2.6977,2.7042,2.7272,2.7086,2.6922,2.6962,2.7988,2.8203,2.856,3.0607,0.0,0.0,0.0,0.0,0.0,3.2182,3.2182,3.2182,3.2182,3.2182,3.2182,3.2182,3.2561,3.2889,3.2889,3.3506,3.4109,3.4245,3.54,3.6289,3.6492,3.6492,3.6554,3.6662,3.6662,3.6785,3.7074,3.7074,3.715,3.7361,3.7405,3.7464,3.748,3.748,3.748,3.748,3.748,3.8075,3.9206,3.9172,3.9885,4.118,4.118,4.1318,4.156,4.1604,4.1604,4.1604,4.1604,4.1805,4.2187,4.2187,4.2432,4.2824,4.2824,4.2844,4.2882,0.0,0.0,0.0,0.0,0.0,2.6707,2.5641,2.5231,2.4754,0.0,0.0,0.0,2.4454,2.454,2.454,2.454,2.4788,2.5026,2.5223,2.582,2.6386,2.6666,2.7395,2.7825,2.7896,2.838,2.8566,2.837,2.8462,2.8211,2.773,2.7545,2.7162,2.6627,2.642,2.5999,2.5559,2.5475,2.5464,2.5497,2.5776,2.5712,2.5668,2.6312,2.6582,2.6637,2.6379,2.6628,2.6955,2.6485,2.6638,2.6944,2.6474,2.6549,2.7104,2.8158,2.8639,2.9201,3.1071,3.1629,3.1703,3.2096,0.0,0.0,3.2182,3.2182,3.2182,3.2182,3.2182,3.2182,3.2182,3.2503,3.2889,3.3297,3.3973,3.4514,3.4714,3.58,3.66,3.66,3.6677,3.6739,3.68,3.68,3.6907,3.7194,3.7194,3.727,3.748,3.748,3.748,3.748,3.748,3.748,3.748,3.748,3.8075,3.9206,3.9368,4.0069,4.1209,4.1408,4.1515,4.1604,4.1604,4.1604,4.1604,4.1675,4.1934,4.2328,4.2409,4.2631,4.2882,4.2882,4.2882,4.2846,0.0,0.0,2.6389,2.6389,2.563,2.5041,2.4957,2.4327,2.3841,0.0,2.4024,2.4196,2.4368,2.4454,2.4454,2.4454,2.4454,2.4629,2.513,2.5202,2.5498,2.6172,2.6634,2.7059,2.7211,2.7822,2.8028,2.7597,2.7778,2.7619,2.7228,2.6824,2.6594,2.6443,2.6092,2.5728,2.5475,2.5285,2.5115,2.5115,2.5115,2.5115,2.5158,2.5582,2.5925,2.612,2.6206,2.6282,2.6399,2.6048,2.619,2.6474,2.6037,2.6444,2.7363,2.8602,2.9266,2.9999,3.1716,3.2182,3.2182,3.2182,3.2182,0.0,3.2182,3.2182,3.2182,3.2182,3.2182,3.2255,3.2314,3.2372,3.2775,3.363,3.4394,3.4993,3.54,3.6196,3.6723,3.6723,3.6877,3.7015,3.6999,3.6999,3.7105,3.7194,3.7254,3.7329,3.748,3.748,3.748,3.748,3.748,3.748,3.748,3.748,3.8075,3.9189,3.9351,4.0052,4.1255,4.1453,4.156,4.1604,4.1604,4.1604,4.1604,4.1849,4.2103,4.2328,4.253,4.2709,4.2882,4.2792,4.2755,4.2647,2.6905,2.6378,2.5786,2.5462,2.521,2.4882,2.4155,2.3917,2.3841,2.3841,2.3841,2.3927,2.3927,2.3927,2.4013,2.4206,2.4292,2.4323,2.4588,2.5026,2.5275,2.5446,2.6062,2.6483,2.6483,2.686,2.704,2.7101,2.719,2.7041,2.6758,2.6671,2.6334,2.5784,2.5698,2.5391,2.5031,2.4946,2.4861,2.4625,2.4871,2.4871,2.4625,2.4965,2.5168,2.5168,2.5338,2.5604,2.5773,2.5844,2.5961,2.6026,2.5928,2.6045,2.6579,2.8402,2.9073,2.9564,3.1616,3.2182,3.2182,3.2182,3.2182,0.0,3.2182,3.2182,3.2182,3.2182,3.2182,3.2444,3.3101,3.3713,3.4394,3.532,3.6054,3.6336,3.5849,3.6461,3.6938,3.6938,3.6999,3.706,3.715,3.7134,3.727,3.7405,3.7464,3.7464,3.748,3.748,3.748,3.748,3.748,3.748,3.748,3.748,3.8116,3.9332,3.9139,3.9851,4.138,4.1163,4.1318,4.1604,4.1604,4.1604,4.1648,4.2037,4.2246,4.2328,4.253,4.2709,4.281,4.2176,4.194,4.1832,2.5746,2.4882,2.4029,2.378,2.378,2.3627,2.3319,2.3319,2.3319,2.3406,2.358,2.3667,2.3754,2.3841,2.3841,2.4024,2.411,2.4206,2.4368,2.4671,2.4892,2.4892,2.5415,2.5743,2.5743,2.6241,2.6419,2.6341,2.6429,2.6281,2.5904,2.5904,2.5701,2.538,2.538,2.52,2.4861,2.4861,2.4786,2.454,2.4615,2.4615,2.454,2.4615,2.4786,2.4946,2.5115,2.5464,2.5738,2.5895,2.5895,2.5895,2.5895,2.6373,2.7232,2.8615,2.9551,3.0417,3.185,3.2182,3.2182,3.2182,3.2182,0.0,0.0,3.23,3.2444,3.2444,3.2775,3.3241,3.3699,3.4245,3.4963,3.5882,3.6337,3.6616,3.6693,3.6952,3.7105,3.7105,3.7181,3.7301,3.7329,3.7329,3.7405,3.748,3.748,3.748,3.748,3.748,3.748,3.748,3.748,3.748,3.748,3.7626,3.8173,3.9098,3.9156,3.9817,4.1117,4.1024,4.1226,4.1604,4.1604,4.1648,4.1762,4.2163,4.2136,4.1895,4.2508,4.2589,4.2248,4.1868,4.147,4.0999,2.4307,2.329,2.2353,2.2344,2.2441,2.2441,2.2715,2.2706,2.2794,2.2969,2.3232,2.3416,2.3667,2.3667,2.3667,2.3754,2.4024,2.411,2.4206,2.4368,2.4454,2.4454,2.4815,2.5099,2.5099,2.5628,2.5805,2.5427,2.5601,2.5486,2.52,2.52,2.52,2.5115,2.5115,2.5031,2.4775,2.4775,2.47,2.454,2.454,2.454,2.454,2.454,2.4615,2.4871,2.5115,2.5464,2.5895,2.5895,2.5895,2.5895,2.6063,2.701,2.8096,2.902,3.0114,3.1233,3.2023,3.2182,3.2182,3.2182,3.2241,3.2314,0.0,0.0,0.0,3.2903,3.3492,3.4081,3.4336,3.4751,3.534,3.6244,3.6368,3.6646,3.7405,3.7329,3.7254,3.7254,3.7405,3.748,3.748,3.748,3.748,3.748,3.748,3.748,3.748,3.748,3.748,3.748,3.748,3.748,3.748,3.7786,3.8214,3.8827,3.9135,3.9834,4.0849,4.0866,4.1163,4.1587,4.149,4.1551,4.1704,4.1854,4.1608,4.1261,4.2282,4.2085,4.1252,4.1089,4.0528,3.9749,2.257,2.2334,2.2185,2.2353,2.2441,2.2432,2.2441,2.2441,2.253,2.2794,2.2882,2.2969,2.3144,2.3135,2.3319,2.3754,2.3841,2.3937,2.4206,2.4368,2.4454,2.4206,2.442,2.4623,2.4623,2.4664,2.475,2.4934,2.503,2.5083,2.52,2.52,2.5115,2.4946,2.4946,2.4786,2.454,2.454,2.454,2.454,2.454,2.454,2.454,2.454,2.454,2.4625,2.5031,2.5464,2.5895,2.5895,2.5895,2.6063,2.6787,2.7185,2.7649,2.9614,3.0241,3.0709,3.1863,3.2182,3.2182,3.2182,3.2444,3.2632,3.2632,0.0,3.3325,3.3768,0.0,3.4418,3.5646,0.0,0.0,3.7194,3.7329,3.7405,3.748,3.748,3.748,3.748,3.748,3.748,3.748,3.748,3.748,3.748,3.748,3.748,3.748,3.748,3.748,3.748,3.748,3.748,3.748,3.7786,3.8238,3.887,3.8865,3.961,4.0977,4.0611,4.0896,4.1569,4.1075,4.0919,4.089,4.0563,4.0396,4.0434,4.145,4.0963,3.9568,3.8844,3.8083,3.7377,2.1854,2.1793,2.1544,2.1909,2.1998,2.2087,2.2185,2.2353,2.2441,2.253,2.253,2.2618,2.2882,2.2969,2.3057,2.3406,2.3667,2.3754,2.3764,2.411,2.4292,2.4206,2.4292,2.4368,2.454,2.454,2.454,2.47,2.47,2.47,2.4786,2.4786,2.4786,2.47,2.47,2.4625,2.454,2.454,2.454,2.454,2.454,2.454,2.454,2.454,2.4711,2.4946,2.5115,2.5874,2.6622,2.6622,2.6622,2.6775,2.7649,2.7947,2.8335,2.9845,3.0709,3.1334,3.2023,3.2182,3.2182,3.2182,3.2444,3.2761,3.3101,3.3659,3.4192,3.4714,0.0,0.0,0.0,0.0,0.0,0.0,3.748,3.748,3.748,3.748,3.748,3.748,3.748,3.748,3.748,3.748,3.748,3.748,3.748,3.748,3.748,3.748,3.748,3.748,3.748,3.748,3.748,3.7976,3.8359,3.8606,3.8914,3.9644,4.0642,4.0021,4.0181,4.0902,4.0341,4.0152,4.0277,4.0211,3.9752,3.9083,3.9497,3.926,3.8608,3.7794,3.6979,3.6309,2.097,2.0979,2.0916,2.1284,2.1463,2.1642,2.1919,2.2087,2.2264,2.2353,2.2353,2.2441,2.2618,2.2803,2.2882,2.3047,2.3493,2.3667,2.359,2.3937,2.411,2.4206,2.412,2.4196,2.4454,2.4464,2.4454,2.454,2.454,2.454,2.454,2.454,2.454,2.454,2.454,2.454,2.454,2.454,2.454,2.454,2.454,2.454,2.454,2.454,2.4786,2.52,2.52,2.603,2.7185,2.7185,2.7336,2.7649,2.8585,2.8966,2.9266,3.0393,3.1272,3.1963,3.2182,3.2182,3.2182,3.2182,3.2632,3.3157,3.3575,3.4312,3.5124,3.5657,3.6258,0.0,0.0,0.0,3.748,3.748,0.0,3.748,3.748,3.748,3.748,3.748,3.748,3.748,3.748,3.748,3.748,3.748,3.748,3.748,3.748,3.748,3.748,3.748,3.748,3.748,3.748,3.8123,3.8391,3.8408,3.9002,3.9595,4.0092,3.9532,3.9612,4.0155,3.9593,3.9437,3.9575,3.9624,3.894,3.783,3.7631,3.7428,3.7174,3.6576,3.582,3.5217,1.9188,1.9828,2.0292,2.0382,2.0736,2.1177,2.1642,2.1741,2.183,2.2097,2.2097,2.2185,2.2353,2.2618,2.2882,2.3047,2.3319,2.359,2.3754,2.3841,2.3937,2.4206,2.3927,2.4013,2.4454,2.4292,2.4292,2.454,2.454,2.454,2.454,2.454,2.454,2.454,2.454,2.454,2.454,2.454,2.454,2.454,2.454,2.454,2.454,2.454,2.4786,2.52,2.52,2.603,2.7185,2.7185,2.773,2.8585,2.9589,2.9986,3.0228,3.1495,3.189,3.1963,3.2182,3.2182,3.2182,3.2182,3.3101,3.3959,3.3959,3.4963,3.5991,3.6523,3.6662,3.6846,3.7345,3.748,3.748,3.748,3.748,0.0,0.0,3.748,3.748,3.748,3.748,3.748,3.748,3.748,3.748,3.748,3.748,3.748,3.748,3.748,3.748,3.748,3.748,3.748,3.748,3.8123,3.8391,3.8408,3.9002,3.9292,3.9327,3.931,3.9319,3.9305,3.8898,3.8716,3.8701,3.8382,3.7775,3.6942,3.6182,3.5434,3.4788,3.4709,3.4232,3.3691,1.8187,1.855,1.9188,2.011,2.0464,2.0736,2.1186,2.1275,2.1365,2.1741,2.2008,2.2185,2.2353,2.2618,2.2882,2.3047,2.3329,2.3406,2.3309,2.3493,2.3667,2.3937,2.3754,2.3851,2.4292,2.4206,2.4206,2.4282,2.4454,2.454,2.454,2.454,2.454,2.454,2.454,2.454,2.454,2.454,2.454,2.454,2.454,2.454,2.454,2.454,2.4786,2.5274,2.5841,2.6894,2.8119,2.8676,2.9069,2.9459,3.0545,3.0469,3.0228,3.1495,3.189,3.1963,3.2182,3.2182,3.2314,3.2761,3.3422,3.423,3.5044,3.5849,3.6585,3.7089,3.7225,3.7285,3.748,3.748,3.748,3.748,3.748,3.748,0.0,3.748,3.748,3.748,3.748,3.748,3.748,3.748,3.748,3.748,3.748,3.748,3.748,3.748,3.748,3.748,3.748,3.748,3.748,3.8123,3.8391,3.8391,3.8525,3.8824,3.9276,3.8235,3.8043,3.848,3.812,3.7969,3.7952,3.7569,3.6924,3.6127,3.5331,3.4546,3.3909,3.388,3.3728,3.3686,1.7721,1.7815,1.8365,1.9471,1.9837,2.0192,2.0645,2.0907,2.1087,2.1365,2.183,2.2185,2.2264,2.2627,2.2891,2.2969,2.3232,2.3319,2.3232,2.3406,2.359,2.3937,2.3764,2.3851,2.4282,2.4206,2.4206,2.4292,2.4454,2.454,2.454,2.454,2.454,2.454,2.454,2.454,2.454,2.454,2.454,2.454,2.454,2.469,2.5094,2.5105,2.5348,2.5757,2.6719,2.7855,2.8978,2.9549,2.9947,3.0343,3.1123,3.1035,3.0784,3.173,3.2036,3.2036,3.2182,3.2372,3.2704,3.3157,3.4027,3.4898,3.5755,3.6492,3.7089,3.7421,3.748,3.748,3.748,3.748,3.748,3.748,3.748,3.748,0.0,3.748,3.748,3.748,3.748,3.748,3.748,3.748,3.748,3.748,3.748,3.748,3.748,3.748,3.748,3.748,3.748,3.7539,3.7626,3.7906,3.8075,3.8154,3.7936,3.8053,3.8457,3.745,3.7292,3.7809,3.7642,3.7631,3.7685,3.7205,3.6526,3.5729,3.4914,3.4159,3.352,3.3491,3.3549,3.3807,1.7628,1.7721,1.7822,1.8388,1.9012,1.9737,2.0201,2.0645,2.0997,2.0997,2.1642,2.2097,2.2097,2.2539,2.2803,2.2794,2.2969,2.3232,2.3503,2.3503,2.3677,2.4206,2.3937,2.4013,2.4454,2.4282,2.4282,2.4454,2.4454,2.4454,2.454,2.454,2.454,2.454,2.454,2.454,2.454,2.454,2.454,2.454,2.454,2.5168,2.6202,2.6224,2.64,2.6801,2.7775,2.8809,2.9704,2.9781,3.0343,3.1061,3.1447,3.1609,3.1683,3.2109,3.2241,3.2241,3.2241,3.2761,3.3283,3.3575,3.478,3.5961,3.6104,3.6845,3.748,3.748,3.748,3.7464,3.7433,3.7524,3.7524,3.7492,3.7508,3.7539,3.7539,3.7539,3.748,3.7539,3.7539,3.748,3.748,3.748,3.748,3.748,3.748,3.748,3.748,3.748,3.748,3.748,3.748,3.761,3.7822,3.748,3.74,3.7642,3.723,3.6984,3.699,3.6956,3.7084,3.7259,3.7521,3.7685,3.7773,3.7184,3.6472,3.5675,3.486,3.4152,3.3605,3.352,3.3605,3.3945,1.734,1.7527,1.7721,1.7916,1.8373,1.902,1.9646,2.0192,2.0645,2.0907,2.1642,2.2185,2.2353,2.2618,2.2882,2.2969,2.3057,2.3144,2.3232,2.3232,2.3406,2.3841,2.3677,2.3764,2.4282,2.4024,2.4024,2.4292,2.4292,2.4368,2.454,2.454,2.454,2.454,2.454,2.454,2.454,2.454,2.4861,2.5505,2.5505,2.6152,2.7209,2.8028,2.8505,2.873,2.8966,2.9369,2.9781,3.0419,3.0885,3.1272,3.1522,3.1683,3.189,3.2109,3.2574,3.296,3.296,3.3506,3.4177,3.4898,3.5499,3.6102,3.6784,3.7194,3.748,3.748,3.748,3.7322,3.6785,3.7277,3.7626,3.7132,3.7451,3.7786,3.7786,3.7642,3.7583,3.7786,3.7642,3.748,3.748,3.748,3.748,3.748,3.748,3.748,3.748,3.748,3.748,3.748,3.748,3.727,3.679,3.6901,3.6867,3.6572,3.62,3.6191,3.6608,3.6321,3.6371,3.6748,3.7354,3.7292,3.6755,3.6305,3.5639,3.4824,3.4087,3.3731,3.3671,3.3698,3.3753,3.3835,1.7239,1.7426,1.7527,1.7721,1.8195,1.8835,1.9371,1.9737,2.0283,2.0907,2.1445,2.1909,2.2353,2.2618,2.3057,2.3647,2.3309,2.3309,2.3734,2.3396,2.3406,2.3667,2.3764,2.3937,2.4206,2.4509,2.4509,2.4206,2.469,2.469,2.4378,2.4454,2.454,2.454,2.454,2.454,2.454,2.4946,2.5348,2.5819,2.6318,2.7209,0.0,2.8991,2.9614,3.0101,3.0101,3.0177,3.0343,3.0823,3.1123,3.136,3.1522,3.1743,3.2036,3.2503,3.2889,3.3283,3.3561,3.423,3.5044,3.5578,3.6087,3.6616,3.7194,3.7405,3.748,3.748,3.748,3.7354,3.6959,3.706,3.7042,3.6358,3.6565,3.6819,3.6819,3.6663,3.6663,3.6917,3.6991,3.7081,3.7181,3.735,3.748,3.748,3.748,3.748,3.748,3.748,3.748,3.748,3.748,3.7207,3.6594,3.6614,3.6373,3.5945,3.5497,3.5623,3.6209,3.6007,3.6266,3.6869,3.7392,3.7202,3.6485,3.5999,3.5331,3.4534,3.3818,3.3605,3.3698,3.378,3.3807,3.387,1.7239,1.7326,1.7426,1.7628,1.8272,1.892,1.9279,1.9546,2.0093,2.0898,2.1266,2.1713,2.2353,2.2706,2.3309,2.4413,2.3907,2.3734,2.4413,2.4079,2.3754,2.3667,2.4024,2.4282,2.4368,2.5253,2.5168,2.4206,2.5168,2.5168,2.4206,2.4368,2.4454,2.454,2.454,2.454,2.47,2.5505,2.5986,2.6318,2.7302,2.8359,2.9316,2.9459,3.0177,3.0986,3.0986,3.0986,3.0986,3.0986,3.1123,3.136,3.1669,3.1877,3.2228,3.3087,3.3422,3.363,3.4245,3.5109,3.577,3.5976,3.6616,3.7254,3.7464,3.748,3.748,3.748,3.748,3.7449,3.7354,3.6891,3.6289,3.5672,3.5577,3.5609,3.5704,3.5625,3.5633,3.5895,3.6213,0.0,3.6805,3.7229,3.748,3.748,3.7524,3.7539,3.748,3.7524,3.7492,3.7338,3.7338,3.7076,3.655,3.613,3.5788,3.5397,3.5004,3.5178,3.582,3.5907,3.6416,3.7241,3.7414,3.713,3.6496,3.5887,3.5168,3.4401,3.3822,3.3643,3.3698,3.378,3.3815,3.3979,1.7239,1.7326,1.7426,1.7628,1.8272,1.9004,1.9712,2.0357,2.0808,2.0997,2.1365,2.182,2.2344,2.3115,2.3887,2.4413,2.4988,2.5073,2.4584,2.5073,2.5158,2.4584,2.4669,2.485,2.5285,2.5231,2.4904,2.4206,2.4904,2.4904,2.4206,2.4206,2.4378,2.454,2.454,2.4946,2.5579,2.5746,2.673,2.8303,2.8462,2.9341,3.0457,3.0457,3.0685,3.0986,3.0986,3.0986,3.0986,3.0986,3.1211,3.1669,3.2286,3.269,3.3087,3.3905,3.4514,3.5059,3.519,3.5849,3.6585,3.6739,3.7029,3.7254,3.7464,3.748,3.748,3.748,3.748,3.7291,3.6706,3.6731,3.6773,3.6662,3.6646,3.6837,3.738,3.6769,3.6346,3.6702,3.6741,3.6765,3.6878,3.7245,3.748,3.748,3.7669,3.7727,3.7539,3.7743,3.7456,3.6627,3.6611,3.5979,3.4793,3.465,3.4558,3.4345,3.4266,3.4658,3.5498,3.595,3.6416,3.6878,3.6863,3.6427,3.5652,3.5038,3.4365,3.3709,3.3632,3.3643,3.3698,3.378,3.3947,3.4167,1.7239,1.7326,1.7419,1.7986,1.8627,1.9455,2.0175,2.0907,2.1365,2.1365,2.1365,2.1722,2.2696,2.3377,2.4307,2.5432,2.5663,2.583,2.5924,2.583,2.5663,2.5326,2.5421,2.5673,2.6008,2.6472,2.5975,2.4669,2.5557,2.5326,2.4024,2.411,2.4292,2.454,2.4935,2.5421,2.5819,2.6812,2.7799,2.887,2.9431,3.0062,3.0698,3.0849,3.0911,3.0986,3.0986,3.1334,3.1676,3.1259,3.1643,3.2214,3.269,3.3227,3.3905,3.4647,3.5124,3.5529,3.5928,3.6461,3.6923,3.7029,3.721,3.7405,3.748,3.748,3.748,3.748,3.748,3.7259,3.6564,3.6251,3.611,3.611,3.5792,3.5792,3.6492,3.6204,3.5998,3.6278,3.6485,3.6508,3.6366,3.6689,3.7144,3.7653,3.7685,3.7467,3.6959,3.7028,3.6753,3.5916,3.5884,3.5379,3.4304,3.4558,3.4539,3.4101,3.4578,3.5085,3.5661,3.6139,3.6406,3.6453,3.6488,3.591,3.4824,3.4238,3.3796,3.3549,3.3577,3.3671,3.378,3.3947,3.4099,3.4203,1.723,1.7323,1.7479,1.8232,1.9009,1.9694,2.0425,2.1221,2.1741,2.1741,2.1544,2.1802,2.296,2.38,2.4904,2.6351,2.6423,2.6588,2.7174,2.667,2.6329,2.608,2.6268,2.6505,2.6741,2.7557,2.7139,2.5378,2.6307,2.5819,2.4176,2.41,2.4368,2.4775,2.5663,2.6152,2.6483,2.7891,2.8791,2.9184,3.005,3.0533,3.0773,3.0911,3.0986,3.0986,3.1198,3.175,3.2376,3.1969,3.2331,3.303,3.3269,3.3891,3.4647,3.54,3.5657,3.58,3.6523,3.6862,3.7044,3.7194,3.7329,3.748,3.748,3.748,3.748,3.748,3.748,3.7286,3.6416,3.5941,3.5505,3.5261,3.4722,3.4557,3.5284,3.5252,3.5253,3.5473,3.58,3.5927,3.5591,3.5872,3.6476,3.7431,3.7297,3.6843,3.6232,3.6258,3.5925,3.53,3.5213,3.492,3.4351,3.4703,3.4737,3.4366,3.5085,3.5616,3.6054,3.6468,3.647,3.6184,3.6221,3.5426,3.4078,3.3605,3.3481,3.3577,3.3605,3.3698,3.3895,3.4124,3.425,3.4367,1.7091,1.7182,1.7357,1.8018,1.8844,1.9601,2.0298,2.1139,2.1741,2.1741,2.2264,2.2794,2.3057,2.4829,2.6102,2.6445,2.7603,2.7926,2.7267,2.7846,2.7926,2.7092,2.7092,2.7185,2.7429,2.7649,2.7383,2.6389,2.6483,2.6152,2.5326,2.4337,2.4509,2.5746,2.6577,2.7476,2.8291,2.8462,2.9172,3.0279,3.0368,3.0596,3.0986,3.0986,3.0986,3.1123,3.1736,3.2146,3.2506,3.3297,3.3699,3.4027,3.4699,3.5044,3.5464,3.6148,3.6476,3.6585,3.6662,3.6968,3.7194,3.7194,3.7329,3.748,3.748,3.748,3.748,3.748,3.748,3.7186,3.6047,3.6118,3.5973,3.4946,3.4498,3.4557,3.5284,3.481,3.4383,3.4453,3.4679,3.4872,3.4878,3.4856,3.5284,3.6282,3.613,3.584,3.5489,3.5721,3.5495,3.4825,3.4508,3.4425,3.4497,3.4349,3.4643,3.5283,3.5431,3.582,3.6444,3.6873,3.6799,3.6363,3.6023,3.4943,3.3472,3.3429,3.3452,3.3538,3.3577,3.3788,3.4074,3.4173,3.4458,3.4831,1.7018,1.7115,1.7336,1.7985,1.8589,1.9289,1.998,2.0906,2.1617,2.1617,2.2312,2.3144,2.409,2.5348,2.6351,2.6857,2.7846,2.8339,2.8007,2.8339,2.8339,2.8018,2.8007,2.8087,2.8315,2.8474,2.8143,2.7302,2.7302,2.6894,2.6069,2.5652,2.5819,2.6648,2.7557,2.8131,2.8542,2.904,2.9677,3.0368,3.0368,3.0672,3.0986,3.0986,3.1259,3.1736,3.216,3.3003,3.3973,3.4447,3.4647,3.4699,3.5124,3.5657,3.6148,3.6414,3.66,3.6723,3.6862,3.6747,3.6597,3.6715,3.6474,3.6232,3.6232,3.6232,3.6232,3.6232,3.6232,3.6086,3.5487,3.5535,3.5626,3.5535,3.508,3.492,3.534,3.5142,3.4952,3.4952,3.5062,3.4959,3.4568,3.4467,3.451,3.4699,3.5492,3.569,3.5036,3.5558,3.5389,3.4385,3.454,3.4677,3.4785,3.4864,3.5128,3.5476,3.5907,3.6241,3.6485,3.6361,3.5807,3.4936,3.4524,3.3991,3.3393,3.3452,3.3509,3.3577,3.3615,3.378,3.3947,3.4124,3.4413,3.4674,1.6855,1.6942,1.7164,1.775,1.8234,1.8888,1.9817,2.069,2.1441,2.203,2.2552,2.3353,2.4367,2.5437,2.6265,2.6749,2.7557,2.8041,2.8041,2.8041,2.8114,2.827,2.8282,2.8421,2.8724,2.8895,2.8724,2.8223,2.7971,2.7557,2.7058,2.7058,2.7221,2.7557,2.8462,2.8882,2.8961,2.9546,3.0011,3.0368,3.0368,3.0672,3.0986,3.0986,3.1468,3.2146,3.2577,3.363,3.4942,3.532,3.5449,3.5529,3.5672,3.6085,3.6492,3.6492,3.6616,3.6754,3.6689,3.6448,3.62,3.6111,3.5758,3.5394,3.5394,3.5394,3.5387,3.5276,3.5125,3.5022,3.5098,3.5051,3.5163,3.572,3.5377,3.5026,3.501,3.5036,3.4981,3.4778,3.4778,3.4573,3.4051,3.4004,3.3905,3.3742,3.494,3.5331,3.4462,3.5033,3.4939,3.4016,3.4496,3.4911,3.5128,3.5402,3.5671,3.5873,3.6409,3.6545,3.6284,3.5583,3.4836,3.4071,3.3599,3.3393,3.3393,3.3452,3.352,3.3605,3.3633,3.3753,3.3947,3.4099,3.4348,3.4653,1.6598,1.6761,1.6983,1.7384,1.778,1.8496,1.9961,2.0568,2.1412,2.3143,2.3405,2.3416,2.3416,2.4769,2.5727,2.5727,2.6417,2.6947,2.6947,2.6947,2.7188,2.7705,2.7729,2.7981,2.8498,2.8724,2.8882,2.9052,2.8223,2.8051,2.8462,2.8462,2.8462,2.8542,2.9378,2.9792,2.9792,2.9792,3.0011,3.0368,3.0368,3.0672,3.0986,3.0986,3.1468,3.2218,3.3143,3.4124,3.5008,3.5879,3.6336,3.6492,3.6492,3.6492,3.6492,3.6492,3.6754,3.6859,3.6126,3.6173,3.6263,3.5568,3.5394,3.5394,3.5394,3.5394,3.534,3.5037,3.4484,3.4234,3.4975,3.4864,3.4833,3.5148,3.4991,3.4658,3.4167,3.4133,3.3931,3.3377,3.3324,3.3324,3.3309,3.3309,3.3414,3.371,3.4366,3.4464,3.3761,3.3965,3.4,3.3694,3.4399,3.5005,3.5374,3.5732,3.6182,3.6788,3.6948,3.6584,3.5776,3.457,3.4124,3.4263,3.3659,3.3393,3.3393,3.3393,3.3481,3.3605,3.352,3.3807,3.4197,3.4124,3.4435,3.4908,1.6482,1.6648,1.6783,1.6918,1.7801,1.8681,1.9307,2.0543,2.1754,2.2387,2.2849,2.3155,2.3155,2.4437,2.5394,2.5716,2.6165,2.6621,2.686,2.6935,2.7007,2.7176,2.7188,2.726,2.7428,2.792,2.8334,2.8577,2.8621,2.887,2.9094,2.9094,2.9184,2.9378,2.9714,2.9792,2.9792,2.9934,3.0152,3.0444,3.0533,3.1035,3.1736,3.1736,3.2506,3.3685,3.4259,3.4942,3.5703,3.6226,3.6429,3.6492,3.6492,3.6492,3.6399,3.6044,3.6086,3.611,3.5524,3.5162,3.492,3.4699,3.4304,3.3972,3.3972,3.3841,3.348,3.2733,3.2823,3.3024,3.3151,3.39,3.4555,3.4661,3.5037,3.5161,3.4642,3.4593,3.4415,3.3899,3.3848,3.3694,3.3361,3.3309,3.3555,3.4201,3.4284,3.4284,3.425,3.5115,3.5419,3.5021,3.5509,3.5985,3.6276,3.6402,3.6609,3.6948,3.6987,3.6303,3.5021,3.4304,3.3773,3.3369,3.3382,3.3393,3.3393,3.3452,3.352,3.3605,3.3577,3.3726,3.3947,3.4049,3.4325,3.4653,1.6394,1.6566,1.673,1.673,1.7691,1.8647,1.9274,2.0615,2.1787,2.2327,2.2777,2.3001,2.3001,2.3927,2.4675,2.5066,2.5644,2.6015,2.6248,2.6322,2.6406,2.661,2.6622,2.6719,2.6923,2.7324,2.7709,2.8024,2.8719,2.9056,2.9197,2.9422,2.9611,2.9792,2.9869,2.9934,2.9934,3.0152,3.0508,3.0947,3.1022,3.1676,3.2506,3.2506,3.3269,3.4447,3.481,3.5415,3.61,3.6414,3.6322,3.6107,3.6107,3.5938,3.5752,3.5703,3.5633,3.5393,3.4877,3.4526,3.4225,3.3988,3.3752,3.3578,3.346,3.3113,3.2567,3.1888,3.19,3.2093,3.2451,3.3247,3.4048,3.461,3.5121,3.5355,3.5111,3.5098,3.4927,3.4415,3.4366,3.4218,3.3882,3.3866,3.4068,3.4561,3.4658,3.4754,3.4897,3.5633,3.5793,3.5345,3.5941,3.6343,3.6402,3.6602,3.6806,3.697,3.6391,3.5498,3.434,3.3839,3.3362,3.3011,3.3274,3.3393,3.3393,3.3452,3.3491,3.3549,3.352,3.3671,3.3921,3.4023,3.4302,3.4674,1.6476,1.6566,1.673,1.6812,1.7521,1.855,1.9816,2.0672,2.1603,2.2841,2.3001,2.3001,2.3001,2.3372,2.3751,2.4189,2.4826,2.5312,2.5312,2.5312,2.5528,2.6021,2.6045,2.6286,2.6815,2.6863,2.7112,2.752,2.84,2.8875,2.8888,2.9465,2.9729,2.9729,2.9985,3.0075,3.0075,3.0292,3.0934,3.1796,3.1796,3.2434,3.3297,3.3283,3.3837,3.4728,3.4942,3.5544,3.6196,3.6368,3.5999,3.5476,3.543,3.4953,3.458,3.5316,3.5229,3.4748,3.4187,3.4148,3.4067,3.3504,3.3745,3.4088,3.3733,3.3127,3.2573,3.2242,3.1613,3.1499,3.262,3.2869,3.3369,3.48,3.5128,3.5297,3.5552,3.5644,3.5436,3.4927,3.488,3.4816,3.4816,3.4769,3.4833,3.4864,3.5345,3.5616,3.5677,3.5677,3.5436,3.4911,3.5837,3.6199,3.595,3.6444,3.6788,3.6882,3.5337,3.434,3.3792,3.3194,3.2961,3.3117,3.3304,3.3393,3.3393,3.3393,3.3452,3.3509,3.3452,3.3698,3.4099,3.4074,3.4394,3.4889,1.6394,1.6566,1.6894,1.7602,1.8559,1.959,2.0672,2.168,2.2456,2.2927,2.3001,2.3001,2.3001,2.3372,2.3751,2.4189,2.4634,2.5052,2.5312,2.5312,2.536,2.5492,2.5492,2.5564,2.5685,2.6239,2.6883,2.7755,2.81,2.8298,2.831,2.8863,2.9139,2.9151,2.9808,3.0075,3.0152,3.047,3.1097,3.1796,3.1942,3.2847,3.4041,3.4177,3.4728,3.5479,3.58,3.6006,3.6134,3.583,3.5614,3.5399,3.4876,3.4229,3.3748,3.4177,3.4229,3.406,3.3644,3.3492,3.3604,3.3845,3.4284,3.4391,3.3594,3.3244,3.2883,3.2089,3.1754,3.1723,3.2024,3.2524,3.3024,3.3386,3.4421,3.5208,3.5297,3.5771,3.5941,3.5481,3.5391,3.5253,3.4833,3.4769,3.4958,3.5391,3.5526,3.5766,3.6131,3.6114,3.6071,3.5941,3.6259,3.6444,3.6502,3.6708,3.6531,3.6075,3.453,3.3776,3.3792,3.3194,3.2961,3.3117,3.3304,3.3393,3.3393,3.3393,3.3452,3.352,3.3643,3.3858,3.4148,3.4483,3.4733,3.4908,1.6535,1.7041,1.7594,1.8069,1.9344,2.0527,2.1135,2.2069,2.2777,2.3001,2.3001,2.3001,2.3001,2.3519,2.397,2.4189,2.4574,2.4921,2.5312,2.5312,2.5312,2.5312,2.5312,2.5312,2.5312,2.5743,2.6333,2.7095,2.7548,2.772,2.7745,2.8298,2.8561,2.8722,2.9249,2.9678,2.9984,3.0629,3.1495,3.2506,3.2918,3.3822,3.4927,3.5073,3.5479,3.5943,3.6133,3.6075,3.583,3.5599,3.506,3.4475,3.4106,3.3506,3.3008,3.3333,3.3458,3.342,3.3313,3.3503,3.3848,3.461,3.4975,3.4897,3.3879,3.3663,3.3317,3.2073,3.18,3.18,3.18,3.2127,3.2507,3.2852,3.3593,3.4283,3.4645,3.5318,3.57,3.5446,3.5736,3.581,3.5509,3.5481,3.5616,3.5898,3.5941,3.6028,3.6301,3.6301,3.6301,3.6301,3.6444,3.6544,3.6702,3.6439,3.5805,3.474,3.3987,3.3546,3.3395,3.3112,3.3073,3.3256,3.3364,3.3393,3.3393,3.3393,3.3422,3.3481,3.3707,3.3949,3.4255,3.4632,3.4908,3.5054,1.675,1.7586,1.8285,1.8443,1.9841,2.1019,2.1322,2.2019,2.2561,2.2794,2.2856,2.2856,2.2856,2.3525,2.3959,2.4031,2.4329,2.4744,2.53,2.5312,2.5312,2.5312,2.5312,2.5312,2.5312,2.5535,2.5828,2.627,2.6859,2.7155,2.7168,2.772,2.8056,2.8227,2.8579,2.9091,2.9822,3.073,3.1902,3.3295,3.3897,3.4773,3.5688,3.5752,3.5882,3.6058,3.6058,3.5753,3.5306,3.5214,3.4383,3.3383,3.3275,3.2859,3.2523,3.2843,3.2951,3.3096,3.3346,3.3848,3.4513,3.5391,3.5661,3.5419,3.4341,3.4093,3.3645,3.211,3.18,3.18,3.18,3.18,3.199,3.2628,3.2835,3.3145,3.3818,3.4559,3.5076,3.518,3.5749,3.618,3.6284,3.6301,3.6301,3.6301,3.6301,3.6301,3.6301,3.6301,3.6249,3.6146,3.6392,3.6533,3.6551,3.5819,3.4811,3.3494,3.3564,3.3379,3.2916,3.3024,3.3226,3.3393,3.3393,3.3393,3.3393,3.3393,3.3422,3.3462,3.376,3.4056,3.4379,3.4734,3.5,3.5209,1.7342,1.757,1.8088,1.9296,1.9882,2.0401,2.1222,2.1588,2.1811,2.1811,2.207,2.221,2.221,2.2616,2.296,2.3314,2.3382,2.3963,2.5252,2.5312,2.5312,2.5312,2.5312,2.5312,2.5312,2.5676,2.6037,2.6465,2.6553,2.659,2.6672,2.7155,2.7406,2.7515,2.8341,2.9087,2.9777,3.021,3.1569,3.3359,3.3477,3.4404,3.5688,3.5894,3.5672,3.5355,3.5569,3.5199,3.4537,3.3937,3.3583,3.3306,3.2736,3.2545,3.2594,3.2843,3.3277,3.3697,3.3949,3.4658,3.5391,3.5571,3.5898,3.5821,3.4421,3.4093,3.3645,3.211,3.18,3.18,3.18,3.18,3.1834,3.1955,3.249,3.2938,3.3076,3.3766,3.449,3.5128,3.5301,3.5611,3.6232,3.6301,3.6301,3.6301,3.6301,3.6301,3.6301,3.6301,3.6008,3.5387,3.6214,3.6452,3.5927,3.4546,3.3721,3.3476,3.3,3.2829,3.2916,3.3024,3.3226,3.3393,3.3393,3.3393,3.3393,3.3393,3.3509,3.3698,3.4074,3.4357,3.4593,3.4981,3.5157,3.5209,1.7787,1.8258,1.8791,1.9683,2.042,2.0998,2.1382,2.1522,2.1651,2.1849,2.1987,2.2183,2.2377,2.2718,2.2989,2.3203,2.3416,2.3831,2.4446,2.4482,2.4482,2.4482,2.4482,2.4683,2.5168,2.5763,2.6188,2.6533,2.6533,2.6533,2.6533,2.6716,2.6981,2.7201,2.7971,2.8794,2.9564,3.0568,3.1718,3.2875,3.2908,3.3675,3.4788,3.4501,3.4576,3.4862,3.4937,3.4491,3.3844,3.3506,3.3167,3.2798,3.2561,3.2523,3.2648,3.2951,3.3435,3.4118,3.4738,3.5253,3.5661,3.5898,3.5822,3.5421,3.4335,3.3749,3.3128,3.2024,3.18,3.18,3.18,3.18,3.18,3.18,3.2093,3.2317,3.2317,3.2972,3.3576,3.3921,3.4335,3.4887,3.5628,3.5714,3.587,3.6266,3.6301,3.6128,3.5732,3.5714,3.5393,3.4673,3.5179,3.5182,3.4565,3.388,3.3283,3.2915,3.28,3.2802,3.2916,3.3135,3.3304,3.3393,3.3393,3.3393,3.3393,3.3538,3.3625,3.3805,3.4265,3.4551,3.4753,3.5089,3.5209,3.5209,1.8266,1.8916,1.9363,1.9949,2.0738,2.1391,2.1391,2.1459,2.1585,2.1846,2.197,2.2105,2.2361,2.2706,2.2982,2.2982,2.3257,2.3412,2.3412,2.3465,2.3574,2.3827,2.3893,2.422,2.4969,2.5537,2.5884,2.6076,2.6076,2.6076,2.6088,2.6143,2.6278,2.656,2.7288,2.8166,2.9268,3.0525,3.1558,3.246,3.2511,3.3141,3.3924,3.3467,3.3673,3.4214,3.4214,3.3767,3.3167,3.3167,3.2721,3.2222,3.2346,3.2292,3.2222,3.2504,3.3147,3.3989,3.5026,3.5406,3.5547,3.5734,3.5352,3.4749,3.3973,3.3335,3.2697,3.1955,3.18,3.18,3.18,3.18,3.18,3.18,3.18,3.18,3.18,3.2283,3.2714,3.2886,3.3438,3.4111,3.4869,3.4938,3.518,3.5749,3.5783,3.5542,3.4956,3.4938,3.4656,3.3994,3.4109,3.3942,3.3494,3.3336,3.2967,3.2388,3.2722,3.2916,3.2916,3.3244,3.3393,3.3393,3.3393,3.3393,3.3422,3.3633,3.377,3.3949,3.4401,3.4694,3.4889,3.5124,3.5209,3.5229,1.8916,1.926,1.9481,1.9975,2.0434,2.0683,2.0683,2.1005,2.1209,2.1273,2.1516,2.1769,2.1769,2.2044,2.2243,2.2243,2.2306,2.2306,2.2306,2.2418,2.2916,2.3976,2.4067,2.4288,2.4533,2.4583,2.4738,2.4946,2.4946,2.4946,2.4946,2.5062,2.5114,2.5179,2.6077,2.7251,2.8549,2.9344,3.0734,3.2512,3.2631,3.3185,3.3985,3.4088,3.3824,3.3475,3.3475,3.3044,3.2459,3.2459,3.2013,3.1512,3.1634,3.1306,3.0947,3.113,3.1887,3.2973,3.4172,3.484,3.507,3.4421,3.4214,3.3955,3.3179,3.2938,3.2697,3.1955,3.18,3.18,3.18,3.18,3.18,3.18,3.18,3.18,3.18,3.1852,3.2127,3.2817,3.2955,3.33,3.4093,3.4162,3.4197,3.4249,3.4249,3.4231,3.4162,3.4162,3.3917,3.3308,3.3399,3.3491,3.3493,3.2827,3.2458,3.2388,3.2722,3.2916,3.2916,3.3244,3.3393,3.3393,3.3393,3.3393,3.3422,3.3633,3.3895,3.4203,3.4505,3.4812,3.5092,3.5176,3.5209,3.5324,1.977,1.9835,1.9835,2.0646,2.0903,2.0967,2.0967,2.1094,2.1285,2.1463,2.1588,2.1788,2.1987,2.2123,2.2197,2.2197,2.2197,2.2247,2.2309,2.2359,2.2665,2.3142,2.3663,2.3899,2.3963,2.4439,2.4743,2.482,2.482,2.482,2.4949,2.5355,2.565,2.5923,2.7503,2.8526,2.9153,3.0279,3.1261,3.2058,3.1679,3.2076,3.2867,3.2497,3.2532,3.2782,3.2782,3.2613,3.2398,3.2398,3.2213,3.199,3.1803,3.1581,3.1491,3.1902,3.2253,3.2713,3.3325,3.3991,3.4438,3.4162,3.3714,3.3283,3.2972,3.2559,3.2145,3.1852,3.18,3.18,3.18,3.18,3.18,3.18,3.18,3.18,3.18,3.18,3.1903,3.2179,3.2214,3.2524,3.3283,3.3352,3.3559,3.4042,3.4093,3.3926,3.3519,3.311,3.2821,3.258,3.2721,3.2809,3.2827,3.2546,3.2406,3.2388,3.2722,3.2916,3.2916,3.3244,3.3393,3.3393,3.3393,3.3481,3.3605,3.3788,3.4105,3.4461,3.4713,3.4945,3.5236,3.5804,3.6012,3.6126,2.0506,2.0506,2.0431,2.1094,2.1285,2.1348,2.1348,2.1486,2.1612,2.1851,2.1851,2.1984,2.2426,2.2438,2.251,2.2678,2.2742,2.2805,2.2919,2.2994,2.2972,2.2751,2.3443,2.3791,2.3791,2.4467,2.482,2.482,2.4885,2.4936,2.5065,2.5588,2.6013,2.6527,2.8098,2.9055,2.9665,3.0777,3.1459,3.1754,3.1369,3.1627,3.2145,3.1726,3.1943,3.2398,3.2398,3.2398,3.2398,3.2453,3.2314,3.2122,3.1908,3.1715,3.1561,3.1839,3.2021,3.2177,3.2488,3.2955,3.3369,3.3369,3.2955,3.2559,3.2559,3.2162,3.18,3.18,3.18,3.18,3.18,3.18,3.18,3.18,3.18,3.18,3.18,3.18,3.18,3.18,3.18,3.199,3.2507,3.2559,3.2783,3.3335,3.339,3.3242,3.2835,3.2404,3.2179,3.2179,3.2319,3.2406,3.2406,3.2406,3.2422,3.2473,3.2755,3.2916,3.2961,3.3274,3.3393,3.3393,3.3393,3.3491,3.3726,3.3972,3.4298,3.4614,3.487,3.5226,3.5687,3.6279,3.6661,3.7005,2.1094,2.1221,2.1221,2.1221,2.1474,2.1726,2.1726,2.1999,2.2209,2.2209,2.2209,2.2402,2.2931,2.2991,2.3195,2.3791,2.3893,2.4013,2.4013,2.4365,2.4076,2.2971,2.3641,2.4004,2.4004,2.4544,2.482,2.482,2.5,2.5116,2.5116,2.5447,2.5998,2.6607,2.7384,2.8453,2.9769,3.0466,3.1222,3.1841,3.2094,3.2191,3.2191,3.2342,3.2398,3.2398,3.2398,3.2398,3.2398,3.2578,3.2145,3.1678,3.1909,3.1436,3.0762,3.0566,3.0788,3.1201,3.1671,3.18,3.18,3.18,3.18,3.18,3.18,3.18,3.18,3.18,3.18,3.18,3.18,3.18,3.18,3.18,3.18,3.18,3.18,3.18,3.18,3.18,3.18,3.18,3.18,3.18,3.18,3.18,3.1875,3.1948,3.2073,3.2144,3.2179,3.2179,3.2319,3.2406,3.2406,3.2406,3.2473,3.2606,3.2802,3.2961,3.3117,3.3304,3.3393,3.3393,3.3393,3.3538,3.3726,3.4074,3.4367,3.4632,3.4983,3.5678,3.6528,3.6528,3.7024,3.7844,2.1463,2.1526,2.16,2.1862,2.2297,2.2599,2.2599,2.2987,2.3292,2.3292,2.3292,2.3364,2.352,2.3663,2.3777,2.3935,2.4091,2.43,2.4431,2.4638,2.4618,2.428,2.4417,2.4569,2.4569,2.4861,2.5,2.5,2.518,2.5307,2.5459,2.6443,2.7068,2.7455,2.9149,3.0119,3.0544,3.1324,3.1799,3.2094,3.215,3.2247,3.2342,3.2398,3.2398,3.2398,3.2398,3.2453,3.2523,3.2578,3.2579,3.236,3.1534,3.0891,3.0382,3.0481,3.0601,3.0845,3.1596,3.18,3.18,3.18,3.18,3.18,3.18,3.18,3.18,3.18,3.18,3.18,3.18,3.18,3.18,3.18,3.18,3.18,3.18,3.18,3.18,3.18,3.1856,3.1875,3.1875,3.1875,3.1912,3.2001,3.2073,3.2144,3.2179,3.2267,3.2354,3.2354,3.2388,3.2406,3.2406,3.2406,3.2473,3.2606,3.2802,3.2961,3.3117,3.3304,3.3393,3.3393,3.3393,3.3605,3.3921,3.4124,3.4813,3.5739,3.5875,3.6517,3.7426,3.8037,3.8419,3.8762,2.2467,2.2531,2.2595,2.2811,2.3087,2.3292,2.3292,2.3568,2.3773,2.3773,2.3827,2.3978,2.4183,2.4341,2.4481,2.4701,2.4939,2.514,2.534,2.5407,2.5473,2.5526,2.5526,2.5426,2.5277,2.5545,2.579,2.5855,2.6038,2.6168,2.6324,2.732,2.8102,2.8629,3.011,3.0955,3.1321,3.1853,3.215,3.2191,3.2247,3.2342,3.2398,3.2398,3.2453,3.2453,3.2453,3.2578,3.2718,3.2757,3.2935,3.2855,3.1844,3.1242,3.0892,3.0909,3.0817,3.0885,3.1596,3.18,3.18,3.18,3.18,3.18,3.18,3.18,3.18,3.18,3.18,3.18,3.18,3.18,3.18,3.18,3.18,3.18,3.18,3.18,3.18,3.1856,3.1875,3.193,3.1984,3.1984,3.202,3.2144,3.2179,3.2214,3.2267,3.2354,3.2406,3.2406,3.2457,3.2473,3.2473,3.2541,3.2623,3.2705,3.2898,3.3055,3.3226,3.3334,3.3393,3.3393,3.3481,3.3698,3.4042,3.4628,3.5396,3.6235,3.6672,3.7411,3.8285,3.882,3.922,3.9602,2.3773,2.3773,2.3773,2.3773,2.3809,2.3845,2.3899,2.3948,2.3984,2.3972,2.4105,2.4341,2.4828,2.5105,2.5369,2.5861,2.6131,2.627,2.6465,2.6533,2.6589,2.6714,2.6726,2.6485,2.6044,2.6582,2.693,2.7024,2.7268,2.7403,2.739,2.8222,2.9093,2.995,3.0644,3.1321,3.2053,3.2135,3.2247,3.2247,3.2342,3.2398,3.2398,3.2398,3.2523,3.2594,3.2648,3.2773,3.2951,3.3043,3.3203,3.3182,3.2487,3.2157,3.1882,3.1583,3.1341,3.1247,3.1688,3.18,3.18,3.18,3.18,3.18,3.18,3.18,3.18,3.18,3.18,3.18,3.18,3.18,3.18,3.18,3.18,3.18,3.18,3.18,3.1819,3.1858,3.1894,3.1948,3.2073,3.2108,3.2144,3.2179,3.2214,3.2267,3.2388,3.2406,3.2406,3.2406,3.2523,3.2606,3.2606,3.2802,3.2916,3.2916,3.3024,3.3196,3.3393,3.3393,3.3393,3.3393,3.3587,3.3852,3.4215,3.5398,3.6111,3.6519,3.745,3.8343,3.9126,3.9126,3.9621,4.0307,2.3773,2.3773,2.3773,2.3773,2.4097,2.443,2.4578,2.4929,2.5265,2.5416,2.5485,2.5534,2.5644,2.5807,2.6008,2.6119,2.6327,2.6465,2.6533,2.6589,2.6658,2.6714,2.6875,2.6947,2.702,2.7644,2.7709,2.7214,2.7908,2.8222,2.8287,2.9156,2.9889,3.0644,3.148,3.2007,3.215,3.2287,3.2342,3.2342,3.2398,3.2398,3.2398,3.2523,3.2578,3.2648,3.2773,3.2951,3.3112,3.3203,3.3256,3.3182,3.2487,3.2257,3.2125,3.1626,3.148,3.1483,3.1751,3.18,3.18,3.18,3.18,3.18,3.18,3.18,3.18,3.18,3.18,3.18,3.18,3.18,3.18,3.18,3.18,3.18,3.18,3.18,3.18,3.1819,3.1875,3.1948,3.2073,3.2232,3.2319,3.2214,3.2301,3.2354,3.2406,3.2406,3.2406,3.2406,3.2523,3.2606,3.2606,3.2898,3.3055,3.3055,3.3086,3.3196,3.3393,3.3393,3.3393,3.3393,3.3587,3.4183,3.4992,3.5642,3.6772,3.8209,3.8575,3.926,4.0024,4.0024,4.0156,4.0325,2.4791,2.4791,2.4791,2.4791,2.501,2.5192,2.5343,2.5575,2.5758,2.591,2.598,2.605,2.605,2.6201,2.6339,2.6339,2.6465,2.6521,2.6589,2.6658,2.6794,2.6998,2.7066,2.7403,2.7973,2.8661,2.8725,2.8039,2.8776,2.9156,2.9219,2.9997,3.0615,3.0999,3.1838,3.2247,3.2287,3.2398,3.2398,3.2398,3.2398,3.2398,3.2398,3.2453,3.2594,3.2773,3.2843,3.3005,3.3203,3.3256,3.3309,3.3245,3.2882,3.2708,3.2546,3.2114,3.1948,3.1883,3.1785,3.18,3.18,3.18,3.1819,3.1856,3.18,3.18,3.18,3.18,3.18,3.18,3.1856,3.1819,3.1837,3.1929,3.1856,3.1819,3.1929,3.1893,3.1893,3.1946,3.1984,3.2108,3.2232,3.2354,3.2354,3.2301,3.2354,3.2406,3.2406,3.2406,3.2406,3.2406,3.2623,3.2737,3.2737,3.3073,3.3256,3.3256,3.3256,3.3304,3.3393,3.3393,3.361,3.3973,3.4293,3.4926,3.5843,3.6821,3.7802,3.8778,3.9376,3.9909,4.031,4.031,4.0309,4.0342,2.584,2.591,2.591,2.591,2.591,2.591,2.598,2.598,2.598,2.598,2.6131,2.627,2.627,2.6396,2.6521,2.6521,2.6521,2.6589,2.6726,2.6782,2.693,2.7268,2.7335,2.7842,2.8803,2.9456,2.958,2.898,2.9704,3.0072,3.0194,3.0793,3.116,3.1407,3.1951,3.2302,3.2398,3.2398,3.2398,3.2398,3.2398,3.2398,3.2398,3.2453,3.2648,3.2912,3.2951,3.3096,3.3309,3.3309,3.3309,3.3309,3.3309,3.3227,3.3113,3.2784,3.2603,3.2411,3.2084,3.1903,3.18,3.18,3.1839,3.1912,3.1819,3.1819,3.1873,3.1873,3.1873,3.1856,3.1912,3.1893,3.191,3.2073,3.1965,3.191,3.209,3.1984,3.1984,3.2073,3.2144,3.2249,3.2354,3.2406,3.2406,3.2406,3.2406,3.2406,3.2406,3.2406,3.2388,3.2422,3.2722,3.2916,3.2948,3.3244,3.3393,3.3393,3.3393,3.3393,3.3393,3.3538,3.4002,3.4679,3.5202,3.5898,3.6819,3.8162,3.8795,3.9045,3.9948,4.031,4.031,4.031,4.0345,4.0396,2.5898,2.591,2.591,2.591,2.591,2.598,2.6131,2.6131,2.6201,2.6396,2.6465,2.6533,2.6589,2.6658,2.6658,2.6658,2.6658,2.6726,2.6956,2.7134,2.7268,2.7268,2.759,2.8105,2.8803,2.958,2.995,2.9827,3.0495,3.0852,3.0852,3.1072,3.1492,3.2064,3.2287,3.2398,3.2398,3.2398,3.2398,3.2398,3.2398,3.2398,3.2453,3.2718,3.2843,3.2951,3.315,3.3256,3.3309,3.3309,3.3309,3.3309,3.3309,3.3578,3.3908,3.3637,3.3345,3.3117,3.284,3.2283,3.18,3.18,3.1839,3.1894,3.1894,3.2001,3.2037,3.2037,3.2037,3.2073,3.2073,3.2073,3.2073,3.2126,3.209,3.2073,3.2126,3.2073,3.2073,3.2108,3.2144,3.2214,3.2232,3.2319,3.2406,3.2406,3.2406,3.2406,3.2406,3.2406,3.2439,3.2573,3.2787,3.2948,3.3055,3.3304,3.3393,3.3393,3.3393,3.3393,3.3429,3.4117,3.46,3.4895,3.5828,3.6883,3.8016,3.8474,3.9178,3.9944,4.0196,4.031,4.031,4.0382,4.0398,4.0396,2.6188,2.6258,2.6258,2.6258,2.6258,2.6258,2.6327,2.6396,2.6533,2.6589,2.6739,2.6807,2.6863,2.6875,2.6875,2.6875,2.6875,2.6943,2.7146,2.7268,2.7403,2.759,2.7723,2.8338,2.9566,2.9936,3.054,3.1319,3.158,3.1694,3.1792,3.1849,3.2033,3.2287,3.2398,3.2398,3.2398,3.2398,3.2398,3.2398,3.2453,3.2523,3.2523,3.2773,3.2951,3.3058,3.3256,3.3309,3.3309,3.3309,3.3309,3.3309,3.3309,3.3832,3.4365,3.3832,3.4017,3.4161,3.3193,3.2662,3.2317,3.1903,3.1893,3.202,3.202,3.2144,3.2232,3.2108,3.2108,3.2108,3.2144,3.2108,3.2161,3.2232,3.2161,3.2144,3.2232,3.2196,3.2179,3.2267,3.2232,3.2232,3.2301,3.2354,3.2406,3.2406,3.2406,3.2406,3.2406,3.2473,3.2557,3.2606,3.2866,3.3024,3.3086,3.3304,3.3393,3.3411,3.3864,3.4081,3.4081,3.4557,3.5312,3.6271,3.6989,3.7895,3.8883,3.9233,3.9652,4.0117,4.0253,4.031,4.0327,4.0381,4.0432,4.0466]},{"header":{"parameterUnit":"m.s-1","parameterCategory":1,"la1":30.6,"la2":28.766,"lo1":-90.7593,"lo2":-88.6598,"dy":0.0162,"dx":0.0183,"nx":116,"ny":114,"refTime":"2023-08-25T00:00:00:Z","depth":0,"parameterNumber":3,"parameterNumberName":"V-component_of_WINDS"},"data":[0.0,0.0,0.0,0.0,0.0,0.0,0.0,0.0,0.0,0.0,0.0,0.0,0.0,0.0,0.0,0.0,0.0,0.0,0.0,0.0,0.0,0.0,0.0,0.0,0.0,0.0,0.0,0.0,0.0,0.0,0.0,0.0,0.0,0.0,0.0,0.0,0.0,0.0,0.0,0.0,0.0,0.0,0.0,0.0,0.0,0.0,0.0,0.0,0.0,0.0,0.0,0.0,0.0,0.0,0.0,0.0,0.0,0.0,0.0,0.0,0.0,0.0,0.0,0.0,0.0,0.0,0.0,0.0,0.0,0.0,0.0,0.0,0.0,0.0,0.0,0.0,0.0,0.0,0.0,0.0,0.0,0.0,0.0,0.0,0.0,0.0,0.0,0.0,0.0,0.0,0.0,0.0,0.0,0.0,0.0,0.0,0.0,0.0,0.0,0.0,0.0,0.0,0.0,0.0,0.0,0.0,0.0,0.0,0.0,0.0,0.0,0.0,0.0,0.0,0.0,0.0,0.0,0.0,0.0,0.0,0.0,0.0,0.0,0.0,0.0,0.0,0.0,0.0,0.0,0.0,0.0,0.0,0.0,0.0,0.0,0.0,0.0,0.0,0.0,0.0,0.0,0.0,0.0,0.0,0.0,0.0,0.0,0.0,0.0,0.0,0.0,0.0,0.0,0.0,0.0,0.0,0.0,0.0,0.0,0.0,0.0,0.0,0.0,0.0,0.0,0.0,0.0,0.0,0.0,0.0,0.0,0.0,0.0,0.0,0.0,0.0,0.0,0.0,0.0,0.0,0.0,0.0,0.0,0.0,0.0,0.0,0.0,0.0,0.0,0.0,0.0,0.0,0.0,0.0,0.0,0.0,0.0,0.0,0.0,0.0,0.0,0.0,0.0,0.0,0.0,0.0,0.0,0.0,0.0,0.0,0.0,0.0,0.0,0.0,0.0,0.0,0.0,0.0,0.0,0.0,0.0,0.0,0.0,0.0,0.0,0.0,0.0,0.0,0.0,0.0,0.0,0.0,0.0,0.0,0.0,0.0,0.0,0.0,0.0,0.0,0.0,0.0,0.0,0.0,0.0,0.0,0.0,0.0,0.0,0.0,0.0,0.0,0.0,0.0,0.0,0.0,0.0,0.0,0.0,0.0,0.0,0.0,0.0,0.0,0.0,0.0,0.0,0.0,0.0,0.0,0.0,0.0,0.0,0.0,0.0,0.0,0.0,0.0,0.0,0.0,0.0,0.0,0.0,0.0,0.0,0.0,0.0,0.0,0.0,0.0,0.0,0.0,0.0,0.0,0.0,0.0,0.0,0.0,0.0,0.0,0.0,0.0,0.0,0.0,0.0,0.0,0.0,0.0,0.0,0.0,0.0,0.0,0.0,0.0,0.0,0.0,0.0,0.0,0.0,0.0,0.0,0.0,0.0,0.0,0.0,0.0,0.0,0.0,0.0,0.0,0.0,0.0,0.0,0.0,0.0,0.0,0.0,0.0,0.0,0.0,0.0,0.0,0.0,0.0,0.0,0.0,0.0,0.0,0.0,0.0,0.0,0.0,0.0,0.0,0.0,0.0,0.0,0.0,0.0,0.0,0.0,0.0,0.0,0.0,0.0,0.0,0.0,0.0,0.0,0.0,0.0,0.0,0.0,0.0,0.0,0.0,0.0,0.0,0.0,0.0,0.0,0.0,0.0,0.0,0.0,0.0,0.0,0.0,0.0,0.0,0.0,0.0,0.0,0.0,0.0,0.0,0.0,0.0,0.0,0.0,0.0,0.0,0.0,0.0,0.0,0.0,0.0,0.0,0.0,0.0,0.0,0.0,0.0,0.0,0.0,0.0,0.0,0.0,0.0,0.0,0.0,0.0,0.0,0.0,0.0,0.0,0.0,0.0,0.0,0.0,0.0,0.0,0.0,0.0,0.0,0.0,0.0,0.0,0.0,0.0,0.0,0.0,0.0,0.0,0.0,0.0,0.0,0.0,0.0,0.0,0.0,0.0,0.0,0.0,0.0,0.0,0.0,0.0,0.0,0.0,0.0,0.0,0.0,0.0,0.0,0.0,0.0,0.0,0.0,0.0,0.0,0.0,0.0,0.0,0.0,0.0,0.0,0.0,0.0,0.0,0.0,0.0,0.0,0.0,0.0,0.0,0.0,0.0,0.0,0.0,0.0,0.0,0.0,0.0,0.0,0.0,0.0,0.0,0.0,0.0,0.0,0.0,0.0,0.0,0.0,0.0,0.0,0.0,0.0,0.0,0.0,0.0,0.0,0.0,0.0,0.0,0.0,0.0,0.0,0.0,0.0,0.0,0.0,0.0,0.0,0.0,0.0,0.0,0.0,0.0,0.0,0.0,0.0,0.0,0.0,0.0,0.0,0.0,0.0,0.0,0.0,0.0,0.0,0.0,0.0,0.0,0.0,0.0,0.0,0.0,0.0,0.0,0.0,0.0,0.0,0.0,0.0,0.0,0.0,0.0,0.0,0.0,0.0,0.0,0.0,0.0,0.0,0.0,0.0,0.0,0.0,0.0,0.0,0.0,0.0,0.0,0.0,0.0,0.0,0.0,0.0,0.0,0.0,0.0,0.0,0.0,0.0,0.0,0.0,0.0,0.0,0.0,0.0,0.0,0.0,0.0,0.0,0.0,0.0,0.0,0.0,0.0,0.0,0.0,0.0,0.0,0.0,0.0,0.0,0.0,0.0,0.0,0.0,0.0,0.0,0.0,0.0,0.0,0.0,0.0,0.0,0.0,0.0,0.0,0.0,0.0,0.0,0.0,0.0,0.0,0.0,0.0,0.0,0.0,0.0,0.0,0.0,0.0,0.0,0.0,0.0,0.0,0.0,0.0,0.0,0.0,0.0,0.0,0.0,0.0,0.0,0.0,0.0,0.0,0.0,0.0,0.0,0.0,0.0,0.0,0.0,0.0,0.0,0.0,0.0,0.0,0.0,0.0,0.0,0.0,0.0,0.0,0.0,0.0,0.0,0.0,0.0,0.0,0.0,0.0,0.0,0.0,0.0,0.0,0.0,0.0,0.0,0.0,0.0,0.0,0.0,0.0,0.0,0.0,0.0,0.0,0.0,0.0,0.0,0.0,0.0,0.0,0.0,0.0,0.0,0.0,0.0,0.0,0.0,0.0,0.0,0.0,0.0,0.0,0.0,0.0,0.0,0.0,0.0,0.0,0.0,0.0,0.0,0.0,0.0,0.0,0.0,0.0,0.0,0.0,0.0,0.0,0.0,0.0,0.0,0.0,0.0,0.0,0.0,0.0,0.0,0.0,0.0,0.0,0.0,0.0,0.0,0.0,0.0,0.0,0.0,0.0,0.0,0.0,0.0,0.0,0.0,0.0,0.0,0.0,0.0,0.0,0.0,0.0,0.0,0.0,0.0,0.0,0.0,0.0,0.0,0.0,0.0,0.0,0.0,0.0,0.0,0.0,0.0,0.0,0.0,0.0,0.0,0.0,0.0,0.0,0.0,0.0,0.0,0.0,0.0,0.0,0.0,0.0,0.0,0.0,0.0,0.0,0.0,0.0,0.0,0.0,0.0,0.0,0.0,0.0,0.0,0.0,0.0,0.0,0.0,0.0,0.0,0.0,0.0,0.0,0.0,0.0,0.0,0.0,0.0,0.0,0.0,0.0,0.0,0.0,0.0,0.0,0.0,0.0,0.0,0.0,0.0,0.0,0.0,0.0,0.0,0.0,0.0,0.0,0.0,0.0,0.0,0.0,0.0,0.0,0.0,0.0,0.0,0.0,0.0,0.0,0.0,0.0,0.0,0.0,0.0,0.0,0.0,0.0,0.0,0.0,0.0,0.0,0.0,0.0,0.0,0.0,0.0,0.0,0.0,0.0,0.0,0.0,0.0,0.0,0.0,0.0,0.0,0.0,0.0,0.0,0.0,0.0,0.0,0.0,0.0,0.0,0.0,0.0,0.0,0.0,0.0,0.0,0.0,0.0,0.0,0.0,0.0,0.0,0.0,0.0,0.0,0.0,0.0,0.0,0.0,0.0,0.0,0.0,0.0,0.0,0.0,0.0,0.0,0.0,0.0,0.0,0.0,0.0,0.0,0.0,0.0,0.0,0.0,0.0,0.0,0.0,0.0,0.0,0.0,0.0,0.0,0.0,0.0,0.0,0.0,0.0,0.0,0.0,0.0,0.0,0.0,0.0,0.0,0.0,0.0,0.0,0.0,0.0,0.0,0.0,0.0,0.0,0.0,0.0,0.0,0.0,0.0,0.0,0.0,0.0,0.0,0.0,0.0,0.0,0.0,0.0,0.0,0.0,0.0,0.0,0.0,0.0,0.0,0.0,0.0,0.0,0.0,0.0,0.0,0.0,0.0,0.0,0.0,0.0,0.0,0.0,0.0,0.0,0.0,0.0,0.0,0.0,0.0,0.0,0.0,0.0,0.0,0.0,0.0,0.0,0.0,0.0,0.0,0.0,0.0,0.0,0.0,0.0,0.0,0.0,0.0,0.0,0.0,0.0,0.0,0.0,0.0,0.0,0.0,0.0,0.0,0.0,0.0,0.0,0.0,0.0,0.0,0.0,0.0,0.0,0.0,0.0,0.0,0.0,0.0,0.0,0.0,0.0,0.0,0.0,0.0,0.0,0.0,0.0,0.0,0.0,0.0,0.0,0.0,0.0,0.0,0.0,0.0,0.0,0.0,0.0,0.0,0.0,0.0,0.0,0.0,0.0,0.0,0.0,0.0,0.0,0.0,0.0,0.0,0.0,0.0,0.0,0.0,0.0,0.0,0.0,0.0,0.0,0.0,0.0,0.0,0.0,0.0,0.0,0.0,0.0,0.0,0.0,0.0,0.0,0.0,0.0,0.0,0.0,0.0,0.0,0.0,0.0,0.0,0.0,0.0,0.0,0.0,0.0,0.0,0.0,0.0,0.0,0.0,0.0,0.0,0.0,0.0,0.0,0.0,0.0,0.0,0.0,0.0,0.0,0.0,0.0,0.0,0.0,0.0,0.0,0.0,0.0,0.0,0.0,0.0,0.0,0.0,0.0,0.0,0.0,0.0,0.0,0.0,0.0,0.0,0.0,0.0,0.0,0.0,0.0,0.0,0.0,0.0,0.0,0.0,0.0,0.0,0.0,0.0,0.0,0.0,0.0,0.0,0.0,0.0,0.0,0.0,0.0,0.0,0.0,0.0,0.0,0.0,0.0,0.0,0.0,0.0,0.0,0.0,0.0,0.0,0.0,0.0,0.0,0.0,0.0,0.0,0.0,0.0,0.0,0.0,0.0,0.0,0.0,0.0,0.0,0.0,0.0,0.0,0.0,0.0,0.0,0.0,0.0,0.0,0.0,0.0,0.0,0.0,0.0,0.0,0.0,0.0,0.0,0.0,0.0,0.0,0.0,0.0,0.0,0.0,0.0,0.0,0.0,0.0,0.0,0.0,0.0,0.0,0.0,0.0,0.0,0.0,0.0,0.0,0.0,0.0,0.0,0.0,0.0,0.0,0.0,0.0,0.0,0.0,0.0,0.0,0.0,0.0,0.0,0.0,0.0,0.0,0.0,0.0,0.0,0.0,0.0,0.0,0.0,0.0,0.0,0.0,0.0,0.0,0.0,0.0,0.0,0.0,0.0,0.0,0.0,0.0,0.0,0.0,0.0,0.0,0.0,0.0,0.0,0.0,0.0,0.0,0.0,0.0,0.0,0.0,0.0,0.0,0.0,0.0,0.0,0.0,0.0,0.0,0.0,0.0,0.0,0.0,0.0,0.0,0.0,0.0,0.0,0.0,0.0,0.0,0.0,0.0,0.0,0.0,0.0,0.0,0.0,0.0,0.0,0.0,0.0,0.0,0.0,0.0,0.0,0.0,0.0,0.0,0.0,0.0,0.0,0.0,0.0,0.0,0.0,0.0,0.0,0.0,0.0,0.0,0.0,0.0,0.0,0.0,0.0,0.0,0.0,0.0,0.0,0.0,0.0,0.0,0.0,0.0,0.0,0.0,0.0,0.0,0.0,0.0,0.0,0.0,0.0,0.0,0.0,0.0,0.0,0.0,0.0,0.0,0.0,0.0,0.0,0.0,0.0,0.0,0.0,0.0,0.0,0.0,0.0,0.0,0.0,0.0,0.0,3.6777,3.5621,0.0,0.0,0.0,0.0,0.0,0.0,0.0,0.0,0.0,0.0,0.0,0.0,0.0,0.0,0.0,0.0,0.0,0.0,0.0,0.0,0.0,0.0,0.0,0.0,0.0,0.0,0.0,0.0,0.0,0.0,0.0,0.0,0.0,0.0,0.0,0.0,0.0,0.0,3.0467,2.9948,2.8505,2.7476,2.6835,2.6599,0.0,0.0,0.0,0.0,0.0,0.0,0.0,0.0,0.0,0.0,0.0,0.0,0.0,0.0,0.0,0.0,0.0,0.0,0.0,0.0,0.0,0.0,0.0,0.0,0.0,0.0,0.0,0.0,0.0,0.0,0.0,0.0,0.0,0.0,0.0,0.0,0.0,0.0,0.0,0.0,0.0,0.0,0.0,0.0,0.0,0.0,0.0,0.0,0.0,0.0,0.0,0.0,0.0,0.0,0.0,0.0,0.0,0.0,0.0,0.0,0.0,0.0,0.0,0.0,0.0,0.0,0.0,0.0,0.0,0.0,3.8852,3.7659,0.0,0.0,0.0,0.0,0.0,0.0,0.0,0.0,0.0,0.0,0.0,0.0,0.0,0.0,0.0,0.0,0.0,0.0,0.0,0.0,0.0,0.0,0.0,0.0,3.2015,3.2015,3.1676,3.1556,0.0,0.0,0.0,0.0,0.0,0.0,0.0,3.2917,3.2761,3.2001,3.2177,3.1583,3.0279,2.9316,2.8724,2.8327,2.6905,0.0,0.0,0.0,0.0,0.0,0.0,0.0,0.0,0.0,0.0,0.0,0.0,0.0,0.0,0.0,0.0,0.0,0.0,0.0,0.0,0.0,0.0,0.0,0.0,0.0,0.0,0.0,0.0,0.0,0.0,0.0,0.0,0.0,0.0,0.0,0.0,0.0,0.0,0.0,0.0,0.0,0.0,0.0,0.0,0.0,0.0,0.0,0.0,0.0,0.0,0.0,0.0,0.0,0.0,0.0,0.0,0.0,0.0,0.0,0.0,0.0,0.0,0.0,4.2191,4.1802,4.172,4.1624,4.1573,4.1464,3.9994,3.9044,3.8415,3.6357,0.0,0.0,0.0,0.0,0.0,0.0,0.0,0.0,0.0,0.0,0.0,0.0,0.0,0.0,0.0,0.0,0.0,0.0,0.0,0.0,0.0,3.2918,3.3003,3.3003,3.3087,3.3227,0.0,0.0,0.0,0.0,0.0,0.0,3.2917,3.3297,3.3269,3.2749,3.228,3.1847,3.1483,3.0869,3.0594,3.0443,2.8688,2.7151,2.5848,0.0,0.0,0.0,0.0,0.0,0.0,0.0,0.0,0.0,0.0,0.0,0.0,0.0,0.0,0.0,0.0,0.0,0.0,0.0,0.0,0.0,0.0,0.0,0.0,0.0,0.0,0.0,0.0,0.0,0.0,0.0,0.0,0.0,0.0,0.0,0.0,0.0,0.0,0.0,0.0,0.0,3.9976,4.0293,0.0,0.0,0.0,0.0,0.0,0.0,0.0,0.0,0.0,0.0,0.0,0.0,0.0,4.4861,4.4899,4.4414,4.4173,4.411,4.2614,4.1814,4.1664,4.0748,4.0273,4.0135,3.9893,0.0,4.118,3.8724,0.0,0.0,0.0,0.0,0.0,0.0,0.0,0.0,0.0,0.0,0.0,0.0,0.0,0.0,0.0,0.0,0.0,0.0,0.0,0.0,0.0,3.4056,3.3837,3.3973,3.3713,3.3644,3.3905,3.4298,0.0,0.0,0.0,3.4714,3.4177,3.4341,3.4288,3.3934,3.3339,3.2961,3.289,3.2177,3.1609,3.1206,3.0279,2.9045,2.7533,2.6119,0.0,0.0,0.0,0.0,0.0,0.0,0.0,0.0,0.0,0.0,0.0,0.0,0.0,0.0,0.0,0.0,0.0,0.0,0.0,0.0,0.0,0.0,0.0,0.0,0.0,0.0,0.0,0.0,0.0,0.0,0.0,0.0,0.0,0.0,0.0,0.0,0.0,0.0,0.0,4.1609,4.2127,4.2841,4.3013,4.3078,0.0,0.0,0.0,0.0,0.0,0.0,0.0,0.0,0.0,4.4778,4.4758,4.4442,4.3851,4.3593,4.3352,4.3045,4.2121,4.1457,4.1074,4.0407,4.0087,3.9986,3.9986,4.0357,4.0774,3.955,3.9362,3.9736,0.0,0.0,0.0,0.0,3.3129,3.0903,0.0,0.0,0.0,0.0,0.0,0.0,0.0,0.0,0.0,0.0,0.0,0.0,3.5474,3.5023,3.4728,3.4942,3.4461,3.438,3.478,3.532,0.0,0.0,3.58,3.6039,3.5355,3.5305,3.5088,3.4698,3.4385,3.4221,3.4153,3.3394,3.2749,3.2205,3.1623,3.0519,2.8937,2.7371,2.6213,2.5378,0.0,0.0,0.0,0.0,0.0,0.0,0.0,0.0,0.0,0.0,0.0,0.0,0.0,0.0,0.0,0.0,0.0,0.0,0.0,0.0,0.0,0.0,0.0,0.0,0.0,0.0,0.0,0.0,0.0,0.0,0.0,0.0,0.0,0.0,0.0,0.0,0.0,4.2951,4.3477,4.4342,4.4325,4.4252,0.0,0.0,0.0,0.0,0.0,0.0,4.5466,4.5667,4.5356,4.4462,4.4288,4.3834,4.3032,4.29,4.2613,4.2221,4.1888,4.1437,4.0938,4.0466,4.0254,4.0204,4.0121,4.007,4.007,3.9833,3.9781,3.9713,3.8908,3.8603,3.8531,3.7636,3.5876,3.3962,0.0,0.0,0.0,0.0,0.0,0.0,0.0,0.0,0.0,0.0,0.0,3.5474,3.5688,3.5688,3.5688,3.5894,3.6022,3.607,3.607,3.66,3.6677,3.6133,3.6399,3.6415,3.6041,3.5946,3.5494,3.4698,3.5162,3.5294,3.5148,3.4476,3.4163,3.4095,3.2492,3.097,2.9537,2.8004,2.7371,2.7139,2.4967,0.0,0.0,0.0,0.0,0.0,0.0,0.0,0.0,0.0,0.0,0.0,0.0,0.0,0.0,0.0,0.0,0.0,0.0,0.0,0.0,0.0,0.0,0.0,0.0,0.0,0.0,0.0,0.0,0.0,0.0,0.0,0.0,0.0,0.0,0.0,0.0,0.0,0.0,4.3804,4.3956,0.0,0.0,0.0,0.0,4.4307,4.4367,4.4349,4.4293,4.4293,4.4195,4.3936,4.3612,4.3442,4.3371,4.305,4.2882,4.2844,4.2378,4.2098,4.1895,4.1139,4.0707,4.0546,4.0254,4.007,4.007,3.9935,3.9935,4.0037,3.9764,3.9713,3.9781,3.9609,3.8745,3.7751,0.0,0.0,0.0,0.0,0.0,0.0,0.0,0.0,3.5504,3.5504,3.5604,3.5638,3.5688,3.5831,3.5958,3.6085,3.6148,3.6274,3.6352,3.6739,3.68,3.6383,3.7027,3.7251,3.6951,3.6707,3.6165,3.5494,3.629,3.6258,3.5424,3.5721,3.529,3.4312,3.3822,3.2692,3.1106,2.9434,2.8279,2.7637,2.6565,2.5411,0.0,0.0,0.0,0.0,0.0,0.0,0.0,0.0,0.0,0.0,0.0,0.0,0.0,0.0,0.0,0.0,0.0,0.0,0.0,0.0,0.0,0.0,0.0,0.0,0.0,0.0,0.0,0.0,0.0,0.0,0.0,0.0,0.0,0.0,0.0,0.0,0.0,4.4325,4.3944,0.0,4.3961,4.4005,4.4097,4.4401,4.4496,4.4532,4.4513,4.4621,4.4467,4.4042,4.3836,4.3542,4.3196,4.3013,4.2882,4.2882,4.2418,4.2157,4.2098,4.1202,4.0754,4.0689,4.0221,4.0037,4.007,3.9952,3.9986,4.007,3.9969,3.9935,3.9901,3.9849,3.954,3.9065,0.0,0.0,0.0,0.0,0.0,0.0,0.0,0.0,3.5504,3.5504,3.5589,3.5752,3.5767,3.5958,3.6148,3.6289,3.6274,3.6414,3.6616,3.6984,3.7089,3.6906,3.7637,3.777,3.7163,3.7207,3.6723,3.5688,3.6585,3.6554,3.5504,3.6037,3.5737,3.4677,3.4528,3.3754,3.2362,3.0745,2.9549,2.853,2.7742,2.6741,2.5986,0.0,0.0,0.0,0.0,0.0,0.0,0.0,0.0,0.0,0.0,0.0,0.0,0.0,0.0,0.0,0.0,0.0,0.0,0.0,0.0,0.0,0.0,0.0,0.0,0.0,0.0,0.0,0.0,0.0,0.0,0.0,0.0,0.0,0.0,4.3906,4.3905,4.4287,4.3897,4.3716,4.4048,4.4079,4.4188,4.4487,4.4578,4.4685,4.4745,4.4846,4.4726,4.4383,4.4053,4.374,4.3356,4.3069,4.2882,4.29,4.2577,4.2338,4.2157,4.141,4.0926,4.0754,4.0221,3.9986,4.0037,3.9986,3.9986,4.0037,4.0087,4.0037,3.9901,3.9935,3.9833,3.9677,0.0,0.0,0.0,0.0,0.0,0.0,0.0,3.6327,3.5504,3.5504,3.5589,3.5752,3.5973,3.6148,3.6274,3.6492,3.6492,3.6616,3.6954,3.7254,3.7519,3.7886,3.8205,3.7844,3.6723,3.746,3.6982,3.5213,3.607,3.6085,3.5504,3.5504,3.5504,3.5439,3.4677,3.3905,3.3143,3.2015,3.0934,2.9998,2.845,2.781,2.781,0.0,0.0,0.0,0.0,0.0,0.0,0.0,0.0,0.0,0.0,0.0,0.0,0.0,0.0,0.0,0.0,0.0,0.0,0.0,0.0,0.0,0.0,0.0,0.0,0.0,0.0,0.0,0.0,0.0,0.0,0.0,0.0,0.0,4.292,4.3049,4.3233,4.3563,4.3734,4.3851,4.4005,4.4005,4.4158,4.4487,4.4515,4.4632,4.4889,4.4895,4.487,4.487,4.4213,4.3881,4.3881,4.3213,4.2882,4.2882,4.2882,4.2673,4.2216,4.1717,4.1276,4.0802,4.0303,4.0037,3.9901,4.0037,4.0037,3.9901,4.0037,4.0037,3.9901,4.0037,3.9918,3.9677,0.0,0.0,0.0,0.0,0.0,0.0,0.0,3.6327,3.5504,3.5504,3.5733,3.5973,3.5973,3.6226,3.6414,3.6492,3.6492,3.6616,3.6954,3.7254,3.7653,3.8205,3.7535,3.7238,3.7433,3.6937,3.643,3.5958,3.6723,3.6554,3.5504,3.6085,3.6037,3.5439,3.4824,3.4041,3.3143,3.2015,3.0934,2.9998,2.9263,2.8609,2.8131,0.0,0.0,0.0,0.0,0.0,0.0,0.0,0.0,0.0,0.0,0.0,0.0,0.0,0.0,0.0,0.0,0.0,0.0,0.0,0.0,0.0,0.0,0.0,0.0,0.0,0.0,0.0,0.0,0.0,0.0,0.0,4.2786,4.2957,4.3087,4.3339,4.3548,4.3701,4.3865,4.4023,4.4207,4.4226,4.4325,4.4632,4.4659,4.4738,4.4895,4.4681,4.443,4.4184,4.3754,4.344,4.3178,4.2976,4.2882,4.2882,4.2882,4.2844,4.2673,4.1888,4.1437,4.1276,4.0336,3.9986,4.0037,3.9986,3.9986,4.0037,4.0087,4.0037,3.9901,3.9952,3.9798,3.9537,0.0,0.0,0.0,0.0,0.0,0.0,0.0,3.6327,3.5504,3.5504,3.5797,3.5973,3.5973,3.6304,3.6492,3.6492,3.6492,3.6677,3.7165,3.7567,3.7844,3.7976,3.7594,3.7298,3.6937,3.6921,3.6569,3.591,3.6616,3.6492,3.5504,3.5973,3.5973,3.5504,3.5133,3.4476,3.3561,3.2407,3.1502,3.0646,3.0241,2.9459,2.8779,2.9729,3.0228,3.0631,3.1796,3.2818,3.3673,3.3437,0.0,0.0,0.0,0.0,0.0,0.0,0.0,0.0,0.0,0.0,0.0,0.0,0.0,0.0,0.0,0.0,0.0,0.0,0.0,0.0,0.0,0.0,0.0,0.0,4.2994,4.3087,4.3304,4.3479,4.3615,4.3771,4.3897,4.4023,4.4147,4.4255,4.4401,4.4605,4.4659,4.4764,4.4895,4.4557,4.4289,4.4065,4.3557,4.3159,4.2976,4.29,4.288,4.288,4.2691,4.2498,4.2279,4.1543,4.1094,4.0879,4.0254,3.9986,3.9986,3.9952,3.9952,4.0037,0.0,0.0,0.0,0.0,3.9746,3.9642,0.0,0.0,0.0,0.0,0.0,0.0,0.0,3.6387,3.5594,3.5519,3.5797,3.5973,3.5973,3.6289,3.6492,3.6492,3.6554,3.6785,3.7417,3.7976,3.8033,3.7417,3.7844,3.7417,3.5913,3.7027,3.6937,3.5504,3.6022,3.6022,3.5504,3.5504,3.5504,3.5504,3.5279,3.4839,3.4095,3.282,3.1915,3.1294,3.0895,3.0228,2.9639,3.0456,3.1057,3.1649,3.3157,3.3796,3.4002,3.4868,0.0,0.0,0.0,0.0,0.0,0.0,0.0,0.0,0.0,0.0,0.0,0.0,0.0,0.0,0.0,0.0,0.0,0.0,0.0,0.0,0.0,0.0,0.0,0.0,4.316,4.3268,4.3463,4.3532,4.36,4.3771,4.3851,4.3929,4.4005,4.4177,4.4344,4.4487,4.4632,4.4745,4.4846,4.4476,0.0,0.0,0.0,4.3051,4.3014,4.2862,4.2783,4.2802,4.2436,4.2015,4.1569,4.1111,4.0611,4.0171,4.0121,4.0037,3.9901,3.9901,3.9901,3.9884,4.0037,4.0037,3.9901,3.9781,3.9781,3.9849,0.0,0.0,0.0,0.0,0.0,0.0,0.0,3.6776,3.6103,3.5579,3.5653,3.5831,3.5973,3.6148,3.6336,3.6492,3.6754,3.7165,3.777,3.7653,3.7535,3.7417,3.6616,3.6117,3.5913,3.5752,3.5653,3.5504,3.5619,3.5619,3.5504,3.5504,3.5504,3.5439,3.4041,3.3325,3.3031,3.1355,3.0432,3.0075,2.9806,3.0075,3.067,3.1489,3.2218,3.2861,3.303,3.3618,3.4332,3.4683,3.4883,3.5001,3.5359,3.5554,0.0,0.0,0.0,0.0,0.0,0.0,0.0,0.0,0.0,0.0,0.0,0.0,0.0,0.0,0.0,0.0,0.0,0.0,0.0,4.3067,4.316,4.3268,4.3463,4.3652,4.3771,4.3804,4.3897,4.3974,4.4005,4.4177,4.4344,4.4487,4.4632,4.4621,4.4484,4.4125,4.3703,4.3334,4.2921,4.267,4.2627,4.2745,4.2783,4.2783,4.2786,0.0,4.2074,4.1587,4.1047,4.0497,4.0204,3.9969,3.9729,3.9849,3.9849,3.9781,4.0037,4.0037,3.9901,3.9901,3.9798,3.9729,0.0,0.0,0.0,0.0,0.0,0.0,0.0,3.6881,3.6252,3.5594,3.5718,3.5894,3.5973,3.6226,3.6414,3.6492,3.6554,3.6892,3.7594,3.7071,3.6814,3.689,3.6337,3.5785,3.5314,3.5379,3.5409,3.5359,3.5359,3.5424,3.5504,3.4986,3.4986,3.5279,3.3547,3.3185,3.3768,3.1563,3.0996,3.1442,3.0833,3.1119,3.1942,3.1942,3.2434,3.3213,3.3548,3.4059,3.4563,3.475,3.4883,3.5082,3.5424,3.591,3.6554,0.0,0.0,0.0,0.0,0.0,0.0,0.0,0.0,0.0,0.0,0.0,0.0,0.0,0.0,4.2346,4.253,0.0,4.2918,4.3123,4.3214,4.3358,4.3532,4.3686,4.3804,4.3804,4.3929,4.4005,4.4005,4.4177,4.4266,4.417,4.4345,4.4336,4.4125,4.367,4.3353,4.3123,4.2691,4.2409,4.2405,4.2566,4.2645,4.2645,4.2292,4.199,4.163,4.1001,4.0514,4.0137,3.9969,3.9816,3.9729,3.9781,3.9504,3.9152,3.9696,3.9884,3.9901,3.9833,3.9781,3.9781,0.0,0.0,0.0,0.0,0.0,0.0,0.0,3.706,3.6432,3.5839,3.5872,3.5973,3.6037,3.6289,3.6492,3.6616,3.6336,3.6507,3.7222,3.6368,3.593,3.6072,3.6009,3.5529,3.4698,3.5184,3.5379,3.5148,3.5148,3.5213,3.5359,3.4543,3.4543,3.5082,3.3325,3.3255,3.4206,3.1901,3.1563,3.2506,3.1856,3.2087,3.2761,3.2232,3.2648,3.352,3.4182,3.4549,3.4698,3.4868,3.5001,3.5294,3.5539,3.6383,3.731,3.7806,3.8739,0.0,0.0,0.0,0.0,0.0,0.0,0.0,0.0,4.1498,4.178,4.2121,4.2346,4.2566,4.2763,4.2824,4.2975,4.3178,4.3305,4.3411,4.3548,4.3719,4.3804,4.3804,4.3929,4.4005,4.4005,4.4128,4.4079,4.3823,4.3962,4.3943,4.3689,4.3283,4.3051,4.2995,4.2534,4.2287,4.2287,4.2346,4.2346,4.2364,4.164,4.1202,4.0938,4.0286,3.9884,3.9677,3.9625,3.9625,3.9677,3.9625,3.9222,3.8701,3.9398,3.9677,3.9798,3.9729,3.9781,3.9901,0.0,0.0,0.0,0.0,0.0,0.0,0.0,0.0,0.0,3.6631,3.6079,3.5816,3.6148,3.6211,3.6414,3.6877,3.6476,3.6368,3.6676,3.5627,3.5059,3.5073,3.4624,3.4385,3.4414,3.4683,3.4883,3.4935,3.4935,3.4935,3.4935,3.4854,3.4854,3.4868,3.3143,3.2492,3.2464,3.0709,3.0075,3.0228,3.0771,3.1489,3.2232,3.2861,3.352,3.4264,3.4346,3.4549,3.4698,3.4868,3.5001,3.5344,3.607,3.6368,3.6768,3.8173,3.8799,3.9193,4.0204,4.068,4.0871,4.0871,4.1041,4.1209,0.0,4.1719,4.1977,4.2364,4.2526,4.2609,4.2783,4.2824,4.2975,4.3178,4.3196,4.3286,4.3479,4.3686,4.3804,4.3804,4.3929,4.4005,4.4005,4.3905,4.3855,4.3804,4.3735,4.352,4.3177,4.3087,4.2864,4.2566,4.2387,4.2287,4.2287,4.1959,4.1796,4.1796,4.1348,4.0874,4.0497,4.0417,4.0037,3.9501,3.9379,3.9432,3.9484,3.9379,3.9272,3.9202,3.9325,3.9432,3.9554,3.9677,3.9781,3.9901,0.0,0.0,0.0,0.0,0.0,0.0,0.0,0.0,0.0,0.0,3.6244,3.6205,3.5524,3.6006,3.6352,3.6274,3.5737,3.5593,3.5882,3.481,3.437,3.489,3.4317,3.402,3.4088,3.4278,3.4182,3.3934,3.4002,3.3919,3.3547,3.2975,3.2975,3.3325,3.1649,3.1281,3.1915,3.0254,3.0266,3.1294,3.1145,3.1869,3.3213,3.3493,3.3922,3.4414,3.4549,3.4683,0.0,3.5016,3.5213,3.5424,3.5797,3.643,3.7235,3.7962,3.8778,3.9627,4.032,4.0631,4.084,4.1041,4.1117,4.13,4.1675,4.1849,4.2019,4.2422,4.2548,4.2649,4.2783,4.2936,4.3031,4.3123,4.3233,4.3358,4.3479,4.3686,4.3771,4.3652,4.3716,4.3763,4.3763,4.3712,4.3526,4.3195,4.3195,4.3051,4.2786,4.2709,4.2667,4.2503,4.2061,4.1856,4.1856,4.1401,4.1174,4.1157,4.0767,4.0431,4.0153,3.9885,3.9556,3.9202,3.9148,3.8969,3.8662,3.8623,3.8157,3.7562,3.8026,3.7969,3.7838,3.9131,3.9694,3.9729,0.0,0.0,0.0,0.0,0.0,0.0,0.0,0.0,0.0,0.0,3.5987,3.5882,3.4883,3.5608,3.6006,3.5544,3.5008,3.481,3.5008,3.4113,3.3785,3.4423,3.4074,3.3827,3.3827,3.3716,3.3479,3.3087,3.3003,3.2692,3.2321,3.1609,3.1609,3.2033,3.0558,3.0508,3.1281,2.9947,3.0165,3.1489,3.1071,3.1882,3.3297,3.3521,3.3868,3.4346,3.4563,3.475,3.4935,3.5082,3.5294,3.5554,3.591,3.6723,3.7706,3.8165,3.9135,4.0104,4.0436,4.0648,4.0776,4.1117,4.1255,4.1391,4.1788,4.1977,4.2103,4.2387,4.2508,4.2649,4.2745,4.2899,4.3049,4.3104,4.3215,4.334,4.3428,4.3566,4.3652,4.3532,4.3548,4.3529,4.3442,4.3373,4.3178,4.2732,4.2729,4.2649,4.2445,4.2445,4.2445,4.2445,4.1959,4.1666,4.1472,4.0972,4.0642,4.0497,4.007,3.9817,3.9662,3.9345,3.9094,3.8969,3.8969,3.8733,3.8311,3.827,3.7738,3.6966,3.7605,3.7429,3.6951,3.8479,3.8974,3.8941,0.0,0.0,0.0,0.0,0.0,0.0,0.0,0.0,0.0,0.0,0.0,0.0,0.0,3.4993,3.527,3.4942,3.4409,3.4153,3.4153,3.3646,3.3326,3.3312,3.3536,3.3605,3.3605,3.3072,3.2704,3.2704,3.1928,3.1536,3.1536,3.1536,3.1536,3.1462,3.0683,3.033,3.0317,2.9431,2.9131,2.9287,3.0024,3.0846,3.1663,3.2403,3.3339,3.4128,3.4346,3.4601,3.4935,3.4935,3.5148,3.5748,3.6966,3.7488,3.7879,3.9259,3.9935,4.0355,4.06,4.0697,4.0776,4.1117,4.1408,4.1631,4.1831,4.2103,4.2287,4.2287,4.245,4.2609,4.2609,4.2786,4.2938,4.3067,4.3104,4.3123,4.3214,4.3375,4.3532,4.3497,4.3479,4.3375,4.3069,4.2864,4.2711,4.2711,4.2454,4.2328,4.2287,4.2287,4.2287,4.2287,4.2287,4.2044,4.1534,4.0908,4.0334,3.9834,3.9312,3.8969,3.886,3.8805,3.8805,3.8805,3.8805,3.8805,3.8805,3.8805,3.875,3.875,3.8914,3.8479,3.7764,3.7847,3.751,3.72,0.0,0.0,0.0,0.0,0.0,0.0,0.0,0.0,0.0,0.0,0.0,0.0,0.0,0.0,0.0,0.0,3.3644,3.352,3.3185,3.3227,3.3086,3.2547,3.2547,3.239,3.1796,3.1709,3.1402,3.0895,3.0745,3.0456,2.9935,2.9935,2.9935,2.9935,2.9651,2.9419,2.925,2.904,2.9106,2.9484,2.9781,3.0443,3.1415,3.2218,3.2818,3.3381,0.0,3.4534,3.4935,3.5067,3.5623,3.6275,3.6737,3.76,3.8635,3.9696,4.0138,4.0355,4.0534,4.0648,4.0776,4.1117,4.1255,4.1436,4.1788,4.1977,4.2103,4.2287,4.2427,4.2526,4.2526,4.2706,4.286,4.2899,4.303,4.3104,4.3123,4.3268,4.3196,4.2826,4.2957,4.2864,4.2315,4.2555,4.2634,4.2472,4.2351,4.2287,4.2287,4.2145,4.1899,4.1648,4.1248,4.0767,4.0218,3.9749,3.9401,3.9135,3.8717,3.8455,3.8343,3.8455,3.8399,3.8343,3.7937,3.7515,3.698,3.6676,3.6306,3.5882,3.6197,3.6009,3.5578,3.5706,3.5355,3.5065,0.0,0.0,0.0,0.0,0.0,0.0,0.0,0.0,0.0,0.0,0.0,0.0,0.0,0.0,0.0,0.0,0.0,3.3054,3.2489,3.2717,3.2704,3.2318,3.2015,3.1709,3.1341,3.0882,3.0443,2.9922,2.9704,2.9419,2.8895,2.8816,2.8816,2.8895,2.8749,2.8657,2.8566,2.8498,2.8724,2.916,2.916,2.9768,3.0732,3.1623,3.2362,0.0,3.3756,3.4399,3.4883,3.5016,3.5559,3.6212,3.6798,3.8019,3.9332,3.9679,4.002,4.0355,4.0485,4.0583,4.0776,4.1117,4.1209,4.1328,4.1788,4.1874,4.1977,4.2246,4.2405,4.2503,4.2503,4.2645,4.2783,4.2783,4.2936,4.3049,4.3049,4.3123,4.3032,4.2534,4.2613,4.2516,4.1941,4.2151,4.2292,4.2145,4.2163,4.2121,4.2037,4.1892,4.1657,4.1445,4.0879,4.0351,3.98,3.9348,3.8936,3.8567,3.8157,3.7985,3.796,3.7985,3.7927,3.7812,3.7488,3.6919,3.6259,3.5946,3.5449,3.4942,3.5204,3.5023,3.4587,3.4721,3.4452,3.4249,0.0,0.0,0.0,0.0,0.0,0.0,0.0,0.0,0.0,0.0,0.0,0.0,0.0,0.0,0.0,0.0,0.0,0.0,3.2136,3.2096,3.23,3.2618,3.1882,3.1576,3.1928,3.0443,2.9626,2.9626,2.8882,2.8431,2.8431,2.8259,2.8259,2.8431,2.8042,2.8042,2.8179,2.7962,2.8042,2.8179,2.8179,2.8779,2.9781,3.0807,3.1783,3.2775,3.377,3.4346,3.4698,3.4868,3.5067,3.5574,3.7175,3.8684,3.9781,3.9382,3.9747,4.0355,4.0485,4.0583,4.0793,4.1117,4.1163,4.13,4.1744,4.1874,4.1977,4.2228,4.2405,4.2503,4.2503,4.2645,4.2783,4.2783,4.2824,4.2882,4.2882,4.3012,4.2936,4.2609,4.2454,4.2257,4.1881,4.1719,4.1648,4.1831,4.1874,4.1805,4.1604,4.1507,4.149,4.1445,4.1041,4.0521,3.9968,3.9493,3.887,3.8042,3.7594,3.7492,3.7642,3.7492,3.7358,3.7358,3.7358,3.7027,3.6554,3.6477,3.6151,3.5743,3.5885,3.5484,3.481,3.4714,3.4543,3.4399,0.0,0.0,0.0,0.0,0.0,0.0,0.0,0.0,0.0,0.0,0.0,0.0,0.0,0.0,0.0,0.0,0.0,0.0,3.2386,3.257,3.2368,3.1394,3.0758,3.0228,2.9871,2.8882,2.8419,2.8554,2.8191,2.8042,2.8042,2.7962,2.7962,2.8042,2.7973,2.7962,2.7962,2.7881,2.7962,2.7962,2.8099,2.8327,2.8791,3.0367,3.1328,3.1988,3.3423,3.4157,3.4549,3.4802,3.5608,3.6707,3.8117,3.8941,3.9435,3.9747,4.007,4.0355,4.0485,4.0583,4.0745,4.0918,4.0965,4.1059,4.13,4.1525,4.1719,4.1977,4.2205,4.2346,4.2346,4.2508,4.2649,4.2649,4.2786,4.2882,4.2882,4.2938,4.2691,4.2008,4.2086,4.1917,4.1283,4.1255,4.13,4.1255,4.1498,4.1631,4.1604,4.0435,3.9671,3.9593,3.8437,3.7498,3.6906,3.7061,3.7112,3.7074,3.7089,3.7044,3.6968,3.7044,3.7029,3.6892,3.6631,3.6305,3.5849,3.4898,3.4432,3.423,3.3754,3.3422,3.3241,3.3381,3.3479,3.3591,0.0,0.0,0.0,0.0,0.0,0.0,0.0,0.0,0.0,0.0,0.0,0.0,0.0,0.0,0.0,0.0,0.0,0.0,0.0,3.2492,3.2048,3.1187,3.0228,2.9561,2.9106,2.8351,2.7962,2.8111,2.7962,2.7893,2.7893,2.7788,2.78,2.7893,2.7719,2.7638,2.7708,2.7638,2.7638,0.0,0.0,2.8099,2.8407,3.0279,3.118,3.1609,3.3339,3.4278,3.4668,3.4868,3.5961,3.7354,3.7557,3.8541,3.9575,3.9348,3.9799,4.0305,4.0387,4.0534,4.0697,4.0793,4.084,4.0965,4.1163,4.1318,4.1498,4.1831,4.2019,4.2145,4.2287,4.245,4.2609,4.2609,4.2786,4.2882,4.2882,4.2711,4.2378,4.1796,4.1666,4.1418,4.0836,4.0836,4.0836,4.0806,4.1134,4.1133,4.0665,3.9812,3.9024,3.8316,3.7269,3.6348,3.5554,3.5597,3.5814,3.6152,3.6107,3.6199,3.6414,3.6492,3.6336,3.5928,3.5737,3.5204,3.4447,3.3699,3.3297,3.303,3.2618,3.2417,3.2417,3.2561,3.2632,3.266,0.0,0.0,0.0,0.0,0.0,0.0,0.0,0.0,0.0,0.0,0.0,0.0,0.0,0.0,0.0,0.0,0.0,0.0,0.0,0.0,3.1876,3.1539,3.0209,2.9361,2.9113,2.8295,2.78,2.7881,2.78,2.7812,2.78,2.7534,2.7615,2.7812,2.7394,2.7301,2.7441,2.7301,2.7301,2.7522,2.7788,2.8042,2.8407,0.0,3.1106,3.1462,3.3395,3.4467,3.4868,3.4868,3.6072,3.7354,3.6445,3.779,3.9627,3.8684,3.9295,4.0305,4.0305,4.0453,4.0648,4.0648,4.0745,4.0918,4.1071,4.1163,4.1283,4.1701,4.1849,4.1934,4.2145,4.2409,4.253,4.253,4.2747,4.2844,4.2806,4.2458,4.2032,4.1604,4.1202,4.0849,4.0534,4.0485,4.0385,4.0349,4.0603,4.0375,3.9457,3.9217,3.8438,3.6969,3.6486,3.5808,3.498,3.4638,3.4793,3.5415,3.511,3.5321,3.5973,3.5973,3.5559,3.481,3.481,3.4109,3.2861,3.2777,3.2448,3.2042,3.1909,3.1909,3.1909,3.1909,3.1836,3.1763,0.0,0.0,0.0,0.0,0.0,0.0,0.0,0.0,0.0,0.0,3.4397,3.4397,0.0,0.0,0.0,0.0,0.0,0.0,0.0,0.0,0.0,3.169,3.0561,2.9702,2.9193,2.7999,2.7383,2.7603,2.7383,2.7313,2.7313,2.7313,2.7313,2.7313,2.7231,2.7231,2.7219,2.7231,2.7231,2.7301,2.7719,2.7881,2.8111,2.9471,0.0,0.0,3.3395,3.4332,3.475,3.4868,3.5429,3.6165,3.66,3.7499,3.8453,3.8903,3.9575,4.0188,4.0255,4.0355,4.0404,4.0485,4.0534,4.0631,4.0728,4.0901,4.1071,4.13,4.1498,4.1692,4.1736,4.1995,4.2187,4.2187,4.253,4.2688,4.231,4.2234,4.1888,4.1065,4.0896,4.0724,4.0387,4.0238,3.9983,3.9438,3.9484,3.9481,3.9392,3.7643,3.5811,3.4014,3.3561,3.3427,3.3697,3.3426,3.3817,3.4832,3.4971,3.5258,3.5752,3.5752,3.527,3.438,3.438,3.3808,3.282,3.2177,3.1829,3.1696,3.1009,3.0885,3.1198,3.1198,3.132,3.1516,0.0,0.0,0.0,0.0,0.0,0.0,0.0,3.4397,3.4397,3.4397,3.4397,3.4397,3.4397,3.4397,3.4397,0.0,0.0,0.0,0.0,0.0,0.0,0.0,0.0,0.0,2.8925,2.8029,2.7693,2.7764,0.0,2.7231,2.7231,2.7231,2.7231,2.7231,2.7231,2.7231,2.7231,2.7231,2.7231,2.7231,2.7545,2.7788,2.8042,0.0,0.0,0.0,3.3646,3.4293,3.4698,3.475,3.5067,3.5509,3.6117,3.7084,3.806,3.8469,3.9065,3.9696,4.007,4.0238,4.0305,4.0387,4.0436,4.0534,4.0583,4.0728,4.0901,4.1071,4.1255,4.1453,4.156,4.1849,4.2103,4.2103,4.245,4.2649,4.249,4.2068,4.1604,4.1185,4.0754,4.0353,4.0238,3.9782,3.9427,3.9137,3.8326,3.7725,3.7465,3.5462,3.3914,3.3018,3.2422,3.2201,3.2406,3.2206,3.2526,3.3302,3.3722,3.4244,3.4822,3.515,3.4824,3.4056,3.363,3.3003,3.2132,3.1341,3.0983,3.0983,3.057,3.052,3.0672,3.0672,3.0735,3.0722,0.0,0.0,0.0,0.0,0.0,0.0,0.0,3.4397,3.4397,3.4397,3.4397,3.4397,3.4397,3.4397,3.4397,0.0,0.0,0.0,0.0,0.0,0.0,0.0,0.0,0.0,2.8873,0.0,0.0,2.8138,2.7633,0.0,0.0,0.0,0.0,0.0,2.7231,2.7231,2.7231,2.7231,2.7231,0.0,0.0,2.7857,2.8339,0.0,0.0,0.0,0.0,3.4225,3.4631,3.4698,3.4898,3.5148,3.5509,3.6554,3.77,3.7774,3.843,3.9242,3.9747,4.0087,4.0238,4.0238,4.0337,4.0436,4.0436,4.0534,4.0697,4.0901,4.1024,4.118,4.1426,4.1719,4.1934,4.1934,4.2228,4.2432,4.2333,4.177,4.1265,4.1122,4.0466,4.002,4.002,3.9378,3.8822,3.867,3.6949,3.5743,3.5399,3.385,3.2879,3.268,3.1992,3.1552,3.1437,3.1278,3.1486,3.2001,3.2679,3.3343,3.3927,3.4361,3.407,3.3367,3.2533,3.1736,3.0921,3.0343,3.0139,3.0139,3.0139,3.0139,3.0139,3.0139,2.9985,2.9844,0.0,0.0,0.0,0.0,0.0,0.0,0.0,3.4397,3.4397,3.4397,3.4397,3.4397,3.4397,3.4397,3.4397,0.0,0.0,0.0,0.0,0.0,0.0,0.0,0.0,0.0,0.0,0.0,0.0,2.8632,2.8149,0.0,0.0,0.0,0.0,0.0,0.0,2.7231,2.7231,2.7231,0.0,0.0,0.0,0.0,0.0,0.0,0.0,0.0,0.0,3.4157,3.4481,3.4631,3.4698,3.4831,3.5148,3.5913,3.6783,3.71,3.8019,3.8978,3.9242,3.9696,4.0138,4.0138,4.0121,4.0188,4.0288,4.0355,4.0404,4.0697,4.0745,4.0793,4.0918,4.1134,4.1283,4.1283,4.1788,4.1831,4.0943,4.1001,4.0814,3.9952,3.9764,3.9729,3.9729,3.9076,3.8371,3.7684,3.5181,3.3899,3.4316,3.3834,3.313,3.2185,3.1751,3.1394,3.1132,3.1132,3.1442,3.2001,3.2679,3.3279,3.3718,3.3443,3.2861,3.1942,3.0908,3.0024,2.9353,2.9287,2.9209,2.9209,2.9209,2.9209,2.9209,2.9209,2.9209,2.9209,0.0,0.0,0.0,0.0,0.0,0.0,3.4397,3.4397,3.4397,3.4397,3.4397,3.4397,3.4397,3.4397,3.4397,3.4397,0.0,0.0,0.0,0.0,0.0,0.0,0.0,0.0,0.0,0.0,2.9183,2.9183,2.8666,0.0,0.0,0.0,0.0,0.0,0.0,2.7231,2.7231,2.7231,0.0,0.0,0.0,0.0,0.0,0.0,0.0,0.0,0.0,0.0,3.4414,3.4481,3.4683,3.4802,3.5001,3.5444,3.607,3.6631,3.7263,3.8019,3.8816,3.9279,3.9575,3.9575,3.985,4.002,3.9696,3.9969,4.0355,4.0453,4.0534,4.0631,4.0745,4.0948,4.1117,4.1209,4.1542,4.1569,4.0972,4.0832,4.0594,4.007,3.9799,3.951,3.9075,3.8372,3.7269,3.5663,3.4444,3.3531,3.2971,3.2501,3.2033,3.1495,3.1219,3.1058,3.0895,3.0821,3.0878,3.1006,3.1675,3.2202,3.2695,3.2698,3.2458,3.2046,3.097,3.0165,2.9549,2.8961,2.8816,2.8882,2.8882,2.8816,2.8736,2.8882,2.8816,2.8736,0.0,0.0,0.0,0.0,0.0,3.4397,3.4397,3.4397,3.4397,3.4397,3.4397,3.4397,3.4397,3.4397,3.4397,3.4397,3.423,0.0,0.0,0.0,0.0,0.0,0.0,0.0,0.0,0.0,2.9711,2.9711,2.9194,2.8941,0.0,0.0,2.8195,2.8184,0.0,0.0,0.0,0.0,0.0,0.0,0.0,0.0,0.0,0.0,0.0,0.0,0.0,0.0,0.0,0.0,0.0,3.4735,3.4868,3.5082,3.5474,3.615,3.6631,3.7219,3.8302,3.8668,3.8849,3.9011,3.9401,3.961,3.9242,3.9696,4.0238,4.0288,4.0387,4.0485,4.06,4.0776,4.0884,4.0977,4.1117,4.11,4.072,4.0449,4.017,3.9834,3.9391,3.8952,3.8384,3.7519,3.6224,3.4448,3.3903,3.3219,3.2281,3.148,3.1058,3.1014,3.0895,3.0762,3.0642,3.0568,3.0447,3.028,3.0788,3.129,3.1735,3.179,3.1815,3.1829,3.0594,2.9922,2.9537,2.8724,2.8431,2.8498,2.8498,2.8419,2.8351,2.8498,2.8419,2.8271,0.0,0.0,0.0,0.0,0.0,0.0,3.4397,3.4397,3.4397,3.4397,3.4397,3.4397,3.4397,3.4397,3.4397,3.4397,3.381,0.0,0.0,0.0,0.0,0.0,0.0,0.0,0.0,0.0,3.0204,3.0204,2.9722,2.9493,2.9481,2.8941,2.8689,2.8689,0.0,0.0,0.0,0.0,0.0,0.0,0.0,0.0,0.0,0.0,0.0,0.0,0.0,0.0,0.0,0.0,0.0,0.0,0.0,3.4935,3.4986,3.5559,3.615,3.6783,3.7573,3.7806,3.7978,3.858,3.8799,3.8908,3.8908,3.9542,4.0138,4.0288,4.0305,4.0337,4.0485,4.0517,4.0534,4.0534,4.0434,4.0269,3.9764,3.9627,3.9401,3.8898,3.8199,3.7843,3.7826,3.6462,3.5299,3.4546,3.3439,3.2718,3.2524,3.1291,3.0702,3.0821,3.0821,3.0642,3.0312,3.0312,3.0219,3.0125,3.0397,3.0746,3.1124,3.0596,3.0605,3.0859,2.9406,2.8803,2.8803,2.8191,2.7893,2.7893,2.7893,2.7893,2.7893,2.7893,2.7893,2.7893,0.0,0.0,0.0,0.0,0.0,0.0,0.0,3.4397,3.4397,3.4397,3.4397,3.4397,3.4397,3.4397,3.4397,3.4397,3.423,0.0,0.0,0.0,0.0,0.0,0.0,0.0,0.0,0.0,3.0487,3.0937,3.0784,3.0956,3.136,3.0917,3.0676,3.0664,3.0278,3.0109,0.0,0.0,0.0,0.0,0.0,0.0,3.5926,0.0,0.0,0.0,0.0,0.0,0.0,0.0,0.0,0.0,0.0,0.0,0.0,3.5474,3.5767,3.615,3.6798,3.7397,3.7879,3.8035,3.8778,3.9365,3.9011,3.947,3.9986,4.0138,4.0188,4.0188,4.0337,4.0337,4.0387,4.0485,4.0468,4.0204,3.9312,3.9487,3.9329,3.8455,3.7579,3.6967,3.6722,3.5421,3.4226,3.3387,3.261,3.2003,3.1507,3.0478,3.0083,3.0447,3.0341,3.0294,3.0158,2.9913,2.9713,2.9574,2.9442,2.9821,3.0637,3.0207,3.025,3.0607,2.9947,2.9263,2.8578,2.7903,2.7441,2.7138,2.6869,2.6633,2.6561,2.6704,2.6633,2.6561,0.0,0.0,0.0,0.0,0.0,0.0,0.0,3.4481,3.4397,3.4397,3.4397,3.4397,3.4397,3.4397,3.4397,3.4397,3.4397,0.0,0.0,0.0,0.0,0.0,0.0,0.0,0.0,3.0487,3.0847,3.1306,3.1548,3.1889,3.2302,3.1982,3.1835,3.181,3.1538,3.1378,0.0,0.0,0.0,0.0,0.0,0.0,3.6978,0.0,0.0,0.0,0.0,0.0,0.0,0.0,0.0,0.0,0.0,0.0,0.0,0.0,3.5474,3.5816,3.6692,3.71,3.7413,3.7879,3.8629,3.9152,3.8865,3.9329,3.9833,3.9986,4.0037,4.0087,4.0188,4.0238,4.0188,4.0054,3.9901,3.9575,3.8701,3.8717,3.8411,3.7222,3.6571,3.5921,3.5198,3.431,3.3523,3.2803,3.2185,3.1564,3.0999,3.0054,2.9637,2.9931,2.9775,2.9665,2.9588,2.9401,2.9198,2.9008,2.8688,2.9131,3.0158,2.9684,2.9948,3.0709,3.0037,2.9341,0.0,2.773,2.7092,2.6704,2.629,2.6052,2.5895,2.6052,2.6052,2.5906,0.0,0.0,0.0,0.0,0.0,0.0,0.0,3.4743,3.4481,3.4481,3.4481,3.4481,3.4481,3.4481,3.4397,3.4397,0.0,0.0,0.0,0.0,0.0,0.0,0.0,0.0,3.0397,3.1026,3.1395,3.1484,3.2064,3.2389,3.2476,3.2476,3.2476,3.2476,3.2476,3.2476,0.0,0.0,0.0,0.0,0.0,0.0,0.0,0.0,0.0,0.0,0.0,0.0,0.0,0.0,0.0,0.0,0.0,0.0,0.0,0.0,0.0,0.0,0.0,3.6966,3.6784,3.7994,3.8446,3.8574,3.8574,3.9152,0.0,3.9849,3.9901,3.9935,4.0037,4.002,3.9799,3.9259,3.8952,3.8511,3.7943,3.7594,3.6868,3.5616,3.5426,3.4857,3.3514,3.3272,3.3011,3.2547,3.1905,3.1392,3.0911,2.9842,2.9233,2.9233,2.9085,2.8894,2.8803,2.8739,2.8688,2.8522,2.821,2.8625,2.9684,2.9216,2.9697,3.0911,2.9883,2.9341,2.9003,2.7742,2.6928,2.6445,2.5968,2.5812,2.5812,2.5812,2.5812,2.5728,0.0,0.0,0.0,0.0,0.0,0.0,0.0,0.0,0.0,0.0,3.5223,3.5304,3.499,3.4908,3.4825,0.0,0.0,0.0,0.0,0.0,0.0,0.0,0.0,0.0,3.1789,3.1965,3.2326,3.2871,3.3043,3.3373,3.3882,3.3882,3.3882,3.3882,3.3882,3.4134,0.0,0.0,0.0,0.0,0.0,0.0,0.0,0.0,0.0,0.0,3.6065,3.5784,0.0,0.0,0.0,0.0,0.0,0.0,0.0,0.0,3.5589,3.6258,3.7131,0.0,3.737,3.8108,3.8717,3.9131,0.0,3.9432,3.959,3.9729,3.9729,3.9781,3.9781,3.9401,3.9049,3.9028,3.8557,3.8035,3.7578,3.727,3.6836,3.6248,3.5695,3.4991,3.3889,3.2912,3.2256,3.1951,3.0881,3.0222,3.0101,2.9008,2.8392,2.8392,2.7921,2.7987,2.8651,2.8392,2.8197,2.7987,2.7669,2.8001,2.8977,2.8846,2.9452,3.052,3.0279,2.9806,2.925,2.7959,2.708,2.6362,2.5295,2.4796,2.4796,2.4796,2.4796,2.4796,0.0,0.0,0.0,0.0,0.0,0.0,0.0,0.0,0.0,0.0,0.0,0.0,0.0,0.0,0.0,0.0,0.0,0.0,0.0,0.0,0.0,0.0,0.0,3.1977,3.2302,3.2673,3.3031,3.3398,3.3725,3.4063,3.4397,3.4397,3.4397,3.4397,3.466,3.5072,0.0,0.0,0.0,0.0,3.6693,0.0,0.0,0.0,0.0,0.0,3.6182,3.5942,0.0,3.4766,3.4414,3.4414,0.0,0.0,0.0,0.0,3.5752,3.6305,3.7326,3.7722,3.7953,3.859,3.9023,3.9325,3.9379,3.9395,3.9432,3.959,3.959,3.9642,3.9677,3.9172,3.8652,3.8446,3.7962,3.7397,3.6921,3.6383,3.589,3.5474,3.4789,3.4063,3.3197,3.2557,3.1807,3.1116,3.0404,2.9794,2.9261,2.8522,2.8079,2.8079,2.7616,2.7536,2.8,2.7749,2.7549,2.7403,2.7268,2.767,2.869,2.863,2.9231,3.0368,3.0228,2.9831,2.9197,2.8211,2.7162,2.6113,2.52,2.4529,2.4186,2.4186,2.4186,2.4196,0.0,0.0,0.0,0.0,0.0,0.0,0.0,0.0,0.0,0.0,0.0,0.0,0.0,0.0,0.0,0.0,0.0,0.0,0.0,0.0,0.0,0.0,3.2575,3.2488,3.2649,3.3202,3.3556,3.3556,3.4147,3.4397,3.4397,3.4397,3.4397,3.4564,3.499,3.5656,0.0,0.0,0.0,0.0,3.6978,0.0,0.0,0.0,0.0,0.0,0.0,0.0,0.0,3.4882,3.4486,3.4414,3.4414,0.0,0.0,0.0,0.0,0.0,3.7445,3.8026,3.8423,3.9094,3.9272,3.9272,3.9272,3.9272,3.9325,3.9448,3.9448,3.9484,3.9504,3.8957,3.8302,3.7764,3.7235,3.6784,3.6258,3.5506,3.479,3.4225,3.3612,3.2883,3.2068,3.1951,3.1407,3.0269,3.0025,2.9546,2.8522,2.8131,2.7947,2.7947,2.7469,2.7201,2.7201,2.7079,2.6943,2.6943,2.7033,2.7621,2.8558,2.8502,2.9098,3.0216,2.9856,2.9468,2.9052,2.8303,2.7244,2.5935,2.5443,2.4605,2.3841,2.3754,2.3754,2.3754,0.0,0.0,0.0,0.0,0.0,0.0,0.0,0.0,0.0,0.0,0.0,0.0,0.0,0.0,0.0,0.0,0.0,0.0,0.0,0.0,0.0,3.4647,3.3725,3.3471,3.405,3.423,3.423,3.423,3.4314,3.4397,3.4397,3.4397,3.4564,3.499,3.5399,3.5884,3.6405,0.0,0.0,0.0,3.6978,0.0,0.0,0.0,0.0,0.0,0.0,0.0,0.0,3.5389,3.4864,3.4414,3.4414,0.0,0.0,0.0,0.0,0.0,3.6951,3.7562,3.827,3.8914,3.904,3.9094,3.9272,3.9272,3.9325,3.9325,3.9325,3.9148,3.8645,3.7994,3.7413,3.6966,3.6507,3.6148,3.6037,3.5459,3.4729,3.4121,3.3452,3.2521,3.1278,3.0807,3.0269,2.9484,2.8817,2.8314,2.7921,2.759,2.7335,2.7146,2.693,2.6782,2.6782,2.6943,2.6943,2.6726,2.729,2.765,2.7927,2.8363,2.8835,2.9287,2.9209,2.9131,2.9052,2.8223,2.7313,2.6318,2.5516,2.4605,2.3754,2.359,2.359,2.3503,0.0,0.0,0.0,0.0,0.0,0.0,0.0,0.0,0.0,0.0,0.0,0.0,0.0,0.0,0.0,0.0,0.0,0.0,0.0,0.0,3.5318,3.5086,3.4812,3.4564,3.4397,3.4397,3.4397,3.4397,3.4397,3.4397,3.4397,3.466,3.5154,3.5817,3.5978,3.6298,3.6693,3.6693,3.6836,0.0,0.0,0.0,0.0,0.0,0.0,0.0,0.0,0.0,0.0,0.0,3.4936,3.4414,3.4414,0.0,0.0,0.0,0.0,0.0,3.7027,3.7695,3.8375,3.8711,3.8455,3.8141,3.8254,3.8254,3.8367,3.8717,3.8772,3.8662,3.8351,3.7822,3.7131,3.629,3.5894,3.5733,3.5831,3.4891,3.4075,3.388,3.2957,3.197,3.097,3.0615,2.995,2.8853,2.8287,2.7842,2.7403,2.7214,2.7079,2.7024,2.6794,2.6714,2.6714,2.6602,2.6602,2.6602,2.703,2.7451,2.7779,2.8225,2.8691,2.9131,2.9131,2.9052,2.8882,2.8474,2.7395,2.5902,2.5505,2.4413,2.3047,2.2969,2.2882,2.2882,0.0,0.0,0.0,0.0,0.0,0.0,0.0,0.0,0.0,0.0,0.0,0.0,0.0,0.0,0.0,0.0,0.0,0.0,0.0,0.0,3.5737,3.5413,3.5562,3.5304,3.4564,3.4647,3.4647,3.4564,3.4564,3.4564,3.4564,3.499,3.5656,3.6405,3.647,3.6772,3.7211,3.7211,3.7289,0.0,0.0,0.0,0.0,0.0,0.0,0.0,0.0,0.0,0.0,0.0,0.0,0.0,0.0,0.0,0.0,3.5219,3.5882,3.6569,3.7222,3.7786,3.8278,3.8335,3.8001,3.7679,3.7546,3.7546,3.7605,3.7994,3.8051,3.7994,3.7822,3.7294,3.6585,3.5752,3.5539,3.5554,3.5638,3.4385,3.3546,3.3653,3.2509,3.1409,3.0584,3.0315,2.9628,2.8157,2.7881,2.7497,2.6943,2.6943,2.6943,2.6875,2.6726,2.6658,2.6589,2.6339,2.6332,2.6596,2.6946,2.7347,2.7891,2.827,2.8582,2.8973,2.8973,2.8895,2.8724,2.8724,2.7476,2.5579,2.5495,2.4221,2.2353,2.2353,2.2264,2.2264,0.0,0.0,0.0,0.0,0.0,0.0,0.0,0.0,0.0,0.0,0.0,0.0,0.0,0.0,0.0,0.0,0.0,0.0,0.0,0.0,3.6325,3.6325,3.5898,3.548,3.5072,3.5399,3.5399,3.5072,3.5072,3.5072,3.5072,3.548,3.5884,3.6405,3.6758,3.7289,3.781,3.781,3.8188,3.8634,3.8634,0.0,0.0,0.0,0.0,0.0,0.0,0.0,0.0,0.0,0.0,0.0,0.0,0.0,3.4534,3.5219,3.5882,3.6569,3.7222,3.7551,3.7759,3.7759,3.8164,3.8432,3.8116,3.7911,3.7706,3.7546,3.7294,3.7011,3.643,3.5831,3.5329,3.5279,3.5359,3.5504,3.5504,3.4337,3.3484,3.3484,3.2332,3.1029,2.969,2.947,2.8853,2.7469,2.7214,2.6943,2.6726,2.6726,2.6658,2.6533,2.6521,2.6396,2.627,2.6213,2.6462,2.6971,2.7286,2.7667,2.8041,2.8499,2.8688,2.851,2.851,2.851,2.851,2.851,2.7418,2.5746,2.5568,2.4135,2.2097,2.2097,2.2008,2.182,0.0,0.0,0.0,0.0,0.0,0.0,0.0,0.0,0.0,0.0,0.0,0.0,0.0,0.0,0.0,0.0,0.0,0.0,0.0,3.6836,3.6693,3.6405,3.6443,3.6284,3.5898,3.5804,3.5642,3.548,3.548,3.548,3.548,3.5898,3.6522,3.7366,3.7519,3.7886,3.8486,3.8486,3.856,3.8855,3.9045,3.9103,0.0,0.0,0.0,0.0,0.0,0.0,0.0,0.0,3.6793,3.54,3.54,3.5219,3.5088,3.5335,3.615,3.7087,3.7342,3.7476,3.761,3.8049,3.7976,3.7653,3.689,3.6692,3.6569,3.6523,3.6399,3.6275,3.6054,3.5574,3.5148,3.5001,3.5294,3.5439,3.5359,3.449,3.3824,3.3436,3.2466,3.111,2.9359,2.9093,2.8417,2.7053,2.6807,2.6671,2.6589,2.6589,2.6521,2.6533,2.6396,2.627,2.6213,2.6313,2.66,2.714,2.7262,2.7553,2.8013,2.8403,2.8578,2.851,2.851,2.8087,2.7406,2.7406,2.6224,2.42,2.3434,2.2589,2.183,2.183,2.183,2.1731,0.0,0.0,0.0,0.0,0.0,0.0,0.0,0.0,0.0,0.0,0.0,0.0,0.0,0.0,0.0,0.0,0.0,0.0,3.6978,3.6978,3.6915,3.6615,3.6836,3.6836,3.6628,3.6284,3.6031,3.5884,3.5804,3.5804,3.5965,3.6429,3.7134,3.7886,3.8113,3.8486,3.9075,3.9075,3.9292,3.9565,3.9763,3.996,0.0,0.0,0.0,0.0,0.0,0.0,0.0,0.0,3.7379,3.577,3.5961,3.5706,3.5464,3.5913,3.6523,3.7147,3.7342,3.7417,3.7476,3.7711,3.7594,3.7103,3.5976,3.5913,3.5976,3.5672,3.5544,3.5494,3.5494,3.5264,3.5016,3.4883,3.5082,3.5294,3.5148,3.4569,3.3917,3.328,3.2505,3.1188,2.9198,2.8903,2.8222,2.6782,2.6521,2.6396,2.6396,2.6327,2.6327,2.6327,2.6362,2.6321,2.6239,2.6541,2.6931,2.7391,2.7391,2.7593,2.8035,2.8263,2.8283,2.8283,2.8283,2.7672,2.673,2.673,2.5378,2.326,2.2255,2.1731,2.1741,2.1741,2.1651,2.1651,0.0,0.0,0.0,0.0,0.0,0.0,0.0,0.0,0.0,0.0,0.0,0.0,0.0,0.0,0.0,0.0,0.0,0.0,3.6978,3.6978,3.6978,3.6978,3.6978,3.6978,3.6978,3.6978,3.6836,3.6405,3.5965,3.5978,3.6391,3.6922,3.7462,3.7962,3.856,3.9162,3.9681,3.9681,4.0246,4.1138,4.1138,4.1039,4.1008,0.0,0.0,0.0,0.0,0.0,0.0,0.0,3.8075,3.6523,3.7222,3.6477,3.5642,3.7042,3.6951,3.6569,3.7222,3.7417,3.7222,3.6569,3.689,3.7027,3.5706,3.5897,3.615,3.5103,3.4817,3.4698,3.4698,3.4698,3.4698,3.4698,3.4817,3.4935,3.4935,3.4375,3.3741,3.3092,3.2382,3.1203,2.9198,2.8839,2.8222,2.6782,2.6396,2.6213,2.6213,2.5992,2.5923,2.5923,2.6439,2.6649,2.6408,2.6943,2.7339,2.7717,2.7729,2.7837,2.8179,2.7962,2.7893,2.7893,2.7893,2.736,2.6472,2.6472,2.521,2.326,2.2432,2.1919,2.1741,2.1741,2.1571,2.1392,0.0,0.0,0.0,0.0,0.0,0.0,0.0,0.0,0.0,0.0,0.0,0.0,0.0,0.0,0.0,0.0,0.0,0.0,3.6978,3.6978,3.6978,3.6978,3.6978,3.6978,3.6978,3.7443,3.7211,3.6405,3.6978,3.7183,3.7,3.7933,3.862,3.9162,3.9379,3.9737,4.0246,4.0246,4.0593,4.1138,4.1323,4.1573,4.1835,0.0,0.0,0.0,0.0,0.0,0.0,0.0,0.0,0.0,3.75,3.7103,3.6906,3.7282,3.7594,3.7828,3.8033,3.7401,3.6768,3.7027,3.6523,3.5897,3.5464,3.5897,3.6197,3.54,3.4854,3.4481,3.4481,3.4631,3.4631,3.4481,3.4735,3.4868,3.475,3.4603,3.4076,3.2867,3.2425,3.1264,2.8759,2.8478,2.7861,2.6421,2.627,2.6131,2.5992,2.6267,2.6476,2.6476,2.6846,2.7041,2.6967,2.7363,2.756,2.7484,2.7707,2.7968,2.8179,2.8099,2.803,2.7893,2.7893,2.6928,2.521,2.377,2.2755,2.2157,2.1909,2.1651,2.1482,2.1482,2.1293,2.1096,0.0,0.0,0.0,0.0,0.0,0.0,0.0,0.0,0.0,0.0,0.0,0.0,0.0,0.0,0.0,0.0,0.0,0.0,0.0,3.7211,3.7366,3.7366,3.7366,3.7366,3.7366,3.7962,3.7962,3.7366,3.7962,3.8098,3.7829,3.8767,3.9379,3.9681,3.9895,4.0316,4.073,4.073,4.1055,4.1522,4.172,4.198,4.2302,0.0,0.0,0.0,0.0,0.0,0.0,0.0,0.0,0.0,3.8285,3.7698,3.7087,3.7342,3.7282,3.7207,3.7207,3.6646,3.6024,3.615,3.5785,3.54,3.54,3.5529,3.5514,3.5088,3.4654,3.4414,3.4414,3.4481,3.4549,3.4414,3.4549,3.4668,3.4616,3.4563,3.41,3.2656,3.2368,3.1295,2.8765,2.8534,2.8055,2.6788,2.6705,2.6621,2.6406,2.6639,2.6749,2.6749,2.7172,2.7388,2.7388,2.7842,2.7951,2.7703,2.7956,2.803,2.7926,2.7857,2.7708,2.7557,2.6869,2.5841,2.4553,2.2422,2.1562,2.1562,2.1463,2.1374,2.1203,2.1203,2.1105,2.0916,0.0,0.0,0.0,0.0,0.0,0.0,0.0,0.0,0.0,0.0,0.0,0.0,0.0,0.0,0.0,0.0,0.0,0.0,0.0,0.0,3.8023,3.8098,3.8098,3.8098,3.8098,3.862,3.8929,3.8929,3.8929,3.8855,3.8929,3.9451,3.9753,3.9824,4.0316,4.073,4.1138,4.1122,4.1522,4.2109,4.2109,4.2302,4.2634,4.2634,0.0,0.0,0.0,0.0,0.0,0.0,0.0,0.0,3.9333,3.8138,3.6723,3.7298,3.6523,3.5529,3.5593,3.5514,3.527,3.4654,3.4905,3.5335,3.5335,3.4839,3.4414,3.4481,3.4467,3.4414,3.4414,3.4414,3.4414,3.4414,3.4414,3.4414,3.4414,3.4414,3.383,3.2386,3.2248,3.1308,2.8983,2.8918,2.8618,2.752,2.7446,2.736,2.7198,2.7046,2.7007,2.7007,2.7512,2.7711,2.7711,2.8191,2.8339,2.8179,2.8179,2.7926,2.7441,2.7301,2.7231,2.7056,2.5263,2.4498,2.4327,2.2255,2.1401,2.1392,2.1096,2.0997,2.0997,2.0997,2.0817,2.0564,0.0,0.0,0.0,0.0,0.0,0.0,0.0,0.0,0.0,0.0,0.0,0.0,0.0,0.0,0.0,0.0,0.0,0.0,0.0,0.0,3.8796,3.9346,3.9418,3.9418,3.9418,3.9748,3.9935,3.9935,3.9666,3.9538,3.9538,4.0106,4.0316,4.0316,4.0799,4.1003,4.1138,4.139,4.172,4.2109,4.2109,4.2302,4.2634,4.2634,4.2634,0.0,0.0,0.0,0.0,0.0,0.0,0.0,3.9816,3.8862,3.8067,3.8136,3.7207,3.6322,3.6845,3.6212,3.5335,3.5204,3.4905,3.4601,3.4601,3.4467,3.4534,3.5088,3.4787,3.4414,3.4414,3.4414,3.4414,3.4414,3.4414,3.4414,3.4414,3.4264,3.3561,3.2126,3.1753,3.0784,2.8637,2.8437,2.8113,2.731,2.7285,2.7211,2.701,2.732,2.7548,2.7548,2.7908,2.8092,2.8092,2.8063,2.7869,2.7684,2.7684,2.7522,2.7301,2.7371,2.7371,2.7056,2.5263,2.4498,2.4327,2.2432,2.1571,2.1392,2.1302,2.1114,2.0736,2.0736,2.0374,1.9828,0.0,0.0,0.0,0.0,0.0,0.0,0.0,0.0,0.0,0.0,0.0,0.0,0.0,0.0,0.0,0.0,0.0,0.0,0.0,0.0,3.9844,4.0178,4.0485,4.0554,4.0263,4.0668,4.0768,4.0631,4.0439,4.0246,4.0106,4.0385,4.0593,4.0799,4.1003,4.1256,4.1588,4.1785,4.2045,4.2365,4.2365,4.2429,4.2634,4.2634,4.2634,4.2634,4.2634,0.0,0.0,0.0,0.0,0.0,0.0,0.0,3.8518,3.8467,3.7474,3.6384,3.6399,3.5961,3.5335,3.5037,3.4654,3.4414,3.4414,3.4414,3.4467,3.4839,3.4654,3.4414,3.4414,3.4414,3.4414,3.4414,3.4414,3.4414,3.4414,3.3908,3.3101,3.1942,3.1281,3.0277,2.8725,2.8635,2.8435,2.7847,2.7888,2.79,2.7693,2.7945,2.8102,2.8102,2.8195,2.8179,2.8179,2.8042,2.7788,2.7522,2.7522,2.7371,2.7231,2.7301,2.7033,2.6445,2.4999,2.4049,2.3531,2.1891,2.1195,2.1024,2.0934,2.0744,2.0473,2.0473,2.0292,1.992,0.0,0.0,0.0,0.0,0.0,0.0,0.0,0.0,0.0,0.0,0.0,0.0,0.0,0.0,0.0,0.0,0.0,0.0,0.0,0.0,0.0,4.1028,4.1491,4.1557,4.1028,4.1491,4.1522,4.1256,4.1189,4.1003,4.0662,4.0662,4.0799,4.1138,4.1189,4.1588,4.2109,4.2174,4.2381,4.2634,4.2634,4.2634,4.2634,4.2634,4.2634,4.2634,4.2634,4.2634,4.2634,4.2634,0.0,0.0,0.0,0.0,3.8679,3.869,3.7559,3.6259,3.5706,3.54,3.5088,3.4534,3.4346,3.4346,3.4346,3.4278,3.4278,3.4278,3.4346,3.4346,3.4346,3.4346,3.4278,3.4278,3.4278,3.4278,3.4278,3.3465,3.2506,3.1796,3.0833,2.9781,2.8882,2.8895,2.8895,2.851,2.8657,2.8645,2.851,2.851,2.851,2.8431,2.8259,2.8099,2.8099,2.7881,2.7626,2.7441,2.7441,2.729,2.6974,2.688,2.6528,2.5735,2.4553,2.3607,2.2561,2.1257,2.0744,2.0654,2.0473,2.0382,2.0292,2.0201,2.011,2.0019,0.0,0.0,0.0,0.0,0.0,0.0,0.0,0.0,0.0,0.0,3.7991,0.0,0.0,0.0,0.0,0.0,0.0,0.0,4.1028,0.0,0.0,4.2349,4.2429,4.2429,4.2349,4.2174,4.2045,4.198,4.1654,4.1522,4.1456,4.1138,4.107,4.1138,4.172,4.2045,4.2109,4.2445,4.2571,4.2634,4.2634,4.2634,4.2634,4.2634,4.2634,4.2634,4.2634,4.2634,4.2634,4.2634,4.2569,0.0,0.0,0.0,3.9342,3.9387,3.7938,3.6384,3.6322,3.54,3.4467,3.4196,3.4128,3.4142,3.402,3.3965,3.3965,3.3965,3.4074,3.4128,3.4128,3.4074,3.3965,3.3965,3.3965,3.3965,3.3965,3.3115,3.2146,3.1402,3.0367,2.9484,2.8578,2.8578,2.859,2.851,2.851,2.851,2.851,2.851,2.8431,2.8259,2.803,2.7788,2.7603,2.7383,2.7313,2.7219,2.7219,2.6787,2.5997,2.583,2.5746,2.5735,2.4553,2.3607,2.2648,2.1427,2.0826,2.0744,2.0654,2.0473,2.0292,1.9828,1.9371,1.892,0.0,0.0,0.0,0.0,0.0,0.0,0.0,0.0,0.0,0.0,0.0,3.8089,0.0,0.0,0.0,3.9297,3.9741,4.0587,4.2045,4.2429,4.2634,4.2634,4.2634,4.2634,4.2634,4.2445,4.2302,4.2109,4.198,4.1785,4.1588,4.1654,4.1654,4.1654,4.198,4.2174,4.2365,4.2571,4.2634,4.2634,4.2634,4.2634,4.2634,4.2634,4.2634,4.2634,4.2634,4.2634,4.2634,4.2634,4.2634,4.2585,4.2261,0.0,0.0,0.0,3.9157,3.7891,3.66,3.519,3.4088,3.402,3.402,3.3951,3.3882,3.3896,3.3896,3.3896,3.3882,3.3868,3.3951,3.3951,3.3896,3.3896,3.3896,3.3896,3.3896,3.2676,3.1623,3.1254,2.9922,2.8882,2.851,2.851,2.851,2.851,2.851,2.851,2.851,2.8419,2.8259,2.8179,2.7857,2.7615,2.7522,2.7301,2.7231,2.7231,2.6704,2.6434,2.6528,2.5684,2.5168,2.4808,2.3511,2.2394,2.1516,2.0907,2.0555,2.0473,2.0473,2.0382,2.0201,1.9737,1.9455,1.9096,0.0,0.0,0.0,0.0,0.0,0.0,0.0,0.0,0.0,0.0,0.0,0.0,0.0,0.0,0.0,0.0,4.0081,4.1151,4.2585,4.2634,4.2634,4.2634,4.2634,4.2634,4.2634,4.2634,4.2508,4.2238,4.2238,4.2109,4.1851,4.2109,4.2238,4.2238,4.2238,4.2381,4.2618,4.2439,4.2359,4.2359,4.2359,4.2359,4.2375,4.2569,4.2634,4.2634,4.2634,4.2634,4.2634,4.2634,4.2634,4.2634,4.2634,4.2148,0.0,0.0,0.0,3.8439,3.6492,3.5073,3.4034,3.3896,3.3827,3.3827,3.3744,3.3744,3.3744,3.3744,3.3605,3.3536,3.3744,3.3744,3.3744,3.3744,3.3744,3.3675,3.3437,3.2074,3.1031,3.0807,2.9471,2.851,2.851,2.851,2.851,2.851,2.851,2.851,2.851,2.8339,2.8179,2.8099,2.7684,2.7522,2.7441,2.7301,2.6974,2.6539,2.6268,2.6185,2.6113,2.5263,2.4402,2.3607,2.2648,2.1695,2.0654,2.0382,2.0292,2.0292,2.0292,2.0201,2.0102,1.9554,1.9271,1.9096,0.0,0.0,0.0,0.0,0.0,0.0,0.0,0.0,0.0,0.0,0.0,0.0,3.7345,3.7901,3.8577,3.9361,4.0151,4.1309,4.2789,4.2696,4.2634,4.2634,4.2634,0.0,4.2634,4.2634,4.2571,4.2571,4.2571,4.2571,4.2571,4.2571,4.2571,4.2571,4.2571,4.2571,4.2585,4.1905,4.163,4.163,4.163,4.163,4.1695,4.2375,4.2634,4.2634,4.2634,4.2634,4.2634,4.2634,4.2634,4.2634,4.2634,4.2148,4.1436,0.0,0.0,0.0,3.5882,3.5154,3.4496,3.3813,3.3605,3.3536,3.3396,3.3326,3.3326,3.3326,3.3326,3.3326,3.3326,3.3326,3.3326,3.3326,3.3326,3.3086,3.2304,3.1489,3.067,2.9845,2.9028,2.851,2.851,2.851,2.851,2.851,2.851,2.851,2.851,2.8339,2.8111,2.7881,2.7615,2.7452,2.7231,2.7231,2.6373,2.4669,2.6373,2.5768,2.3357,2.3674,2.3337,2.2482,2.2921,2.2138,2.0654,2.0382,2.0292,2.0292,2.0292,2.0011,1.9554,1.9004,1.855,1.8079,0.0,0.0,0.0,0.0,0.0,0.0,0.0,0.0,0.0,0.0,0.0,0.0,0.0,3.8217,3.89,3.9677,4.0836,4.1752,4.2272,4.2623,4.2759,4.2759,4.2696,4.2634,4.2634,4.2634,4.2634,4.2634,4.2634,4.2634,4.2634,4.2634,4.2391,4.1954,4.1954,4.1954,4.1905,4.1193,4.0869,4.0917,4.1387,4.1565,4.1646,4.2359,4.2634,4.2569,4.2116,4.2245,4.2553,4.2099,4.2245,4.2634,4.2634,4.2148,4.1338,3.9935,3.8188,3.6508,3.5706,3.4876,3.4182,3.3591,3.3396,3.3396,3.3326,3.3326,3.3326,3.3326,3.3326,3.3326,3.3326,3.3326,3.3326,3.3326,3.286,3.239,3.216,3.0957,2.9999,2.9704,2.8961,2.851,2.851,2.851,2.8431,2.8339,2.8339,2.8259,2.8122,2.7857,2.7684,2.7615,2.7452,2.7301,2.7231,2.7231,2.6539,2.5326,2.5421,2.4829,2.3704,2.3018,2.2492,2.2129,2.205,2.1436,2.0473,2.0382,2.011,1.9828,1.9828,1.9554,1.9004,1.855,1.8272,1.7994,0.0,0.0,0.0,0.0,0.0,0.0,0.0,0.0,0.0,3.7452,0.0,0.0,0.0,0.0,3.91,3.9893,4.0754,4.1508,4.2058,4.243,4.27,4.2883,4.2759,4.2696,4.2634,4.2634,4.2634,4.2634,4.2634,4.2634,4.2634,4.2391,4.2019,4.1549,4.1079,4.0998,4.116,4.0448,4.0156,4.0189,4.0675,4.0869,4.0982,4.1921,4.2278,4.2213,4.1743,4.1873,4.2164,4.1452,4.1517,4.1954,4.2197,4.1792,4.0845,3.9113,3.762,3.6368,3.524,3.4543,3.3948,3.3437,3.3326,3.3326,3.3326,3.3326,3.3326,3.3326,3.3326,3.3326,3.3326,3.3326,3.3326,3.3326,3.2618,3.2015,3.1709,3.0519,2.9626,2.9328,2.8803,2.851,2.851,2.851,2.8431,2.8259,2.8179,2.8111,2.7893,2.7615,2.7441,2.7371,2.7301,2.7231,2.7231,2.7231,2.6622,2.5326,2.4988,2.4231,2.3193,2.2422,2.1891,2.1516,2.1177,2.0736,2.0292,2.0292,2.0011,1.9637,1.9637,1.9188,1.855,1.8179,1.7994,1.78,0.0,0.0,0.0,0.0,0.0,0.0,0.0,0.0,3.7573,3.6964,0.0,0.0,0.0,0.0,0.0,4.0028,3.9999,4.0566,4.2169,4.2075,4.2283,4.2834,4.2883,4.2837,4.2634,4.2634,4.2634,4.2634,4.2634,4.2618,4.2585,4.1889,4.1549,4.1452,4.0092,3.9833,4.0383,3.9719,3.9444,3.946,3.9476,3.9476,3.968,4.1075,4.1594,4.1594,4.1578,4.1517,4.1436,4.0707,4.048,4.061,4.129,4.1031,4.0123,3.8185,3.7126,3.6229,0.0,0.0,0.0,3.3437,3.3326,3.3326,3.3326,3.3326,3.3326,3.3326,3.3326,3.3326,3.3326,3.3255,3.3241,3.3241,3.2618,3.1783,3.1044,3.0228,2.9406,2.8578,2.851,2.851,2.851,2.851,2.8419,2.8179,2.8167,2.8099,2.7881,2.7615,2.7371,2.7231,2.7231,2.7231,2.7231,2.7231,2.629,2.4498,2.5158,2.4039,2.1392,2.1793,2.1516,2.0654,2.0382,2.0292,2.0292,2.0292,2.0011,1.9546,1.9546,1.9004,1.8087,1.8087,1.7707,1.7326,0.0,0.0,0.0,0.0,0.0,3.6585,3.7515,3.7937,3.8294,0.0,0.0,0.0,3.8914,3.904,3.923,3.9499,3.9957,4.0436,4.0905,4.1725,4.2282,4.2436,4.2745,4.2899,4.2837,4.2696,4.2634,4.2634,4.2634,4.2359,4.1857,4.1662,4.1031,4.0043,3.9654,3.9356,3.9129,3.895,3.8869,3.8918,3.9438,3.9691,3.9887,4.0626,4.0967,4.0902,4.0414,4.0485,4.0691,3.9994,4.0092,4.0432,4.0156,3.9914,3.9414,3.748,3.6754,3.6229,3.4595,0.0,0.0,0.0,0.0,0.0,3.3326,3.3326,3.3326,3.3326,3.3326,3.3326,3.3326,3.2846,3.2461,3.2461,3.1796,3.1119,3.097,2.9704,2.8736,2.851,2.851,2.8431,2.8259,2.8259,2.8099,2.7684,2.7684,2.7615,2.7394,2.7301,2.7219,2.7231,2.7231,2.7231,2.7231,2.7231,2.629,2.4498,2.4478,2.326,2.1096,2.1096,2.0826,2.0382,2.0292,2.0292,2.0292,2.0292,1.9828,1.9004,1.9004,1.845,1.752,1.752,1.7419,1.7326,0.0,0.0,0.0,0.0,0.0,3.7616,3.8374,3.8668,3.9044,0.0,0.0,0.0,3.9325,3.9272,3.9272,3.9272,3.9669,4.005,4.0365,4.112,4.1618,4.1856,4.2386,4.2643,4.2549,4.2675,4.255,4.2259,4.2197,4.1824,4.1112,4.0836,4.027,3.9476,3.9169,3.891,3.8616,3.8672,3.8655,3.8704,3.9128,3.9404,3.9526,4.0132,4.0352,4.0245,3.9854,3.9852,3.9962,3.9266,3.9493,3.9946,3.925,3.9176,3.8889,3.6862,3.6166,3.574,3.4206,3.377,3.3701,3.3382,0.0,0.0,3.3326,3.3326,3.3326,3.3326,3.3326,3.3326,3.3326,3.2931,3.2461,3.2015,3.1267,3.067,3.0443,2.925,2.8339,2.8339,2.8271,2.8191,2.8111,2.8111,2.7938,2.7522,2.7522,2.7452,2.7231,2.7231,2.7231,2.7231,2.7231,2.7231,2.7231,2.7231,2.629,2.4498,2.4125,2.2902,2.0997,2.0645,2.0473,2.0292,2.0292,2.0292,2.0292,2.0102,1.9554,1.8735,1.855,1.7986,1.7326,1.7326,1.7326,1.7311,0.0,0.0,3.7863,3.7863,3.8358,3.8745,3.8799,3.9312,3.9677,0.0,3.959,3.9484,3.9379,3.9325,3.9325,3.9325,3.9325,3.9607,4.0216,4.0332,4.0608,4.1082,4.1807,4.2068,4.1901,4.2435,4.2346,4.1694,4.1573,4.114,4.0367,3.9768,3.9428,3.9388,3.8683,3.8504,3.8672,3.875,3.886,3.886,3.886,3.886,3.8925,3.9581,3.9731,3.965,3.9593,3.952,3.9324,3.8618,3.8829,3.925,3.8602,3.8656,3.8539,3.6445,3.5661,3.5124,3.3716,3.3326,3.3326,3.3326,3.3326,0.0,3.3326,3.3326,3.3326,3.3326,3.3326,3.3255,3.3171,3.3086,3.2632,3.1636,3.0833,3.0152,2.9704,2.8791,2.8179,2.8179,2.8042,2.7893,2.7881,2.7881,2.7708,2.7522,2.7441,2.7371,2.7231,2.7231,2.7231,2.7231,2.7231,2.7231,2.7231,2.7231,2.629,2.4488,2.4114,2.2892,2.0907,2.0555,2.0382,2.0292,2.0292,2.0292,2.0292,1.9737,1.9188,1.8735,1.8272,1.78,1.7326,1.7289,1.7274,1.723,3.7546,3.7847,3.823,3.8469,3.8635,3.887,3.9418,3.9609,3.9677,3.9677,3.9677,3.9625,3.9625,3.9625,3.9573,3.9501,3.9448,3.9498,3.9541,4.005,4.0448,4.0525,4.1106,4.1371,4.1371,4.136,4.1243,4.0945,4.0886,4.0469,3.9671,3.9541,3.9226,3.8772,3.8641,3.8727,3.8914,3.8969,3.9023,3.9218,3.904,3.904,3.9218,3.9188,3.9128,3.9128,3.9018,3.8867,3.8755,3.8497,3.8489,3.8586,3.844,3.8432,3.8136,3.6353,3.5743,3.5389,3.3756,3.3326,3.3326,3.3326,3.3326,0.0,3.3326,3.3326,3.3326,3.3326,3.3326,3.3016,3.2245,3.1576,3.0833,2.9768,2.8937,2.8645,2.916,2.8486,2.7962,2.7962,2.7881,2.78,2.7615,2.7603,2.7452,2.7301,2.7219,2.7219,2.7231,2.7231,2.7231,2.7231,2.7231,2.7231,2.7231,2.7231,2.6196,2.4221,2.4457,2.324,2.0744,2.1087,2.0826,2.0292,2.0292,2.0292,2.0201,1.9379,1.892,1.8735,1.8272,1.78,1.7296,1.704,1.6945,1.6901,3.8351,3.887,3.9404,3.9577,3.9577,3.9714,3.9986,3.9986,3.9986,3.9935,3.9833,3.9781,3.9729,3.9677,3.9677,3.959,3.9537,3.9501,3.9379,3.9674,3.9835,3.9835,4.0475,4.08,4.08,4.0992,4.0877,4.0369,4.0312,3.9895,3.9137,3.9137,3.9014,3.8711,3.8711,3.8805,3.9023,3.9023,3.9094,3.9272,3.9202,3.9202,3.9272,3.9202,3.9094,3.8969,3.886,3.8655,3.852,3.8391,3.8391,3.8391,3.8391,3.8017,3.731,3.6136,3.5374,3.4684,3.3563,3.3326,3.3326,3.3326,3.3326,0.0,0.0,3.3157,3.3016,3.3016,3.2632,3.2101,3.1563,3.097,3.0126,2.9057,2.8518,2.8223,2.8155,2.7846,2.7708,2.7708,2.7638,2.7476,2.7371,2.7371,2.7301,2.7231,2.7231,2.7231,2.7231,2.7231,2.7231,2.7231,2.7231,2.7231,2.7231,2.6962,2.6113,2.4669,2.4467,2.3337,2.1177,2.1356,2.1006,2.0292,2.0292,2.0201,1.992,1.9104,1.854,1.8216,1.7825,1.7424,1.7069,1.6916,1.6755,1.6565,3.9279,3.9935,4.0534,4.0517,4.0485,4.0485,4.0355,4.0337,4.0288,4.0188,4.0037,3.9952,3.9781,3.9781,3.9781,3.9729,3.959,3.9537,3.9501,3.9379,3.9325,3.9325,3.9906,4.0166,4.0166,4.0618,4.0506,3.9913,3.9801,3.9434,3.8805,3.8805,3.8805,3.886,3.886,3.8914,3.9077,3.9077,3.9148,3.9272,3.9272,3.9272,3.9272,3.9272,3.9202,3.904,3.886,3.8655,3.8391,3.8391,3.8391,3.8391,3.8278,3.7519,3.6615,3.5837,3.4949,3.4085,3.3452,3.3326,3.3326,3.3326,3.3241,3.3171,0.0,0.0,0.0,3.2475,3.1783,3.1093,3.0781,3.0342,2.9654,2.8573,2.8414,2.8119,2.7301,2.7371,2.7441,2.7441,2.7301,2.7231,2.7231,2.7231,2.7231,2.7231,2.7231,2.7231,2.7231,2.7231,2.7231,2.7231,2.7231,2.7231,2.7231,2.6704,2.6019,2.5094,2.4573,2.3347,2.1606,2.1615,2.1087,2.0283,2.0124,1.9819,1.9447,1.8744,1.8092,1.7514,1.7298,1.7004,1.6667,1.6601,1.6374,1.606,4.0302,4.05,4.0648,4.0534,4.0485,4.0468,4.0485,4.0485,4.0436,4.0288,4.0238,4.0188,4.0087,4.007,3.9986,3.9729,3.9677,3.9642,3.9501,3.9379,3.9325,3.9501,3.9462,3.9404,3.9404,3.9471,3.9417,3.9139,3.9101,3.8997,3.8805,3.8805,3.886,3.8969,3.8969,3.9094,3.9272,3.9272,3.9272,3.9272,3.9272,3.9272,3.9272,3.9272,3.9272,3.9218,3.8914,3.8655,3.8391,3.8391,3.8391,3.8278,3.7727,3.7417,3.7027,3.5449,3.4942,3.4558,3.3577,3.3326,3.3326,3.3326,3.3016,3.2775,3.2775,0.0,3.2042,3.1489,0.0,3.0719,2.9254,0.0,0.0,2.7522,2.7371,2.7301,2.7231,2.7231,2.7231,2.7231,2.7231,2.7231,2.7231,2.7231,2.7231,2.7231,2.7231,2.7231,2.7231,2.7231,2.7231,2.7231,2.7231,2.7231,2.7231,2.6704,2.5913,2.4882,2.4999,2.38,2.1445,2.205,2.1516,2.0275,1.9592,1.919,1.9067,1.7848,1.7251,1.7163,1.6958,1.655,1.5987,1.5694,1.5387,1.5101,4.0672,4.0772,4.0948,4.0776,4.0728,4.068,4.0648,4.0534,4.0485,4.0436,4.0436,4.0387,4.0238,4.0188,4.0138,3.9935,3.9781,3.9729,3.9746,3.9537,3.9448,3.9501,3.9448,3.9379,3.9272,3.9272,3.9272,3.9148,3.9148,3.9148,3.9094,3.9094,3.9094,3.9148,3.9148,3.9218,3.9272,3.9272,3.9272,3.9272,3.9272,3.9272,3.9272,3.9272,3.9164,3.8969,3.886,3.8359,3.7844,3.7844,3.7844,3.7711,3.7027,3.6753,3.643,3.5255,3.4558,3.4045,3.3452,3.3326,3.3326,3.3326,3.3016,3.2618,3.2245,3.1663,3.1057,3.0443,0.0,0.0,0.0,0.0,0.0,0.0,2.7231,2.7231,2.7231,2.7231,2.7231,2.7231,2.7231,2.7231,2.7231,2.7231,2.7231,2.7231,2.7231,2.7231,2.7231,2.7231,2.7231,2.7231,2.7231,2.7231,2.7231,2.6467,2.5874,2.5432,2.5031,2.382,2.1952,2.207,2.1365,1.9949,1.9134,1.8617,1.8249,1.7484,1.6669,1.6089,1.6058,1.5862,1.5599,1.527,1.494,1.467,4.1157,4.1174,4.1272,4.1105,4.1012,4.0918,4.0793,4.068,4.0583,4.0534,4.0534,4.0485,4.0387,4.0305,4.0238,4.0121,3.9884,3.9781,3.9849,3.9642,3.9537,3.9501,3.9554,3.9484,3.9325,3.9342,3.9325,3.9272,3.9272,3.9272,3.9272,3.9272,3.9272,3.9272,3.9272,3.9272,3.9272,3.9272,3.9272,3.9272,3.9272,3.9272,3.9272,3.9272,3.9094,3.8805,3.8805,3.823,3.7417,3.7417,3.7282,3.7027,3.6259,3.593,3.5661,3.481,3.4128,3.3536,3.3326,3.3326,3.3326,3.3326,3.2775,3.216,3.1723,3.0895,2.9999,2.9394,2.8712,0.0,0.0,0.0,2.7231,2.7231,0.0,2.7231,2.7231,2.7231,2.7231,2.7231,2.7231,2.7231,2.7231,2.7231,2.7231,2.7231,2.7231,2.7231,2.7231,2.7231,2.7231,2.7231,2.7231,2.7231,2.7231,2.6324,2.5895,2.5906,2.4967,2.3674,2.2224,2.2026,2.1062,1.9476,1.8568,1.7973,1.762,1.6921,1.6129,1.5284,1.5204,1.5027,1.4925,1.4685,1.4472,1.4139,4.2103,4.1805,4.1604,4.156,4.1363,4.1117,4.0918,4.0888,4.084,4.0697,4.0697,4.0648,4.0534,4.0387,4.0238,4.0121,3.9986,3.9849,3.9729,3.9677,3.9642,3.9501,3.9625,3.9573,3.9325,3.9448,3.9448,3.9272,3.9272,3.9272,3.9272,3.9272,3.9272,3.9272,3.9272,3.9272,3.9272,3.9272,3.9272,3.9272,3.9272,3.9272,3.9272,3.9272,3.9094,3.8805,3.8805,3.823,3.7417,3.7417,3.6966,3.6259,3.5419,3.5109,3.4927,3.3922,3.3605,3.3536,3.3326,3.3326,3.3326,3.3326,3.2245,3.1254,3.1254,3.0126,2.9015,2.8407,2.8259,2.8018,2.7383,2.7231,2.7231,2.7231,2.7231,0.0,0.0,2.7231,2.7231,2.7231,2.7231,2.7231,2.7231,2.7231,2.7231,2.7231,2.7231,2.7231,2.7231,2.7231,2.7231,2.7231,2.7231,2.7231,2.7231,2.6324,2.5895,2.5906,2.4967,2.3609,2.1912,2.1902,2.0906,1.917,1.7932,1.7339,1.7231,1.5996,1.5262,1.4926,1.4618,1.4227,1.3791,1.3935,1.3657,1.3271,4.2588,4.2409,4.2103,4.1692,4.1498,4.1363,4.1134,4.1088,4.1041,4.0888,4.0745,4.0648,4.0534,4.0387,4.0238,4.0121,4.0003,3.9935,3.9969,3.9884,3.9781,3.9642,3.9729,3.9694,3.9448,3.9501,3.9501,3.9432,3.9325,3.9272,3.9272,3.9272,3.9272,3.9272,3.9272,3.9272,3.9272,3.9272,3.9272,3.9272,3.9272,3.9272,3.9272,3.9272,3.9094,3.8733,3.8311,3.7531,3.6646,3.6212,3.5897,3.5578,3.4677,3.4743,3.4927,3.3922,3.3605,3.3536,3.3326,3.3326,3.3171,3.2618,3.1856,3.0957,3.0063,2.916,2.8327,2.7696,2.7545,2.7464,2.7231,2.7231,2.7231,2.7231,2.7231,2.7231,0.0,2.7231,2.7231,2.7231,2.7231,2.7231,2.7231,2.7231,2.7231,2.7231,2.7231,2.7231,2.7231,2.7231,2.7231,2.7231,2.7231,2.7231,2.7231,2.6324,2.5895,2.5895,2.4661,2.3328,2.1883,2.1303,2.0228,1.8768,1.7473,1.6905,1.6798,1.5561,1.4918,1.4596,1.4275,1.387,1.3357,1.3431,1.3286,1.3015,4.2783,4.2745,4.249,4.1995,4.1823,4.1631,4.1408,4.1255,4.1163,4.1041,4.084,4.0648,4.0583,4.0404,4.0255,4.0188,4.0037,3.9986,4.0037,3.9935,3.9849,3.9642,3.9746,3.9694,3.9432,3.9501,3.9501,3.9448,3.9325,3.9272,3.9272,3.9272,3.9272,3.9272,3.9272,3.9272,3.9272,3.9272,3.9272,3.9272,3.9272,3.9131,3.8827,3.8843,3.8662,3.8367,3.7632,3.6798,3.5946,3.5529,3.5219,3.4905,3.4264,3.4317,3.4491,3.373,3.3466,3.3466,3.3326,3.3086,3.2704,3.216,3.118,3.0203,2.9213,2.8383,2.7696,2.7313,2.7231,2.7231,2.7231,2.7231,2.7231,2.7231,2.7231,2.7231,0.0,2.7231,2.7231,2.7231,2.7231,2.7231,2.7231,2.7231,2.7231,2.7231,2.7231,2.7231,2.7231,2.7231,2.7231,2.7231,2.7231,2.7149,2.6962,2.6052,2.5561,2.5373,2.4168,2.2865,2.1427,2.0866,1.9724,1.8135,1.7155,1.6656,1.6386,1.5316,1.4757,1.4435,1.4106,1.3628,1.3119,1.3193,1.3046,1.2808,4.2822,4.2783,4.2763,4.2544,4.2205,4.1849,4.1648,4.1408,4.1209,4.1209,4.0918,4.0697,4.0697,4.0453,4.0305,4.0288,4.0188,4.0037,3.9901,3.9901,3.9798,3.9501,3.9642,3.9573,3.9325,3.9432,3.9432,3.9325,3.9325,3.9325,3.9272,3.9272,3.9272,3.9272,3.9272,3.9272,3.9272,3.9272,3.9272,3.9272,3.9272,3.8756,3.7946,3.7978,3.7879,3.7573,3.6859,3.6056,3.54,3.5335,3.4905,3.4346,3.402,3.3896,3.3827,3.3396,3.3241,3.3241,3.3241,3.2618,3.2001,3.1723,3.0367,2.8991,2.8718,2.7891,2.7231,2.7231,2.7231,2.7219,2.7196,2.7138,2.7138,2.7115,2.7126,2.7149,2.7149,2.7149,2.7231,2.7149,2.7149,2.7231,2.7231,2.7231,2.7231,2.7231,2.7231,2.7231,2.7231,2.7231,2.7231,2.7231,2.7231,2.6951,2.6483,2.5639,2.499,2.4445,2.3604,2.2332,2.0609,2.059,1.9408,1.7473,1.6902,1.6484,1.6034,1.5212,1.4735,1.4414,1.4084,1.3539,1.29,1.3119,1.29,1.2607,4.2918,4.2842,4.2783,4.2724,4.2508,4.2222,4.1892,4.1631,4.1408,4.1255,4.0918,4.0648,4.0534,4.0387,4.0238,4.0188,4.0138,4.0087,4.0037,4.0037,3.9935,3.9677,3.9798,3.9746,3.9432,3.959,3.959,3.9448,3.9448,3.9379,3.9272,3.9272,3.9272,3.9272,3.9272,3.9272,3.9272,3.9272,3.9023,3.8535,3.8535,3.8051,3.7279,3.6692,3.6322,3.6119,3.593,3.5627,3.5335,3.4839,3.4452,3.4128,3.3951,3.3827,3.3605,3.3396,3.286,3.239,3.239,3.1796,3.1044,3.0203,2.9524,2.8846,2.7971,2.7522,2.7231,2.7231,2.7231,2.7116,2.6726,2.6712,2.6591,2.6242,2.6467,2.6704,2.6704,2.6974,2.7056,2.6704,2.6974,2.7231,2.7231,2.7231,2.7231,2.7231,2.7231,2.7231,2.7231,2.7231,2.7231,2.7231,2.7231,2.6955,2.6485,2.5959,2.522,2.4436,2.3509,2.2505,2.1242,2.0445,1.9543,1.8523,1.7221,1.6506,1.6077,1.5038,1.4399,1.407,1.3599,1.3117,1.2673,1.2599,1.2452,1.2399,4.2938,4.2862,4.2842,4.2783,4.2606,4.2305,4.2019,4.1849,4.1587,4.1255,4.0977,4.0776,4.0534,4.0387,4.0138,3.9747,3.9969,3.9969,3.9696,3.9918,3.9935,3.9781,3.9746,3.9642,3.9501,3.9222,3.9222,3.9501,3.9131,3.9131,3.9395,3.9325,3.9272,3.9272,3.9272,3.9272,3.9272,3.8969,3.8662,3.8278,3.7937,3.7279,0.0,3.5961,3.5449,3.5088,3.5088,3.5023,3.4905,3.4534,3.4264,3.4074,3.3951,3.3744,3.3466,3.2931,3.2461,3.2001,3.1709,3.0957,3.0063,2.9459,2.8834,2.8223,2.7522,2.7301,2.7231,2.7231,2.7231,2.7139,2.6852,2.6679,2.63,2.5814,2.5961,2.6142,2.6142,2.6394,2.6394,2.597,2.6507,2.6817,2.6644,2.7012,2.7231,2.7231,2.7231,2.7231,2.7231,2.7231,2.7231,2.7231,2.7231,2.6909,2.6223,2.5518,2.4766,2.3791,2.2942,2.1937,2.08,2.0165,1.9283,1.8282,1.7139,1.6369,1.5864,1.4911,1.4275,1.3953,1.3321,1.29,1.2599,1.2378,1.2305,1.2244,4.2938,4.2882,4.2862,4.2822,4.253,4.2246,4.2061,4.1917,4.1657,4.1237,4.1071,4.0836,4.0534,4.0337,3.9969,3.9259,3.9592,3.9696,3.9259,3.9487,3.9729,3.9781,3.959,3.9432,3.9379,3.8701,3.8756,3.9501,3.8756,3.8756,3.9501,3.9379,3.9325,3.9272,3.9272,3.9272,3.9148,3.8535,3.8165,3.7937,3.7235,3.6461,3.5721,3.5578,3.5023,3.4414,3.4414,3.4414,3.4414,3.4414,3.4264,3.4074,3.3813,3.3591,3.3227,3.2232,3.1856,3.1636,3.097,2.9986,2.9225,2.9003,2.8223,2.7441,2.7219,2.7231,2.7231,2.7231,2.7231,2.7208,2.7139,2.668,2.6245,2.5799,2.573,2.5753,2.5821,2.5764,2.5652,2.5251,2.595,0.0,2.5891,2.6678,2.7231,2.7231,2.7138,2.7149,2.7231,2.7138,2.7115,2.7128,2.7128,2.6691,2.5711,2.4948,2.4026,2.3097,2.23,2.1242,2.006,1.9904,1.8957,1.7465,1.6854,1.6145,1.5492,1.4773,1.4209,1.3812,1.3153,1.2746,1.2599,1.2378,1.2224,1.2116,4.2938,4.2882,4.2862,4.2822,4.253,4.2187,4.1796,4.1507,4.1283,4.1209,4.1041,4.0823,4.0517,4.0037,3.9558,3.9259,3.8849,3.8794,3.9152,3.8794,3.8739,3.9152,3.9098,3.9007,3.875,3.8668,3.8903,3.9501,3.8903,3.8903,3.9501,3.9501,3.9395,3.9272,3.9272,3.8969,3.8463,3.8351,3.7648,3.6554,3.643,3.5752,3.4883,3.4883,3.4683,3.4414,3.4414,3.4414,3.4414,3.4414,3.421,3.3813,3.3143,3.269,3.2232,3.1341,3.067,3.0075,2.9922,2.916,2.8327,2.8191,2.7777,2.7441,2.7219,2.7231,2.7231,2.7231,2.7231,2.7093,2.6668,2.62,2.5869,2.579,2.5779,2.5914,2.6296,2.6348,2.6166,2.5699,2.5846,2.5983,2.5822,2.6689,2.7231,2.7231,2.6869,2.6787,2.7149,2.6798,2.6594,2.6611,2.66,2.614,2.5047,2.4945,2.4198,2.3057,2.2896,2.208,2.0702,1.9825,1.8957,1.8086,1.6509,1.5556,1.5133,1.4424,1.3797,1.3278,1.2994,1.2746,1.2599,1.2378,1.1855,1.1267,4.2938,4.2882,4.2844,4.2631,4.2333,4.1959,4.1596,4.1255,4.1041,4.1041,4.1041,4.0853,4.032,3.9885,3.9279,3.8606,3.8407,3.8294,3.8254,3.8294,3.8407,3.8629,3.859,3.8423,3.8197,3.7806,3.8149,3.9098,3.843,3.8629,3.959,3.9537,3.9448,3.9272,3.8952,3.859,3.8278,3.7589,3.689,3.6133,3.5703,3.5198,3.4698,3.4563,3.4481,3.4414,3.4414,3.4045,3.3673,3.4113,3.3785,3.3213,3.269,3.2087,3.1341,3.0519,2.9999,2.9549,2.9094,2.8486,2.795,2.7777,2.7534,2.7301,2.7231,2.7231,2.7231,2.7231,2.7231,2.707,2.6565,2.6097,2.5757,2.5757,2.553,2.553,2.6029,2.6063,2.5915,2.552,2.5905,2.6041,2.5464,2.6291,2.6863,2.6857,2.688,2.6849,2.6852,2.6656,2.6337,2.6094,2.6071,2.5704,2.4923,2.4536,2.3849,2.3001,2.2241,2.1395,2.0382,1.952,1.855,1.7485,1.6437,1.5521,1.4782,1.4007,1.3483,1.3046,1.2973,1.2673,1.2378,1.1855,1.1409,1.1031,4.2647,4.2609,4.2461,4.193,4.1712,4.1523,4.1191,4.0984,4.0888,4.0888,4.0948,4.0789,4.0171,3.961,3.8903,3.7985,3.7911,3.7796,3.7401,3.7738,3.7953,3.8124,3.8042,3.7854,3.7663,3.7071,3.7354,3.8525,3.7921,3.8278,3.9451,3.952,3.9379,3.9077,3.8407,3.8051,3.7822,3.6845,3.6196,3.5879,3.5184,3.4817,3.4631,3.4481,3.4414,3.4414,3.4196,3.3604,3.2946,3.3395,3.3044,3.2318,3.1988,3.1328,3.0519,2.9704,2.9394,2.925,2.8407,2.803,2.7788,2.7522,2.7371,2.7231,2.7231,2.7231,2.7231,2.7231,2.7231,2.6966,2.6336,2.5993,2.5796,2.5501,2.5112,2.5107,2.5635,2.5612,2.5378,2.507,2.5654,2.5745,2.5037,2.5587,2.6018,2.6088,2.6481,2.6645,2.6324,2.6222,2.5982,2.5413,2.5467,2.5139,2.4389,2.3851,2.321,2.2531,2.1395,2.0459,1.9678,1.8984,1.7985,1.6681,1.6126,1.5312,1.429,1.3748,1.3273,1.2973,1.29,1.2599,1.2003,1.1335,1.0881,1.0507,4.1776,4.1738,4.1391,4.0232,4.0412,4.0637,4.0271,4.0608,4.0888,4.0888,4.0583,4.0288,4.0138,3.8974,3.8157,3.7943,3.7134,3.6892,3.7358,3.6952,3.6892,3.746,3.746,3.7417,3.7238,3.7027,3.7175,3.7863,3.7822,3.8051,3.8629,3.9329,3.9222,3.8351,3.778,3.7131,3.6538,3.643,3.5864,3.4986,3.4935,3.4735,3.4414,3.4414,3.4414,3.4264,3.3589,3.3143,3.2791,3.2015,3.1563,3.118,3.043,3.0063,2.9626,2.8882,2.8498,2.8327,2.8259,2.7857,2.7522,2.7522,2.7371,2.7231,2.7231,2.7231,2.7231,2.7231,2.7231,2.677,2.5475,2.5882,2.6016,2.4698,2.4721,2.5107,2.5635,2.5291,2.4981,2.4917,2.4737,2.4532,2.4422,2.452,2.4591,2.4588,2.4948,2.5329,2.5784,2.5362,2.497,2.4498,2.4842,2.4217,2.2617,2.2735,2.2176,2.0991,2.0663,2.006,1.9073,1.8184,1.7257,1.619,1.5106,1.4295,1.3609,1.3506,1.3346,1.3127,1.2973,1.2298,1.1484,1.1186,1.0207,0.8927,4.0834,4.0815,4.0594,3.9925,3.9863,3.9768,3.9425,3.9319,3.92,3.92,3.9842,4.0087,3.9504,3.8662,3.7985,3.7653,3.6952,3.66,3.6831,3.66,3.66,3.6846,3.6831,3.6769,3.6569,3.6445,3.6677,3.7235,3.7235,3.7531,3.8108,3.839,3.8278,3.7706,3.7071,3.6662,3.6368,3.6022,3.5524,3.4935,3.4935,3.4668,3.4414,3.4414,3.4113,3.3589,3.3157,3.229,3.1267,3.0745,3.0519,3.043,2.9999,2.9394,2.8882,2.8578,2.8339,2.8179,2.803,2.7566,2.7081,2.6921,2.6622,2.6324,2.6324,2.6324,2.6324,2.6324,2.6324,2.5859,2.4504,2.4537,2.4715,2.4537,2.4336,2.4565,2.5558,2.5532,2.5394,2.5394,2.5241,2.5051,2.4657,2.4698,2.4503,2.396,2.4393,2.4759,2.4876,2.3984,2.3535,2.3522,2.3188,2.2627,2.1842,2.168,2.1211,2.0585,1.9904,1.9371,1.8993,1.803,1.6888,1.5554,1.4389,1.3733,1.3492,1.3346,1.32,1.2973,1.282,1.2378,1.1855,1.1335,1.0357,0.9372,3.9949,3.9912,3.9711,3.9174,3.9102,3.8942,3.8478,3.8305,3.8091,3.7776,3.867,3.9059,3.8434,3.7711,3.7163,3.6817,3.624,3.5891,3.5891,3.5891,3.5984,3.6184,3.6199,3.6214,3.6274,3.6163,3.6274,3.6616,3.6784,3.7071,3.7413,3.7413,3.7294,3.7071,3.643,3.6148,3.6085,3.5683,3.5294,3.4935,3.4935,3.4668,3.4414,3.4414,3.3894,3.3143,3.272,3.1636,3.0241,2.9768,2.9614,2.9549,2.9406,2.8961,2.851,2.851,2.8351,2.8075,2.7773,2.7217,2.6665,2.6357,2.598,2.5716,2.5716,2.5716,2.5592,2.5279,2.5054,2.4523,2.3231,2.309,2.3274,2.353,2.3305,2.3515,2.4743,2.4876,2.4952,2.5268,2.5268,2.5119,2.474,2.4705,2.4408,2.3626,2.3678,2.3831,2.413,2.3188,2.2798,2.3161,2.2295,2.1603,2.1211,2.075,2.0285,1.9885,1.9054,1.8621,1.8488,1.7355,1.6152,1.4903,1.3917,1.3492,1.3492,1.3346,1.3119,1.29,1.2826,1.2452,1.1855,1.1409,1.0501,0.9448,3.9103,3.9013,3.8597,3.7494,3.7913,3.8134,3.7344,3.7882,3.804,3.7036,3.6916,3.6933,3.6933,3.6039,3.541,3.541,3.4898,3.4491,3.4491,3.4491,3.4799,3.546,3.5491,3.5814,3.6476,3.6274,3.6148,3.6037,3.6616,3.6723,3.643,3.643,3.643,3.6368,3.5797,3.5504,3.5504,3.5504,3.5294,3.4935,3.4935,3.4668,3.4414,3.4414,3.3894,3.3073,3.2146,3.1132,3.0165,2.9184,2.8645,2.851,2.851,2.851,2.851,2.851,2.8203,2.7775,2.7223,2.6767,2.6347,2.5842,2.5716,2.5716,2.5716,2.5716,2.5324,2.4193,2.3479,2.2767,2.1538,2.168,2.1766,2.1328,2.1548,2.208,2.2938,2.3023,2.332,2.4139,2.4212,2.4212,2.42,2.42,2.4055,2.3604,2.2531,2.2381,2.353,2.3235,2.315,2.3593,2.2446,2.1451,2.0837,2.0216,1.9441,1.8442,1.8121,1.7843,1.7449,1.5937,1.4926,1.4456,1.377,1.3492,1.3492,1.3492,1.3273,1.29,1.3119,1.2305,1.1111,1.1335,1.0282,0.8703,3.8133,3.8061,3.7917,3.7557,3.732,3.7062,3.6696,3.631,3.5849,3.5481,3.5185,3.4984,3.4984,3.5391,3.5602,3.5394,3.5039,3.4694,3.4534,3.4475,3.4568,3.4783,3.4799,3.4891,3.5106,3.5416,3.5461,3.529,3.5982,3.6133,3.5928,3.5928,3.5879,3.5797,3.5569,3.5504,3.5504,3.5359,3.5148,3.4868,3.4817,3.4317,3.3589,3.3589,3.2791,3.1549,3.0983,3.0241,2.9431,2.8816,2.859,2.851,2.851,2.851,2.8438,2.7908,2.7565,2.7211,2.6527,2.59,2.5371,2.521,2.4923,2.4682,2.4682,2.4028,2.301,2.146,2.1214,2.0937,1.9723,2.0068,2.0456,2.0315,2.0639,2.1231,2.2069,2.2145,2.2456,2.3298,2.3372,2.3593,2.4127,2.42,2.3824,2.2852,2.2692,2.2692,2.2777,2.1308,2.076,2.1461,2.0605,1.9844,1.939,1.9152,1.8754,1.8121,1.804,1.7706,1.7081,1.5814,1.4949,1.4509,1.3827,1.3492,1.3492,1.3346,1.3119,1.29,1.2973,1.2526,1.1855,1.1558,1.0576,0.9448,3.7703,3.7649,3.7577,3.7577,3.7091,3.6597,3.6249,3.5526,3.4866,3.4546,3.425,3.4101,3.4101,3.4651,3.4915,3.4659,3.4185,3.3903,3.3748,3.369,3.3798,3.406,3.4075,3.4198,3.446,3.4816,3.4835,3.4607,3.515,3.5404,3.5262,3.5533,3.5604,3.5504,3.5439,3.5359,3.5359,3.5148,3.4787,3.437,3.4303,3.3673,3.2791,3.2791,3.1988,3.0745,3.0393,2.9716,2.8973,2.8578,2.8378,2.821,2.821,2.8077,2.7807,2.752,2.7096,2.667,2.5925,2.5315,2.4866,2.4694,2.4186,2.3621,2.3212,2.2335,2.125,1.9733,1.9453,1.9284,1.836,1.8619,1.9068,1.9383,1.9669,2.0207,2.1201,2.1298,2.1614,2.2456,2.2531,2.2756,2.3287,2.3276,2.2979,2.2231,2.208,2.1928,2.17,2.0469,2.0148,2.0924,1.9923,1.9222,1.9152,1.8851,1.8451,1.8031,1.7749,1.7218,1.6471,1.5421,1.4767,1.4353,1.3783,1.3492,1.3492,1.3346,1.3193,1.3046,1.3119,1.2673,1.1929,1.1632,1.0651,0.9372,3.7667,3.7649,3.7577,3.754,3.715,3.6603,3.5933,3.5448,3.4911,3.4184,3.4101,3.4101,3.4101,3.3848,3.3607,3.3293,3.2796,3.2398,3.2398,3.2398,3.2675,3.3306,3.3336,3.3644,3.4321,3.4383,3.4237,3.3985,3.4299,3.4412,3.4427,3.5115,3.5429,3.5429,3.5264,3.5213,3.5213,3.5001,3.4356,3.3506,3.3506,3.2861,3.2015,3.2001,3.1415,3.0456,3.0241,2.9561,2.8791,2.8542,2.8126,2.7717,2.7681,2.7308,2.6896,2.7222,2.6789,2.6066,2.5413,2.5038,2.4751,2.423,2.3519,2.2563,2.1387,2.07,1.9961,1.8803,1.8252,1.7821,1.7528,1.7477,1.7743,1.8504,1.8678,1.9065,2.0217,2.0372,2.0769,2.1614,2.169,2.1756,2.1756,2.1832,2.1766,2.168,2.0924,2.0459,2.0391,2.0391,2.0769,2.1603,2.007,1.945,1.9825,1.9073,1.8442,1.7989,1.7235,1.6471,1.5757,1.4953,1.4418,1.4057,1.371,1.3492,1.3492,1.3492,1.3346,1.32,1.3346,1.2599,1.1409,1.1484,1.0351,0.8699,3.7703,3.7649,3.7503,3.7111,3.662,3.6079,3.5448,3.4864,3.4415,3.4151,3.4101,3.4101,3.4101,3.3848,3.3607,3.3293,3.2989,3.2648,3.2398,3.2398,3.2459,3.2628,3.2628,3.2721,3.2875,3.3284,3.3645,3.3819,3.3787,3.3724,3.3739,3.4397,3.4726,3.4741,3.5056,3.5213,3.5148,3.4898,3.4235,3.3506,3.3367,3.242,3.1193,3.1044,3.0456,2.9639,2.925,2.9028,2.8743,2.812,2.7825,2.7657,2.7248,2.6743,2.6248,2.6107,2.591,2.555,2.4669,2.4445,2.4192,2.3479,2.2692,2.1699,2.0086,1.968,1.9177,1.7605,1.7241,1.7135,1.7027,1.7293,1.7559,1.7752,1.8302,1.8819,1.9065,1.9422,1.9923,2.0692,2.0847,2.1078,2.1766,2.1832,2.1527,2.0847,2.0615,2.0235,1.9618,1.9608,1.9687,1.9923,1.9381,1.9073,1.9002,1.8603,1.8214,1.7595,1.6841,1.6292,1.5757,1.4953,1.4418,1.4057,1.371,1.3492,1.3492,1.3492,1.3346,1.3119,1.2579,1.199,1.126,1.0051,0.9226,0.8623,3.7578,3.7394,3.7094,3.6843,3.619,3.5554,3.5174,3.4642,3.425,3.4101,3.4101,3.4101,3.4101,3.3745,3.345,3.3293,3.3058,3.2773,3.2398,3.2398,3.2398,3.2398,3.2398,3.2398,3.2398,3.2655,3.281,3.2869,3.2976,3.3036,3.3066,3.3724,3.4038,3.3928,3.4095,3.4292,3.4493,3.3868,3.3334,3.2791,3.2349,3.1402,3.0228,3.0088,2.9639,2.9106,2.887,2.8567,2.8246,2.7813,2.7392,2.6935,2.6647,2.6178,2.5673,2.5347,2.5213,2.5069,2.4426,2.3897,2.3372,2.2155,2.1538,2.0761,1.9168,1.8756,1.8373,1.7143,1.6908,1.6908,1.6908,1.7082,1.7284,1.7468,1.7862,1.8229,1.8421,1.8779,1.9182,1.9648,1.9809,2.0157,2.0605,2.0692,2.0459,2.0001,1.9923,1.9766,1.9301,1.9301,1.9301,1.9301,1.9073,1.8922,1.87,1.8267,1.7657,1.6944,1.6393,1.5821,1.5219,1.4656,1.4209,1.3775,1.3564,1.3492,1.3492,1.3492,1.3419,1.3273,1.2352,1.1607,1.0801,0.9523,0.8623,0.8093,3.6968,3.6664,3.6277,3.6197,3.5428,3.481,3.4625,3.4233,3.3925,3.3793,3.3727,3.3727,3.3727,3.3288,3.2977,3.2924,3.2729,3.254,3.2382,3.2398,3.2398,3.2398,3.2398,3.2398,3.2398,3.2247,3.2038,3.1727,3.2152,3.2362,3.2377,3.3036,3.3289,3.3196,3.3022,3.3172,3.3412,3.2525,3.2041,3.1734,3.1061,3.0227,2.9419,2.9341,2.9057,2.8682,2.8682,2.8186,2.7584,2.7512,2.6863,2.6081,2.5997,2.5673,2.5182,2.4861,2.4718,2.449,2.4116,2.3372,2.2306,2.0847,2.0382,1.9937,1.8452,1.8128,1.7889,1.7073,1.6908,1.6908,1.6908,1.6908,1.7009,1.7348,1.7458,1.7623,1.7981,1.8375,1.865,1.8705,1.9008,1.9237,1.9292,1.9301,1.9301,1.9301,1.9301,1.9301,1.9301,1.9301,1.9274,1.9219,1.9045,1.8816,1.8523,1.7761,1.6978,1.6336,1.592,1.53,1.4569,1.4274,1.3848,1.3492,1.3492,1.3492,1.3492,1.3492,1.3419,1.3266,1.2204,1.123,1.0265,0.9145,0.8241,0.7484,3.4784,3.4669,3.438,3.3761,3.3419,3.3129,3.2679,3.2461,3.2336,3.2336,3.2112,3.2015,3.2015,3.1706,3.1457,3.1221,3.117,3.1514,3.2321,3.2398,3.2398,3.2398,3.2398,3.2398,3.2398,3.2135,3.1868,3.1539,3.1644,3.1689,3.1646,3.2362,3.2662,3.2646,3.2892,3.2733,3.2213,3.1834,3.1158,3.0434,3.0275,2.9907,2.9419,2.9197,2.8758,2.8123,2.7915,2.75,2.6983,2.6514,2.6238,2.6021,2.5576,2.5313,2.5123,2.4861,2.4177,2.3486,2.3224,2.208,2.0847,2.0537,2.0001,1.9247,1.8302,1.8128,1.7889,1.7073,1.6908,1.6908,1.6908,1.6908,1.6927,1.6991,1.7275,1.7513,1.7587,1.7954,1.8339,1.8678,1.877,1.8935,1.9265,1.9301,1.9301,1.9301,1.9301,1.9301,1.9301,1.9301,1.9146,1.8815,1.8752,1.8373,1.7717,1.6942,1.6538,1.6418,1.5652,1.5048,1.4569,1.4274,1.3848,1.3492,1.3492,1.3492,1.3492,1.3492,1.32,1.2599,1.1236,1.034,0.9593,0.8237,0.7633,0.7484,3.3986,3.3802,3.3554,3.3084,3.268,3.2335,3.2152,3.2059,3.1948,3.179,3.1694,3.1534,3.1372,3.1126,3.0927,3.0791,3.0654,3.0778,3.1289,3.1336,3.1336,3.1336,3.1336,3.1451,3.1641,3.1814,3.1769,3.1482,3.1482,3.1482,3.1482,3.1839,3.1871,3.1708,3.1477,3.1286,3.1154,3.017,2.9707,2.9601,2.8859,2.8508,2.8297,2.7938,2.7627,2.736,2.7296,2.6947,2.6442,2.6178,2.5913,2.5624,2.5325,2.5182,2.5052,2.4718,2.3959,2.2905,2.1918,2.1078,2.0382,2.0001,1.945,1.8834,1.8256,1.7944,1.7614,1.7027,1.6908,1.6908,1.6908,1.6908,1.6908,1.6908,1.7064,1.7183,1.7183,1.7532,1.7853,1.8036,1.8256,1.855,1.8944,1.899,1.9072,1.9283,1.9301,1.921,1.8999,1.899,1.872,1.8243,1.8118,1.7637,1.6858,1.6524,1.6323,1.6054,1.5295,1.4776,1.4569,1.4065,1.371,1.3492,1.3492,1.3492,1.3492,1.3127,1.2739,1.2137,1.064,0.9744,0.915,0.794,0.7484,0.7484,3.2952,3.2763,3.2547,3.2237,3.1782,3.1417,3.1417,3.137,3.126,3.1055,3.0943,3.0847,3.0637,3.0407,3.0223,3.0223,3.0037,2.9966,2.9966,2.9899,3.0038,3.036,3.0308,3.0448,3.0697,3.1117,3.1261,3.1076,3.1076,3.1076,3.1091,3.1019,3.0904,3.0689,2.9911,2.9681,2.9784,2.8465,2.8291,2.8718,2.7645,2.7319,2.7471,2.698,2.6785,2.6731,2.6731,2.6382,2.5913,2.5913,2.5564,2.5061,2.4932,2.4778,2.4613,2.4272,2.3318,2.2073,2.0735,2.0236,1.9907,1.9201,1.8797,1.8476,1.8064,1.7724,1.7385,1.6991,1.6908,1.6908,1.6908,1.6908,1.6908,1.6908,1.6908,1.6908,1.6908,1.7165,1.7394,1.7486,1.7779,1.8137,1.854,1.8577,1.8705,1.9008,1.9026,1.8898,1.8586,1.8577,1.8233,1.7602,1.7379,1.7016,1.6336,1.6259,1.6079,1.5797,1.4999,1.4569,1.4569,1.3855,1.3492,1.3492,1.3492,1.3492,1.3419,1.2826,1.2291,1.1607,1.019,0.9296,0.8699,0.7787,0.7484,0.7488,3.0717,3.0525,3.0432,3.0179,2.9871,2.9675,2.9675,2.9448,2.9326,2.9279,2.9077,2.8888,2.8888,2.8728,2.8599,2.8599,2.855,2.855,2.855,2.8437,2.8939,3.0143,3.0121,2.9993,2.9894,2.9954,2.9877,2.9729,2.9729,2.9729,2.9729,2.9605,2.9535,2.9481,2.8583,2.8096,2.7933,2.7125,2.7072,2.7402,2.7139,2.7234,2.752,2.7236,2.6784,2.6154,2.6154,2.5817,2.536,2.536,2.5011,2.451,2.4384,2.3914,2.332,2.3141,2.1915,2.0504,2.0029,1.9412,1.8745,1.8302,1.8192,1.8054,1.7642,1.7513,1.7385,1.6991,1.6908,1.6908,1.6908,1.6908,1.6908,1.6908,1.6908,1.6908,1.6908,1.6936,1.7082,1.7449,1.7523,1.7706,1.8128,1.8164,1.8183,1.821,1.821,1.8201,1.8164,1.8164,1.775,1.6971,1.6835,1.6607,1.6426,1.6011,1.5831,1.5797,1.4999,1.4569,1.4569,1.3855,1.3492,1.3492,1.3492,1.3492,1.3419,1.2826,1.2003,1.1031,0.9976,0.9003,0.8102,0.7638,0.7484,0.7508,3.0011,2.9968,2.9968,2.9486,2.9305,2.9259,2.9259,2.9167,2.9029,2.8873,2.8779,2.8653,2.8525,2.8444,2.8411,2.8411,2.8411,2.8348,2.8299,2.8235,2.8366,2.8834,2.9091,2.9251,2.9199,2.9516,2.9619,2.9579,2.9579,2.9579,2.9471,2.9818,2.99,2.969,2.8856,2.8402,2.8153,2.7025,2.6582,2.6544,2.6114,2.6091,2.6261,2.5849,2.5646,2.5612,2.5612,2.548,2.5312,2.5312,2.5168,2.4881,2.4293,2.3906,2.3409,2.1823,2.0945,2.0145,1.8759,1.836,1.8311,1.8164,1.7926,1.7697,1.7532,1.7312,1.7092,1.6936,1.6908,1.6908,1.6908,1.6908,1.6908,1.6908,1.6908,1.6908,1.6908,1.6908,1.6963,1.711,1.7128,1.7293,1.7697,1.7734,1.7844,1.81,1.8128,1.7944,1.7542,1.7144,1.6723,1.6422,1.6225,1.6091,1.6011,1.5874,1.5805,1.5797,1.4999,1.4569,1.4569,1.3855,1.3492,1.3492,1.3492,1.3273,1.29,1.2298,1.1329,1.0126,0.9301,0.847,0.7731,0.7692,0.7655,0.7679,2.956,2.956,2.9589,2.9167,2.9029,2.8982,2.8982,2.8905,2.8811,2.8605,2.8605,2.8651,2.8704,2.8719,2.8812,2.9027,2.8978,2.8928,2.8813,2.8778,2.8495,2.797,2.8439,2.8733,2.8733,2.9289,2.9579,2.9579,2.9525,2.9456,2.9347,2.9696,2.9662,2.9204,2.8469,2.8058,2.7784,2.6637,2.6164,2.6176,2.5629,2.5497,2.5569,2.5123,2.5069,2.5312,2.5312,2.5312,2.5312,2.5241,2.5133,2.4871,2.4154,2.3468,2.2616,2.0578,1.9815,1.9334,1.7731,1.7523,1.7743,1.7743,1.7523,1.7312,1.7312,1.7101,1.6908,1.6908,1.6908,1.6908,1.6908,1.6908,1.6908,1.6908,1.6908,1.6908,1.6908,1.6908,1.6908,1.6908,1.6908,1.7009,1.7284,1.7312,1.7431,1.7724,1.7661,1.7397,1.6911,1.6422,1.6132,1.6132,1.5938,1.5805,1.5805,1.5805,1.5726,1.5576,1.4927,1.4569,1.4418,1.3783,1.3492,1.3492,1.3492,1.3193,1.2526,1.1781,1.0732,0.9518,0.8775,0.8132,0.7586,0.7711,0.7793,0.7866,2.9167,2.9075,2.9075,2.9075,2.8889,2.87,2.87,2.8541,2.8427,2.8427,2.8427,2.8673,2.935,2.9427,2.9689,3.0314,3.0308,3.0188,3.0188,2.9955,2.9207,2.7866,2.8299,2.8607,2.8607,2.925,2.9579,2.9579,2.9401,2.9277,2.9277,2.9016,2.8497,2.7794,2.7028,2.6649,2.6453,2.5678,2.5623,2.6131,2.5758,2.5606,2.5606,2.5382,2.5312,2.5312,2.5312,2.5312,2.5312,2.5111,2.4777,2.4198,2.3828,2.2423,2.0651,1.9379,1.8499,1.7833,1.7107,1.6908,1.6908,1.6908,1.6908,1.6908,1.6908,1.6908,1.6908,1.6908,1.6908,1.6908,1.6908,1.6908,1.6908,1.6908,1.6908,1.6908,1.6908,1.6908,1.6908,1.6908,1.6908,1.6908,1.6908,1.6908,1.6908,1.6908,1.6682,1.6542,1.6342,1.6202,1.6132,1.6132,1.5938,1.5805,1.5805,1.5805,1.5576,1.5204,1.4776,1.4418,1.4057,1.371,1.3492,1.3492,1.3492,1.3127,1.2526,1.1484,1.0507,0.9523,0.8479,0.7991,0.7764,0.7764,0.787,0.7958,2.8873,2.8826,2.8795,2.8621,2.8927,2.9187,2.9187,2.9554,2.9812,2.9812,2.9812,2.9904,3.0104,3.0017,3.0026,3.0225,3.0151,3.0008,2.9902,2.9756,2.9469,2.9064,2.9229,2.928,2.928,2.9366,2.9401,2.9401,2.9222,2.9112,2.9031,2.8857,2.8649,2.8306,2.7421,2.7,2.6904,2.6052,2.575,2.5758,2.5688,2.5535,2.5382,2.5312,2.5312,2.5312,2.5312,2.5241,2.5182,2.5111,2.4886,2.4496,2.3547,2.2444,2.1274,1.9512,1.8844,1.8442,1.7245,1.6908,1.6908,1.6908,1.6908,1.6908,1.6908,1.6908,1.6908,1.6908,1.6908,1.6908,1.6908,1.6908,1.6908,1.6908,1.6908,1.6908,1.6908,1.6908,1.6908,1.6908,1.676,1.6682,1.6682,1.6682,1.6612,1.6482,1.6342,1.6202,1.6132,1.6,1.5867,1.5867,1.5797,1.5805,1.5805,1.5805,1.5576,1.5204,1.4776,1.4418,1.4057,1.371,1.3492,1.3492,1.3492,1.29,1.1929,1.1335,1.0312,0.916,0.853,0.8179,0.7955,0.8085,0.8166,0.8151,2.9412,2.9363,2.9314,2.9196,2.955,2.9812,2.9812,3.0166,3.0428,3.0428,3.036,3.0416,3.0676,3.0601,3.064,3.0914,3.0797,3.0633,3.0468,3.0413,3.0357,3.0287,3.0287,3.0167,2.9858,3.0041,3.0063,3.0007,2.9822,2.9708,2.9623,2.9297,2.8848,2.8381,2.7591,2.7027,2.6633,2.6025,2.5688,2.5606,2.5535,2.5382,2.5312,2.5312,2.5241,2.5241,2.5241,2.5111,2.4992,2.4909,2.4706,2.4422,2.3456,2.2491,2.143,1.9786,1.8977,1.8375,1.7245,1.6908,1.6908,1.6908,1.6908,1.6908,1.6908,1.6908,1.6908,1.6908,1.6908,1.6908,1.6908,1.6908,1.6908,1.6908,1.6908,1.6908,1.6908,1.6908,1.6908,1.676,1.6682,1.6533,1.6473,1.6473,1.6403,1.6202,1.6132,1.6061,1.6,1.5867,1.5805,1.5805,1.5655,1.5576,1.5576,1.5434,1.5213,1.4991,1.4561,1.4201,1.3848,1.3637,1.3492,1.3492,1.3273,1.2599,1.1639,1.0918,0.9983,0.895,0.8466,0.8208,0.8138,0.8251,0.8247,0.8237,3.0428,3.0428,3.0428,3.0428,3.0474,3.052,3.0452,3.0514,3.056,3.0545,3.044,3.0601,3.1213,3.1141,3.1329,3.1936,3.1841,3.1727,3.1539,3.1482,3.1409,3.1278,3.1292,3.101,3.0359,3.085,3.1117,3.1087,3.0821,3.0702,3.0687,2.987,2.8967,2.8051,2.7351,2.6633,2.584,2.5676,2.5535,2.5535,2.5382,2.5312,2.5312,2.5312,2.5182,2.5123,2.5052,2.4921,2.4718,2.4562,2.4345,2.4108,2.3603,2.2621,2.1505,2.0218,1.9018,1.7949,1.7116,1.6908,1.6908,1.6908,1.6908,1.6908,1.6908,1.6908,1.6908,1.6908,1.6908,1.6908,1.6908,1.6908,1.6908,1.6908,1.6908,1.6908,1.6908,1.6908,1.683,1.6673,1.6603,1.6542,1.6342,1.6272,1.6202,1.6132,1.6061,1.6,1.5797,1.5805,1.5805,1.5805,1.5426,1.5204,1.5204,1.4776,1.4569,1.4569,1.4274,1.392,1.3492,1.3492,1.3492,1.3492,1.2893,1.2238,1.1614,1.0401,0.9592,0.9021,0.8302,0.815,0.8316,0.8316,0.8241,0.8201,3.0428,3.0428,3.0428,3.0428,3.0843,3.1129,3.1037,3.1481,3.1763,3.1668,3.1612,3.1673,3.181,3.1728,3.169,3.1826,3.1655,3.1539,3.1482,3.1409,3.1351,3.1278,3.119,3.0999,3.0675,3.03,3.0372,3.0895,3.019,2.987,2.9808,2.8903,2.8117,2.7351,2.6414,2.5804,2.5688,2.5453,2.5382,2.5382,2.5312,2.5312,2.5312,2.5182,2.5111,2.5052,2.4921,2.4718,2.4502,2.4345,2.4273,2.4108,2.3603,2.3222,2.2599,2.044,1.9576,1.901,1.7329,1.6908,1.6908,1.6908,1.6908,1.6908,1.6908,1.6908,1.6908,1.6908,1.6908,1.6908,1.6908,1.6908,1.6908,1.6908,1.6908,1.6908,1.6908,1.6908,1.6908,1.683,1.6682,1.6542,1.6342,1.607,1.5938,1.6061,1.5929,1.5867,1.5805,1.5805,1.5805,1.5805,1.5426,1.5204,1.5204,1.4561,1.4201,1.4201,1.4129,1.392,1.3492,1.3492,1.3492,1.3492,1.2893,1.2357,1.1878,1.0473,0.9767,0.935,0.8552,0.8345,0.8507,0.8507,0.8352,0.8113,3.1167,3.1167,3.1167,3.1167,3.1442,3.1671,3.1576,3.1866,3.2094,3.1996,3.194,3.1883,3.1883,3.1784,3.167,3.167,3.1539,3.1467,3.1409,3.1351,3.1234,3.1058,3.0999,3.0702,3.0129,2.9421,2.9359,3.0068,2.9282,2.8903,2.8839,2.7973,2.7324,2.6947,2.6013,2.5535,2.5453,2.5312,2.5312,2.5312,2.5312,2.5312,2.5312,2.5241,2.5123,2.4921,2.4861,2.4646,2.4345,2.4273,2.42,2.4154,2.389,2.333,2.2473,2.0656,1.9674,1.8874,1.7348,1.6908,1.6908,1.6908,1.683,1.676,1.6908,1.6908,1.6908,1.6908,1.6908,1.6908,1.676,1.683,1.6839,1.6621,1.676,1.683,1.6621,1.6691,1.6691,1.663,1.6473,1.6272,1.607,1.5867,1.5867,1.5929,1.5867,1.5805,1.5805,1.5805,1.5805,1.5805,1.5213,1.4919,1.4919,1.4209,1.3775,1.3775,1.3775,1.371,1.3492,1.3492,1.3579,1.3726,1.2736,1.2368,1.2167,1.0471,0.9688,0.9489,0.8729,0.8483,0.8568,0.8568,0.8384,0.8025,3.2053,3.1996,3.1996,3.1996,3.1996,3.1996,3.194,3.194,3.194,3.194,3.1841,3.1727,3.1727,3.1597,3.1467,3.1467,3.1467,3.1409,3.1292,3.1219,3.1117,3.0821,3.0762,3.0251,2.931,2.857,2.8441,2.9107,2.8312,2.792,2.7789,2.7124,2.6731,2.6471,2.5873,2.5465,2.5312,2.5312,2.5312,2.5312,2.5312,2.5312,2.5312,2.5241,2.5052,2.4801,2.4718,2.449,2.42,2.42,2.42,2.42,2.42,2.3374,2.2125,2.0986,1.9687,1.8431,1.733,1.6963,1.6908,1.6908,1.6751,1.6612,1.683,1.683,1.6769,1.6769,1.6769,1.676,1.6612,1.6691,1.67,1.6342,1.6551,1.67,1.6351,1.6473,1.6473,1.6342,1.6202,1.5991,1.5867,1.5805,1.5805,1.5805,1.5805,1.5805,1.5805,1.5805,1.5797,1.5726,1.4999,1.4569,1.4497,1.3855,1.3492,1.3492,1.3492,1.3492,1.3492,1.355,1.3652,1.3748,1.2639,1.2186,1.2141,1.0315,0.9583,0.9464,0.8856,0.8568,0.8568,0.8476,0.8208,0.7852,3.1981,3.1996,3.1996,3.1996,3.1996,3.194,3.1841,3.1841,3.1784,3.1597,3.1539,3.1482,3.1409,3.1351,3.1351,3.1351,3.1351,3.1292,3.1146,3.094,3.0821,3.0821,3.0507,3.0007,2.931,2.8441,2.8051,2.8182,2.7458,2.7056,2.7056,2.6773,2.6308,2.5734,2.5453,2.5312,2.5312,2.5312,2.5312,2.5312,2.5312,2.5312,2.5241,2.4992,2.4861,2.4718,2.4418,2.4273,2.42,2.42,2.42,2.42,2.42,2.3621,2.2657,2.1429,2.0234,1.8928,1.7738,1.7165,1.6908,1.6908,1.6751,1.6603,1.6603,1.6482,1.6412,1.6412,1.6412,1.6342,1.6342,1.6342,1.6342,1.6281,1.6351,1.6342,1.6281,1.6342,1.6342,1.6272,1.6202,1.6061,1.607,1.5938,1.5805,1.5805,1.5805,1.5805,1.5805,1.5805,1.5647,1.5275,1.4856,1.4497,1.4201,1.371,1.3492,1.3492,1.3492,1.3492,1.3506,1.3784,1.3629,1.3134,1.2687,1.2073,1.1261,1.0129,0.9496,0.9314,0.8819,0.8568,0.8568,0.8124,0.7944,0.7852,3.1769,3.1712,3.1712,3.1712,3.1712,3.1712,3.1655,3.1597,3.1482,3.1409,3.1307,3.1249,3.1176,3.119,3.119,3.119,3.119,3.1132,3.0955,3.0821,3.0702,3.0507,3.0387,2.9732,2.8427,2.8038,2.7378,2.6514,2.6264,2.6126,2.5975,2.5906,2.5709,2.5453,2.5312,2.5312,2.5312,2.5312,2.5312,2.5312,2.5241,2.5182,2.5182,2.4921,2.4718,2.4574,2.4273,2.42,2.42,2.42,2.42,2.42,2.42,2.3361,2.2211,2.145,2.0138,1.8742,1.7742,1.7367,1.7183,1.6963,1.6691,1.6403,1.6403,1.6202,1.607,1.6272,1.6272,1.6272,1.6202,1.6272,1.6211,1.607,1.6211,1.6202,1.607,1.614,1.6132,1.6,1.607,1.607,1.5929,1.5867,1.5805,1.5805,1.5805,1.5805,1.5805,1.5576,1.5355,1.5204,1.4633,1.4274,1.4129,1.371,1.3492,1.3499,1.3682,1.377,1.377,1.3525,1.3467,1.3471,1.2556,1.1857,1.1426,1.0238,0.9611,0.9262,0.874,0.8476,0.8296,0.8032,0.7768,0.7591]}]]